[[{"header":{"parameterUnit":"m.s-1","parameterCategory":1,"la1":30.6,"la2":28.766,"lo1":-90.7593,"lo2":-88.6598,"dy":0.0162,"dx":0.0183,"nx":116,"ny":114,"refTime":"2024-06-19T06:00:00:Z","depth":0,"parameterNumber":2,"parameterNumberName":"U-component_of_WINDS"},"data":[0.0,0.0,0.0,0.0,0.0,0.0,0.0,0.0,0.0,0.0,0.0,0.0,0.0,0.0,0.0,0.0,0.0,0.0,0.0,0.0,0.0,0.0,0.0,0.0,0.0,0.0,0.0,0.0,0.0,0.0,0.0,0.0,0.0,0.0,0.0,0.0,0.0,0.0,0.0,0.0,0.0,0.0,0.0,0.0,0.0,0.0,0.0,0.0,0.0,0.0,0.0,0.0,0.0,0.0,0.0,0.0,0.0,0.0,0.0,0.0,0.0,0.0,0.0,0.0,0.0,0.0,0.0,0.0,0.0,0.0,0.0,0.0,0.0,0.0,0.0,0.0,0.0,0.0,0.0,0.0,0.0,0.0,0.0,0.0,0.0,0.0,0.0,0.0,0.0,0.0,0.0,0.0,0.0,0.0,0.0,0.0,0.0,0.0,0.0,0.0,0.0,0.0,0.0,0.0,0.0,0.0,0.0,0.0,0.0,0.0,0.0,0.0,0.0,0.0,0.0,0.0,0.0,0.0,0.0,0.0,0.0,0.0,0.0,0.0,0.0,0.0,0.0,0.0,0.0,0.0,0.0,0.0,0.0,0.0,0.0,0.0,0.0,0.0,0.0,0.0,0.0,0.0,0.0,0.0,0.0,0.0,0.0,0.0,0.0,0.0,0.0,0.0,0.0,0.0,0.0,0.0,0.0,0.0,0.0,0.0,0.0,0.0,0.0,0.0,0.0,0.0,0.0,0.0,0.0,0.0,0.0,0.0,0.0,0.0,0.0,0.0,0.0,0.0,0.0,0.0,0.0,0.0,0.0,0.0,0.0,0.0,0.0,0.0,0.0,0.0,0.0,0.0,0.0,0.0,0.0,0.0,0.0,0.0,0.0,0.0,0.0,0.0,0.0,0.0,0.0,0.0,0.0,0.0,0.0,0.0,0.0,0.0,0.0,0.0,0.0,0.0,0.0,0.0,0.0,0.0,0.0,0.0,0.0,0.0,0.0,0.0,0.0,0.0,0.0,0.0,0.0,0.0,0.0,0.0,0.0,0.0,0.0,0.0,0.0,0.0,0.0,0.0,0.0,0.0,0.0,0.0,0.0,0.0,0.0,0.0,0.0,0.0,0.0,0.0,0.0,0.0,0.0,0.0,0.0,0.0,0.0,0.0,0.0,0.0,0.0,0.0,0.0,0.0,0.0,0.0,0.0,0.0,0.0,0.0,0.0,0.0,0.0,0.0,0.0,0.0,0.0,0.0,0.0,0.0,0.0,0.0,0.0,0.0,0.0,0.0,0.0,0.0,0.0,0.0,0.0,0.0,0.0,0.0,0.0,0.0,0.0,0.0,0.0,0.0,0.0,0.0,0.0,0.0,0.0,0.0,0.0,0.0,0.0,0.0,0.0,0.0,0.0,0.0,0.0,0.0,0.0,0.0,0.0,0.0,0.0,0.0,0.0,0.0,0.0,0.0,0.0,0.0,0.0,0.0,0.0,0.0,0.0,0.0,0.0,0.0,0.0,0.0,0.0,0.0,0.0,0.0,0.0,0.0,0.0,0.0,0.0,0.0,0.0,0.0,0.0,0.0,0.0,0.0,0.0,0.0,0.0,0.0,0.0,0.0,0.0,0.0,0.0,0.0,0.0,0.0,0.0,0.0,0.0,0.0,0.0,0.0,0.0,0.0,0.0,0.0,0.0,0.0,0.0,0.0,0.0,0.0,0.0,0.0,0.0,0.0,0.0,0.0,0.0,0.0,0.0,0.0,0.0,0.0,0.0,0.0,0.0,0.0,0.0,0.0,0.0,0.0,0.0,0.0,0.0,0.0,0.0,0.0,0.0,0.0,0.0,0.0,0.0,0.0,0.0,0.0,0.0,0.0,0.0,0.0,0.0,0.0,0.0,0.0,0.0,0.0,0.0,0.0,0.0,0.0,0.0,0.0,0.0,0.0,0.0,0.0,0.0,0.0,0.0,0.0,0.0,0.0,0.0,0.0,0.0,0.0,0.0,0.0,0.0,0.0,0.0,0.0,0.0,0.0,0.0,0.0,0.0,0.0,0.0,0.0,0.0,0.0,0.0,0.0,0.0,0.0,0.0,0.0,0.0,0.0,0.0,0.0,0.0,0.0,0.0,0.0,0.0,0.0,0.0,0.0,0.0,0.0,0.0,0.0,0.0,0.0,0.0,0.0,0.0,0.0,0.0,0.0,0.0,0.0,0.0,0.0,0.0,0.0,0.0,0.0,0.0,0.0,0.0,0.0,0.0,0.0,0.0,0.0,0.0,0.0,0.0,0.0,0.0,0.0,0.0,0.0,0.0,0.0,0.0,0.0,0.0,0.0,0.0,0.0,0.0,0.0,0.0,0.0,0.0,0.0,0.0,0.0,0.0,0.0,0.0,0.0,0.0,0.0,0.0,0.0,0.0,0.0,0.0,0.0,0.0,0.0,0.0,0.0,0.0,0.0,0.0,0.0,0.0,0.0,0.0,0.0,0.0,0.0,0.0,0.0,0.0,0.0,0.0,0.0,0.0,0.0,0.0,0.0,0.0,0.0,0.0,0.0,0.0,0.0,0.0,0.0,0.0,0.0,0.0,0.0,0.0,0.0,0.0,0.0,0.0,0.0,0.0,0.0,0.0,0.0,0.0,0.0,0.0,0.0,0.0,0.0,0.0,0.0,0.0,0.0,0.0,0.0,0.0,0.0,0.0,0.0,0.0,0.0,0.0,0.0,0.0,0.0,0.0,0.0,0.0,0.0,0.0,0.0,0.0,0.0,0.0,0.0,0.0,0.0,0.0,0.0,0.0,0.0,0.0,0.0,0.0,0.0,0.0,0.0,0.0,0.0,0.0,0.0,0.0,0.0,0.0,0.0,0.0,0.0,0.0,0.0,0.0,0.0,0.0,0.0,0.0,0.0,0.0,0.0,0.0,0.0,0.0,0.0,0.0,0.0,0.0,0.0,0.0,0.0,0.0,0.0,0.0,0.0,0.0,0.0,0.0,0.0,0.0,0.0,0.0,0.0,0.0,0.0,0.0,0.0,0.0,0.0,0.0,0.0,0.0,0.0,0.0,0.0,0.0,0.0,0.0,0.0,0.0,0.0,0.0,0.0,0.0,0.0,0.0,0.0,0.0,0.0,0.0,0.0,0.0,0.0,0.0,0.0,0.0,0.0,0.0,0.0,0.0,0.0,0.0,0.0,0.0,0.0,0.0,0.0,0.0,0.0,0.0,0.0,0.0,0.0,0.0,0.0,0.0,0.0,0.0,0.0,0.0,0.0,0.0,0.0,0.0,0.0,0.0,0.0,0.0,0.0,0.0,0.0,0.0,0.0,0.0,0.0,0.0,0.0,0.0,0.0,0.0,0.0,0.0,0.0,0.0,0.0,0.0,0.0,0.0,0.0,0.0,0.0,0.0,0.0,0.0,0.0,0.0,0.0,0.0,0.0,0.0,0.0,0.0,0.0,0.0,0.0,0.0,0.0,0.0,0.0,0.0,0.0,0.0,0.0,0.0,0.0,0.0,0.0,0.0,0.0,0.0,0.0,0.0,0.0,0.0,0.0,0.0,0.0,0.0,0.0,0.0,0.0,0.0,0.0,0.0,0.0,0.0,0.0,0.0,0.0,0.0,0.0,0.0,0.0,0.0,0.0,0.0,0.0,0.0,0.0,0.0,0.0,0.0,0.0,0.0,0.0,0.0,0.0,0.0,0.0,0.0,0.0,0.0,0.0,0.0,0.0,0.0,0.0,0.0,0.0,0.0,0.0,0.0,0.0,0.0,0.0,0.0,0.0,0.0,0.0,0.0,0.0,0.0,0.0,0.0,0.0,0.0,0.0,0.0,0.0,0.0,0.0,0.0,0.0,0.0,0.0,0.0,0.0,0.0,0.0,0.0,0.0,0.0,0.0,0.0,0.0,0.0,0.0,0.0,0.0,0.0,0.0,0.0,0.0,0.0,0.0,0.0,0.0,0.0,0.0,0.0,0.0,0.0,0.0,0.0,0.0,0.0,0.0,0.0,0.0,0.0,0.0,0.0,0.0,0.0,0.0,0.0,0.0,0.0,0.0,0.0,0.0,0.0,0.0,0.0,0.0,0.0,0.0,0.0,0.0,0.0,0.0,0.0,0.0,0.0,0.0,0.0,0.0,0.0,0.0,0.0,0.0,0.0,0.0,0.0,0.0,0.0,0.0,0.0,0.0,0.0,0.0,0.0,0.0,0.0,0.0,0.0,0.0,0.0,0.0,0.0,0.0,0.0,0.0,0.0,0.0,0.0,0.0,0.0,0.0,0.0,0.0,0.0,0.0,0.0,0.0,0.0,0.0,0.0,0.0,0.0,0.0,0.0,0.0,0.0,0.0,0.0,0.0,0.0,0.0,0.0,0.0,0.0,0.0,0.0,0.0,0.0,0.0,0.0,0.0,0.0,0.0,0.0,0.0,0.0,0.0,0.0,0.0,0.0,0.0,0.0,0.0,0.0,0.0,0.0,0.0,0.0,0.0,0.0,0.0,0.0,0.0,0.0,0.0,0.0,0.0,0.0,0.0,0.0,0.0,0.0,0.0,0.0,0.0,0.0,0.0,0.0,0.0,0.0,0.0,0.0,0.0,0.0,0.0,0.0,0.0,0.0,0.0,0.0,0.0,0.0,0.0,0.0,0.0,0.0,0.0,0.0,0.0,0.0,0.0,0.0,0.0,0.0,0.0,0.0,0.0,0.0,0.0,0.0,0.0,0.0,0.0,0.0,0.0,0.0,0.0,0.0,0.0,0.0,0.0,0.0,0.0,0.0,0.0,0.0,0.0,0.0,0.0,0.0,0.0,0.0,0.0,0.0,0.0,0.0,0.0,0.0,0.0,0.0,0.0,0.0,0.0,0.0,0.0,0.0,0.0,0.0,0.0,0.0,0.0,0.0,0.0,0.0,0.0,0.0,0.0,0.0,0.0,0.0,0.0,0.0,0.0,0.0,0.0,0.0,0.0,0.0,0.0,0.0,0.0,0.0,0.0,0.0,0.0,0.0,0.0,0.0,0.0,0.0,0.0,0.0,0.0,0.0,0.0,0.0,0.0,0.0,0.0,0.0,0.0,0.0,0.0,0.0,0.0,0.0,0.0,0.0,0.0,0.0,0.0,0.0,0.0,0.0,0.0,0.0,0.0,0.0,0.0,0.0,0.0,0.0,0.0,0.0,0.0,0.0,0.0,0.0,0.0,0.0,0.0,0.0,0.0,0.0,0.0,0.0,0.0,0.0,0.0,0.0,0.0,0.0,0.0,0.0,0.0,0.0,0.0,0.0,0.0,0.0,0.0,0.0,0.0,0.0,0.0,0.0,0.0,0.0,0.0,0.0,0.0,0.0,0.0,0.0,0.0,0.0,0.0,0.0,0.0,0.0,0.0,0.0,0.0,0.0,0.0,0.0,0.0,0.0,0.0,0.0,0.0,0.0,0.0,0.0,0.0,0.0,0.0,0.0,0.0,0.0,0.0,0.0,0.0,0.0,0.0,0.0,0.0,0.0,0.0,0.0,0.0,0.0,0.0,0.0,0.0,0.0,0.0,0.0,0.0,0.0,0.0,0.0,0.0,0.0,0.0,0.0,0.0,0.0,0.0,0.0,0.0,0.0,0.0,0.0,0.0,0.0,0.0,0.0,0.0,0.0,0.0,0.0,0.0,0.0,0.0,0.0,0.0,0.0,0.0,0.0,0.0,0.0,0.0,0.0,0.0,0.0,0.0,0.0,0.0,0.0,0.0,0.0,0.0,0.0,0.0,0.0,0.0,0.0,0.0,0.0,0.0,0.0,0.0,0.0,0.0,0.0,0.0,0.0,0.0,0.0,0.0,0.0,0.0,0.0,0.0,0.0,0.0,0.0,0.0,0.0,0.0,0.0,0.0,0.0,0.0,0.0,0.0,0.0,0.0,0.0,0.0,0.0,0.0,0.0,0.0,0.0,0.0,0.0,0.0,0.0,0.0,0.0,0.0,0.0,0.0,0.0,0.0,0.0,0.0,0.0,0.0,0.0,0.0,0.0,0.0,0.0,0.0,0.0,0.0,0.0,0.0,0.0,0.0,0.0,0.0,0.0,0.0,0.0,0.0,0.0,0.0,0.0,0.0,0.0,0.0,-2.6657,-2.6399,0.0,0.0,0.0,0.0,0.0,0.0,0.0,0.0,0.0,0.0,0.0,0.0,0.0,0.0,0.0,0.0,0.0,0.0,0.0,0.0,0.0,0.0,0.0,-1.7709,-1.8367,-1.9988,-2.0142,-2.0115,-2.0041,-1.9912,-1.9639,-1.9233,-1.9061,-1.874,-1.8252,-1.7831,-1.7562,-1.7412,-1.6597,-1.635,-1.6634,-1.5788,-1.5659,-1.6082,0.0,0.0,0.0,0.0,0.0,0.0,0.0,0.0,0.0,0.0,0.0,0.0,0.0,0.0,0.0,0.0,0.0,0.0,0.0,0.0,0.0,0.0,0.0,0.0,0.0,0.0,0.0,0.0,0.0,0.0,0.0,0.0,0.0,0.0,0.0,0.0,0.0,0.0,0.0,0.0,0.0,0.0,0.0,0.0,0.0,0.0,0.0,0.0,0.0,0.0,0.0,0.0,0.0,0.0,0.0,0.0,0.0,0.0,0.0,0.0,0.0,0.0,0.0,0.0,0.0,0.0,0.0,0.0,0.0,0.0,-2.6674,-2.6468,0.0,0.0,0.0,0.0,0.0,0.0,0.0,0.0,0.0,0.0,0.0,0.0,0.0,0.0,0.0,0.0,0.0,0.0,0.0,0.0,0.0,-1.5913,-1.7711,-1.7844,-1.8463,-2.0108,-2.0255,-2.0227,-2.0159,-2.0133,-2.0134,-2.0116,-2.0002,-1.9909,-1.9816,-1.9061,-1.859,-1.8482,-1.7641,-1.7049,-1.6658,-1.6125,-1.6235,-1.6779,-1.5539,0.0,0.0,0.0,0.0,0.0,0.0,0.0,0.0,0.0,0.0,0.0,0.0,0.0,0.0,0.0,0.0,0.0,0.0,0.0,0.0,0.0,0.0,0.0,0.0,0.0,0.0,0.0,0.0,0.0,0.0,0.0,0.0,0.0,0.0,0.0,0.0,0.0,0.0,0.0,0.0,0.0,0.0,0.0,0.0,0.0,0.0,0.0,0.0,0.0,0.0,0.0,0.0,0.0,0.0,0.0,0.0,0.0,0.0,0.0,0.0,0.0,0.0,0.0,-2.8322,-2.8152,-2.8185,-2.7929,-2.7384,-2.6674,-2.6606,-2.6554,-2.6502,-2.6428,0.0,0.0,0.0,0.0,0.0,0.0,0.0,0.0,0.0,0.0,0.0,0.0,0.0,0.0,0.0,0.0,0.0,0.0,0.0,-1.6019,-1.7719,-1.788,-1.8582,-2.0301,-2.046,-2.0426,-2.0351,-2.0314,-2.0248,-2.0192,-2.0106,-2.0021,-1.9901,-1.9777,-1.9669,-1.9583,-1.8107,-1.6952,-1.6084,-1.5151,-1.5377,-1.6524,-1.6228,-1.6536,-1.7206,0.0,0.0,0.0,0.0,0.0,0.0,0.0,0.0,0.0,0.0,0.0,0.0,0.0,0.0,0.0,0.0,0.0,0.0,0.0,0.0,0.0,0.0,0.0,0.0,0.0,0.0,0.0,0.0,0.0,0.0,0.0,0.0,0.0,0.0,0.0,0.0,0.0,0.0,0.0,0.0,0.0,-2.5867,-2.6129,0.0,0.0,0.0,0.0,0.0,0.0,0.0,0.0,0.0,0.0,0.0,0.0,0.0,-2.8865,-2.8924,-2.9609,-2.9734,-2.9367,-2.96,-2.9055,-2.7859,-2.7754,-2.7296,-2.6606,-2.6554,0.0,-2.6535,-2.6726,0.0,0.0,0.0,0.0,0.0,0.0,0.0,0.0,0.0,0.0,0.0,0.0,0.0,0.0,0.0,0.0,0.0,0.0,0.0,0.0,0.0,-1.7753,-1.8398,-2.0076,-2.0212,-2.0234,-2.0289,-2.0254,-2.0263,-2.0316,-2.0274,-2.0222,-2.0126,-2.0115,-2.0107,-2.0071,-1.8846,-1.7767,-1.6875,-1.5798,-1.5573,-1.6123,-1.6151,-1.6631,-1.7316,-1.63,0.0,0.0,0.0,0.0,0.0,0.0,0.0,0.0,0.0,0.0,0.0,0.0,0.0,0.0,0.0,0.0,0.0,0.0,0.0,0.0,0.0,0.0,0.0,0.0,0.0,0.0,0.0,0.0,0.0,0.0,0.0,0.0,0.0,0.0,0.0,0.0,0.0,0.0,0.0,-2.5305,-2.6707,-2.723,-2.7486,-2.7734,0.0,0.0,0.0,0.0,0.0,0.0,0.0,0.0,0.0,-2.899,-2.9725,-3.0137,-3.0166,-3.01,-3.024,-3.0615,-2.9696,-2.9023,-2.8577,-2.794,-2.7226,-2.6588,-2.6956,-2.7088,-2.6997,-2.7135,-2.6678,-2.5838,0.0,0.0,0.0,0.0,-2.4178,-2.4118,0.0,0.0,0.0,0.0,0.0,0.0,0.0,0.0,0.0,0.0,0.0,0.0,-1.7193,-1.7252,-1.7851,-1.9521,-1.9482,-1.9585,-2.0113,-1.9985,-2.0038,-2.033,-2.0375,-2.0379,-2.0337,-2.0346,-2.0235,-1.9993,-1.9093,-1.8191,-1.7296,-1.6202,-1.571,-1.576,-1.6007,-1.6521,-1.7159,-1.6355,-1.568,-1.5002,0.0,0.0,0.0,0.0,0.0,0.0,0.0,0.0,0.0,0.0,0.0,0.0,0.0,0.0,0.0,0.0,0.0,0.0,0.0,0.0,0.0,0.0,0.0,0.0,0.0,0.0,0.0,0.0,0.0,0.0,0.0,0.0,0.0,0.0,0.0,0.0,0.0,-2.6747,-2.7452,-2.8329,-2.8257,-2.8327,0.0,0.0,0.0,0.0,0.0,0.0,-2.8737,-3.0269,-3.0882,-3.0287,-3.1101,-3.1635,-3.1852,-3.0938,-3.0931,-3.187,-3.0189,-2.9259,-2.907,-2.8424,-2.7623,-2.6768,-2.7487,-2.7731,-2.7657,-2.7677,-2.7306,-2.6712,-2.691,-2.6658,-2.6077,-2.5002,-2.4582,-2.4477,0.0,0.0,0.0,0.0,0.0,0.0,0.0,0.0,0.0,0.0,0.0,-1.5424,-1.6289,-1.6189,-1.6816,-1.8608,-1.8063,-1.8293,-1.9909,-1.9406,-1.9405,-2.0178,-2.0331,-2.0394,-2.0394,-2.0455,-2.0046,-1.9166,-1.8349,-1.7469,-1.6522,-1.5516,-1.5249,-1.5619,-1.601,-1.6448,-1.6898,-1.6531,-1.5973,-1.5286,-1.4215,0.0,0.0,0.0,0.0,0.0,0.0,0.0,0.0,0.0,0.0,0.0,0.0,0.0,0.0,0.0,0.0,0.0,0.0,0.0,0.0,0.0,0.0,0.0,0.0,0.0,0.0,0.0,0.0,0.0,0.0,0.0,0.0,0.0,0.0,0.0,0.0,0.0,0.0,-2.9514,-2.9608,0.0,0.0,0.0,0.0,-2.8718,-2.9457,-2.9797,-2.9548,-3.1173,-3.2107,-3.2071,-3.2685,-3.3368,-3.4123,-3.2885,-3.2477,-3.2919,-3.1806,-3.0391,-2.8732,-2.9254,-2.8693,-2.7394,-2.8068,-2.8362,-2.8362,-2.8422,-2.7865,-2.6983,-2.6972,-2.6437,-2.5571,-2.4881,-2.4582,-2.4477,0.0,0.0,0.0,-1.513,-1.517,-1.5221,-1.5311,-1.5329,-1.5245,-1.5125,-1.5078,-1.5278,-1.5903,-1.5903,-1.6295,-1.7379,-1.7218,-1.7332,-1.8023,-1.8485,-1.8918,-1.9281,-1.9922,-2.0272,-2.0272,-1.9754,-1.9348,-1.9095,-1.7734,-1.6854,-1.6409,-1.5457,-1.5014,-1.5035,-1.5231,-1.5363,-1.5515,-1.6082,-1.5706,-1.4648,-1.4312,-1.3518,0.0,0.0,0.0,0.0,0.0,0.0,0.0,0.0,0.0,0.0,0.0,0.0,0.0,0.0,0.0,0.0,0.0,0.0,0.0,0.0,0.0,0.0,0.0,0.0,0.0,0.0,0.0,0.0,0.0,0.0,0.0,0.0,0.0,0.0,0.0,0.0,0.0,-2.9589,-2.9701,0.0,-2.9607,-3.0018,-3.0195,-2.9935,-3.155,-3.2206,-3.1483,-3.328,-3.4109,-3.3556,-3.3633,-3.374,-3.3841,-3.2599,-3.1925,-3.1901,-3.069,-2.9794,-2.9154,-2.8915,-2.855,-2.8068,-2.8312,-2.8622,-2.8996,-2.8739,-2.8436,-2.8132,-2.8291,-2.7922,-2.7235,-2.6266,-2.5899,-2.5794,-1.4622,-1.4789,0.0,-1.517,-1.5218,-1.5254,-1.5293,-1.5281,-1.5178,-1.4986,-1.4874,-1.4907,-1.5202,-1.5116,-1.5365,-1.6139,-1.5912,-1.605,-1.6733,-1.7247,-1.7799,-1.84,-1.9396,-1.9961,-2.0024,-1.9236,-1.8736,-1.8565,-1.7231,-1.6406,-1.6001,-1.5351,-1.4901,-1.4672,-1.4781,-1.4737,-1.4591,-1.5108,-1.4877,-1.4117,-1.396,-1.3156,-1.2182,0.0,0.0,0.0,0.0,0.0,0.0,0.0,0.0,0.0,0.0,0.0,0.0,0.0,0.0,0.0,0.0,0.0,0.0,0.0,0.0,0.0,0.0,0.0,0.0,0.0,0.0,0.0,0.0,0.0,0.0,0.0,0.0,0.0,0.0,-2.882,-2.9063,-2.9626,-2.9701,-2.9701,-2.9701,-3.0434,-3.0917,-3.0906,-3.2822,-3.375,-3.324,-3.4659,-3.5256,-3.4717,-3.4202,-3.3897,-3.3899,-3.2379,-3.1606,-3.1608,-3.0373,-2.9648,-2.94,-2.9201,-2.8969,-2.8738,-2.8986,-2.927,-2.9518,-2.9209,-2.8849,-2.8589,-2.8746,-2.8511,-2.7936,-2.6958,-2.6587,-2.6497,-1.4682,-1.4863,-1.5052,-1.5175,-1.5254,-1.5293,-1.5297,-1.5241,-1.512,-1.4916,-1.4596,-1.4324,-1.4105,-1.3801,-1.3962,-1.4867,-1.4173,-1.4379,-1.61,-1.5677,-1.6055,-1.7606,-1.8769,-1.9458,-1.9617,-1.8981,-1.8259,-1.7461,-1.6842,-1.6127,-1.5285,-1.5169,-1.4926,-1.4612,-1.4778,-1.4634,-1.4225,-1.3595,-1.3483,-1.3669,-1.308,-1.2536,-1.2167,0.0,0.0,0.0,0.0,0.0,0.0,0.0,0.0,0.0,0.0,0.0,0.0,0.0,0.0,0.0,0.0,0.0,0.0,0.0,0.0,0.0,0.0,0.0,0.0,0.0,0.0,0.0,0.0,0.0,0.0,0.0,0.0,0.0,-2.9607,-2.9645,-2.9701,-2.9701,-2.9701,-2.972,-2.9758,-3.0509,-3.1155,-3.1573,-3.316,-3.4229,-3.4606,-3.5173,-3.5472,-3.5472,-3.4369,-3.4023,-3.4454,-3.2507,-3.1725,-3.2117,-3.1025,-3.0145,-2.9466,-3.0195,-3.0129,-2.9483,-3.0154,-3.0199,-2.9793,-2.9766,-2.9196,-2.8288,-2.8288,-2.8027,-2.755,-2.6856,-2.6617,-2.6527,-1.4816,-1.5012,-1.517,-1.5252,-1.5281,-1.529,-1.5222,-1.5218,-1.5049,-1.4596,-1.4452,-1.4223,-1.3783,-1.3524,-1.3496,-1.3734,-1.3396,-1.3396,-1.3871,-1.4429,-1.5494,-1.7184,-1.8124,-1.8419,-1.8027,-1.7529,-1.6951,-1.6347,-1.5746,-1.5371,-1.5226,-1.5195,-1.5044,-1.4788,-1.4203,-1.375,-1.3362,-1.2319,-1.1705,-1.1461,-1.1948,-1.1894,-1.1546,0.0,0.0,0.0,0.0,0.0,0.0,0.0,0.0,0.0,0.0,0.0,0.0,0.0,0.0,0.0,0.0,0.0,0.0,0.0,0.0,0.0,0.0,0.0,0.0,0.0,0.0,0.0,0.0,0.0,0.0,0.0,-2.9083,-2.9664,-2.9664,-2.9701,-2.9701,-2.9701,-2.9701,-3.0152,-3.1335,-3.2177,-3.3071,-3.4109,-3.51,-3.5556,-3.5277,-3.5265,-3.5256,-3.5136,-3.4111,-3.342,-3.3141,-3.2059,-3.1336,-3.0933,-3.0651,-3.041,-3.0212,-3.0427,-3.041,-3.0187,-3.0074,-2.9941,-2.975,-2.8996,-2.8528,-2.8288,-2.8288,-2.8027,-2.7595,-2.7415,-2.7355,-2.7225,-1.4877,-1.5083,-1.5246,-1.5293,-1.528,-1.5241,-1.5176,-1.5009,-1.4744,-1.4286,-1.4039,-1.3733,-1.3278,-1.3072,-1.2929,-1.2806,-1.2732,-1.266,-1.2552,-1.3603,-1.4824,-1.6118,-1.6804,-1.7075,-1.6824,-1.6141,-1.5645,-1.5366,-1.4809,-1.4587,-1.4692,-1.478,-1.4785,-1.4639,-1.3532,-1.274,-1.2121,-1.0563,-0.95,-0.892,-0.935,-1.0006,-1.0784,-1.2022,-1.2648,-1.3002,-1.4087,-1.4789,-1.5353,-1.6459,0.0,0.0,0.0,0.0,0.0,0.0,0.0,0.0,0.0,0.0,0.0,0.0,0.0,0.0,0.0,0.0,0.0,0.0,0.0,0.0,0.0,0.0,0.0,0.0,-2.9345,-2.9701,-2.9701,-2.9701,-2.9701,-2.9701,-3.0002,-3.0677,-3.1952,-3.2831,-3.3836,-3.508,-3.5506,-3.5634,-3.5519,-3.4934,-3.4569,-3.4517,-3.3547,-3.2753,-3.2154,-3.1726,-3.1157,-3.0526,-3.0526,-3.0526,-3.0526,-3.0526,-3.0526,-3.0468,-2.9984,-2.9705,-2.9438,-2.8622,-2.8158,-2.8027,0.0,0.0,0.0,0.0,-2.7458,-2.7152,-1.4901,-1.5119,-1.5295,-1.5292,-1.5243,-1.5178,-1.5095,-1.4744,-1.4364,-1.399,-1.3519,-1.3059,-1.2676,-1.2514,-1.2316,-1.204,-1.2179,-1.2236,-1.207,-1.3243,-1.4171,-1.472,-1.5245,-1.555,-1.5648,-1.4843,-1.4401,-1.44,-1.397,-1.3802,-1.3883,-1.4045,-1.3889,-1.3412,-1.2145,-1.0891,-0.9604,-0.7866,-0.6629,-0.5832,-0.5772,-0.7264,-0.9756,-1.1499,-1.1997,-1.1992,-1.4055,-1.5042,-1.5575,-1.6738,0.0,0.0,0.0,0.0,0.0,0.0,0.0,0.0,0.0,0.0,0.0,0.0,0.0,0.0,0.0,0.0,0.0,0.0,0.0,0.0,0.0,0.0,0.0,0.0,-2.9664,-2.9701,-2.9701,-2.9701,-2.972,-2.9814,-3.0471,-3.1258,-3.2189,-3.3018,-3.4008,-3.5128,-3.5018,-3.4998,-3.5292,-3.4262,0.0,0.0,0.0,-3.209,-3.1521,-3.1504,-3.1157,-3.0526,-3.0526,-3.0526,-3.0526,-3.0526,-3.0526,-3.0468,-2.9941,-2.9483,-2.9028,-2.8448,-2.7978,-2.7625,-2.7625,-2.7625,-2.7575,-2.7509,-2.7152,-2.6669,-1.5035,-1.5183,-1.5301,-1.5291,-1.5232,-1.5138,-1.4977,-1.4682,-1.4274,-1.3686,-1.3368,-1.2956,-1.2289,-1.205,-1.1833,-1.1564,-1.1949,-1.2473,-1.3073,-1.3699,-1.4001,-1.3867,-1.4617,-1.455,-1.3513,-1.3742,-1.3606,-1.3073,-1.2992,-1.3,-1.3101,-1.2979,-1.1085,-0.7773,-0.7337,-0.5159,-0.1811,-0.1744,-0.1449,-0.1099,-0.1918,-0.4367,-0.7687,-0.9409,-1.0643,-1.1634,-1.3455,-1.4869,-1.601,-1.6876,-1.7346,-1.7801,-1.9034,-1.9662,0.0,0.0,0.0,0.0,0.0,0.0,0.0,0.0,0.0,0.0,0.0,0.0,0.0,0.0,0.0,0.0,0.0,0.0,0.0,-2.9457,-2.9664,-2.9701,-2.9701,-2.9701,-2.9945,-3.0603,-3.0828,-3.1728,-3.3886,-3.4154,-3.471,-3.5882,-3.5264,-3.4619,-3.4157,-3.331,-3.2769,-3.2668,-3.251,-3.209,-3.1521,-3.1504,-3.1157,-3.0526,-3.0526,0.0,-3.0526,-3.0526,-3.0526,-3.0426,-2.9617,-2.9166,-2.9028,-2.8091,-2.766,-2.7625,-2.7625,-2.7625,-2.7524,-2.7049,-2.6788,-2.6563,-1.5114,-1.5233,-1.5303,-1.531,-1.5213,-1.5081,-1.4879,-1.4481,-1.3984,-1.3385,-1.3041,-1.2587,-1.1915,-1.1753,-1.1512,-1.1094,-1.136,-1.1885,-1.2646,-1.2921,-1.2873,-1.2525,-1.2794,-1.2526,-1.1619,-1.1741,-1.1674,-1.1406,-1.1493,-1.0627,-0.8845,-0.885,-0.6703,-0.2822,-0.2359,-0.0569,0.2113,0.2102,0.2545,0.3202,0.2422,0.0783,-0.1576,-0.5524,-0.799,-0.9691,-1.1969,-1.4022,-1.5856,-1.7588,-1.8568,-1.9241,-2.0306,-2.0958,-2.1401,0.0,0.0,0.0,0.0,0.0,0.0,0.0,0.0,0.0,0.0,0.0,0.0,0.0,0.0,-2.7651,-2.8609,0.0,-2.9045,-2.9513,-2.9664,-2.9701,-2.9701,-2.9701,-3.0002,-3.0809,-3.1258,-3.2287,-3.4308,-3.4427,-3.4717,-3.5439,-3.4637,-3.3828,-3.3224,-3.2769,-3.2649,-3.295,-3.2808,-3.2674,-3.2593,-3.2434,-3.2109,-3.1603,-3.1603,-3.1603,-3.1603,-3.1603,-3.1457,-3.1132,-3.008,-2.947,-2.9104,-2.8046,-2.7625,-2.7625,-2.7625,-2.7625,-2.7524,-2.693,-2.651,-2.6122,-1.516,-1.5249,-1.5303,-1.531,-1.5327,-1.5254,-1.5028,-1.4666,-1.4217,-1.3667,-1.3252,-1.2749,-1.2082,-1.1961,-1.1741,-1.122,-1.1077,-1.139,-1.2148,-1.2098,-1.1802,-1.1357,-1.1113,-1.0725,-1.0168,-0.9955,-0.9893,-0.997,-0.9387,-0.7515,-0.4471,-0.371,-0.1298,0.2433,0.3114,0.4467,0.625,0.618,0.6658,0.7401,0.6765,0.608,0.4994,0.0086,-0.3309,-0.5897,-0.9128,-1.1769,-1.4147,-1.7143,-1.9075,-2.0384,-2.1446,-2.2086,-2.2537,-2.2939,-2.4261,0.0,0.0,0.0,0.0,0.0,0.0,0.0,0.0,-2.7184,-2.7444,-2.8381,-2.8457,-2.8608,-2.9485,-2.9584,-2.9551,-2.9608,-2.9683,-2.9738,-2.9738,-2.9851,-3.0227,-3.1053,-3.1727,-3.2713,-3.4274,-3.4404,-3.4408,-3.4509,-3.3829,-3.3124,-3.2606,-3.258,-3.2897,-3.3494,-3.3323,-3.3382,-3.3704,-3.3389,-3.3048,-3.268,-3.268,-3.268,-3.268,-3.268,-3.2327,-3.1641,-3.0371,-2.9479,-2.892,-2.7986,-2.7625,-2.7625,-2.7575,-2.7473,-2.7306,-2.6721,-2.6229,-2.5687,-1.5166,-1.5249,-1.5303,-1.531,-1.5784,-1.6052,-1.5739,-1.6039,-1.6061,-1.5412,-1.5008,-1.4465,-1.3554,-1.3249,-1.3062,-1.2947,-1.2064,-1.1926,-1.2905,-1.24,-1.1789,-1.1072,-1.1057,-1.0609,-0.9603,-0.9688,-0.9651,-0.9484,-0.6115,-0.4089,-0.3294,0.0922,0.5149,0.9226,0.9662,1.1768,1.4876,1.3128,1.2193,1.1788,1.0524,0.9524,0.8708,0.8165,0.5334,0.1123,-0.3619,-0.6592,-0.8938,-1.3297,-1.6387,-1.8739,-2.073,-2.1816,-2.2539,-2.3708,-2.49,-2.6012,-2.6641,-2.7062,-2.7475,-2.8234,-2.8426,-2.8582,0.0,-2.927,-2.9456,-3.0172,-2.976,-2.95,-3.0318,-3.0037,-2.9681,-2.9681,-2.9808,-2.9878,-2.9878,-3.0377,-3.1072,-3.1879,-3.2064,-3.2735,-3.4345,-3.4363,-3.4117,-3.3603,-3.3386,-3.305,-3.2457,-3.3038,-3.3389,-3.3494,-3.3883,-3.3933,-3.3704,-3.3389,-3.3048,-3.268,-3.268,-3.268,-3.268,-3.268,-3.2093,-3.0914,-2.9234,-2.8232,-2.778,-2.7655,-2.7625,-2.7575,-2.7488,-2.7115,-2.6563,-2.6068,-2.5837,-2.5632,-1.5231,-1.529,-1.5291,-1.5293,-1.5896,-1.6258,-1.5959,-1.6337,-1.643,-1.58,-1.5322,-1.4788,-1.4074,-1.3454,-1.3081,-1.3185,-1.2482,-1.2049,-1.2176,-1.1839,-1.1201,-1.0214,-1.0216,-0.9796,-0.888,-0.9035,-0.8994,-0.8693,-0.4406,-0.1087,0.1338,0.6178,1.0649,1.4607,1.4668,1.5568,1.699,1.6135,1.554,1.5139,1.4877,1.4241,1.3459,1.3533,1.2679,1.0291,0.1472,-0.4612,0.0,-1.3679,-1.7684,-2.0989,-2.2143,-2.2524,-2.2733,-2.3775,-2.5177,-2.6724,-2.8412,-2.8927,-2.9082,-2.9342,-2.9433,-2.9521,-2.9725,-3.0145,-3.0429,-3.0226,-3.0302,-3.0358,-3.0227,-3.0033,-2.9872,-2.9872,-2.9921,-2.9921,-2.9859,-3.011,-3.0584,-3.1259,-3.18,-3.2735,-3.4282,-3.4316,-3.4005,-3.339,-3.3321,-3.3216,-3.3038,-3.3336,-3.3915,-3.4811,-3.484,-3.4904,-3.4985,-3.4658,-3.432,-3.3972,-3.3972,-3.3972,-3.3955,-3.3231,-3.1868,-2.999,-2.8943,-2.8122,-2.7575,-2.7539,-2.7269,-2.693,-2.6841,-2.6404,-2.5837,-2.5618,-2.5398,-2.5007,-1.526,-1.5297,-1.5293,-1.5293,-1.5947,-1.6432,-1.6347,-1.678,-1.7009,-1.6659,-1.6149,-1.5527,-1.4816,-1.3914,-1.3427,-1.3615,-1.2826,-1.2171,-1.1693,-1.1345,-1.0623,-0.9502,-0.9446,-0.9075,-0.8236,-0.7156,-0.6445,-0.6105,-0.0488,0.3729,0.6672,1.1723,1.5646,1.8456,1.875,1.8862,1.8822,1.8479,1.8121,1.7896,1.8407,1.8195,1.7607,1.7802,1.8208,1.7377,0.7454,0.0808,-0.4331,-1.1061,-1.5811,-1.9425,-2.2527,-2.3335,-2.3326,-2.4412,-2.6164,-2.8129,-2.9843,-3.0321,-3.0229,-2.9819,-2.9755,-2.9679,-2.9355,-2.9924,-3.0443,-3.0262,-3.0698,-3.1002,-3.066,-3.0481,-3.0316,-3.0072,-3.0041,-3.0026,-2.9921,-3.0082,-3.0449,-3.1129,-3.1912,-3.2957,-3.4297,-3.4293,-3.3979,-3.335,-3.3291,-3.327,-3.3178,-3.3406,-3.409,-3.546,-3.5379,-3.549,-3.589,-3.5588,-3.5241,-3.4899,-3.4899,-3.4783,-3.4551,-3.303,-3.1245,-2.9369,-2.8625,-2.8038,-2.7575,-2.7488,-2.7167,-2.6736,-2.6404,-2.5906,-2.5342,-2.5119,-2.4851,-2.4509,-1.5182,-1.5257,-1.5303,-1.5292,-1.6023,-1.672,-1.7103,-1.7739,-1.8287,-1.8663,-1.8191,-1.7399,-1.6246,-1.5197,-1.4571,-1.4651,-1.3331,-1.239,-1.2093,-1.1212,-1.021,-0.905,-0.9078,-0.8712,-0.785,-0.3546,-0.118,-0.082,0.7241,1.1475,1.2087,1.7502,2.0136,2.0378,2.1874,2.2423,2.2171,2.0933,2.0244,2.0037,2.0463,2.0591,2.0623,2.1148,2.1353,2.0657,1.503,1.2389,0.9655,-0.2713,-0.7971,-1.0997,-2.072,-2.3952,-2.4481,-2.6131,-2.8408,-3.0416,-3.0549,-3.0591,-3.0369,-2.9528,-2.9276,-2.8975,-2.7995,-2.8396,-2.9384,-3.0755,-3.108,-3.1362,-3.2179,-3.1797,-3.1083,-3.0242,-3.0155,-3.0182,-3.0202,-3.0652,-3.1298,-3.2146,-3.2799,-3.3534,-3.442,-3.4381,-3.403,-3.3332,-3.3291,-3.3037,-3.2458,-3.3125,-3.3898,-3.4705,-3.5101,-3.549,-3.589,-3.5588,-3.5241,-3.4899,-3.4899,-3.4518,-3.3773,-3.1388,-2.9956,-2.9323,-2.8162,-2.764,-2.7625,-2.7575,-2.7539,-2.7284,-2.6563,-2.5837,-2.5119,-2.4408,-2.4292,-2.4408,-1.5245,-1.5287,-1.5319,-1.537,-1.5579,-1.5948,-1.6573,-1.7651,-1.8339,-1.8157,-1.7872,0.0,0.0,0.0,0.0,0.0,-1.4063,-1.3175,-1.2283,-1.1594,-1.072,-0.958,-0.9465,-0.7618,-0.369,-0.5072,-0.2456,0.4442,0.746,1.0816,1.4498,1.9573,2.2022,2.216,2.2669,2.2702,2.2412,2.2691,2.2622,2.2357,2.3196,2.3494,2.3502,2.4222,2.447,2.4176,0.0,1.699,0.9236,-0.192,-0.797,-1.23,-2.0804,-2.3488,-2.3832,-2.5323,-2.7226,-2.8964,-2.9578,-3.0193,-3.0583,-3.0247,-2.9741,-2.923,-2.8857,-2.8946,-2.9404,-3.0482,-3.113,-3.1747,-3.257,-3.2114,-3.1674,-3.1924,-3.1533,-3.1354,-3.1795,-3.2008,-3.2148,-3.2223,-3.2957,-3.3477,-3.356,-3.4018,-3.4055,-3.3419,-3.335,-3.3252,-3.3125,-3.3371,-3.3863,-3.467,-3.4634,-3.4749,-3.5147,-3.4353,-3.4019,-3.4154,-3.3348,-3.2445,-3.1371,-3.0226,-2.9089,-2.8041,-2.7629,-2.7437,-2.7321,-2.7248,-2.6736,-2.6014,-2.5618,-2.4851,-2.3956,-2.3603,-2.3484,-2.3531,-1.5683,-1.577,-1.5912,-1.6268,-1.6266,0.0,0.0,0.0,0.0,0.0,0.0,0.0,0.0,0.0,0.0,0.0,0.0,-1.3637,-1.2554,-1.1923,-1.1046,-0.9746,-0.7725,-0.4802,-0.0988,-0.017,0.3457,1.0137,1.205,1.4736,1.8233,2.201,2.3815,2.3944,2.4521,2.4627,2.436,2.4884,2.4875,2.4614,2.5554,2.5826,2.5773,2.6416,2.6622,0.0,2.6178,2.1578,1.3762,0.1391,-0.4809,-0.9146,-1.9525,-2.3253,-2.3997,-2.5149,-2.6617,-2.8018,-2.8687,-2.9296,-2.9667,-2.9359,-2.9084,-2.8742,-2.812,-2.865,-2.9414,-2.9949,-3.0974,-3.1892,-3.2413,-3.205,-3.1872,-3.2391,-3.2038,-3.1955,-3.2675,-3.2737,-3.2745,-3.284,-3.3316,-3.379,-3.4124,-3.4345,-3.4141,-3.3419,-3.3604,-3.3571,-3.3108,-3.309,-3.3441,-3.4231,-3.3972,-3.399,-3.4396,-3.3592,-3.3249,-3.3375,-3.2331,-3.1286,-3.0165,-2.9562,-2.8652,-2.7488,-2.7488,-2.7386,-2.7233,-2.6922,-2.6365,-2.5563,-2.5007,-2.4292,-2.3628,-2.3258,-2.3078,-2.3138,-1.6437,-1.6648,-1.6979,0.0,0.0,0.0,0.0,0.0,0.0,0.0,0.0,0.0,0.0,0.0,0.0,0.0,0.0,0.0,-1.2898,-1.2224,-1.1031,-0.9204,-0.403,-0.0512,0.0903,1.0148,1.5391,1.6203,2.0324,2.2575,2.3049,2.4725,2.5553,2.572,2.7259,2.7881,2.7777,2.7343,2.6969,2.6722,2.7394,2.7554,2.7441,2.7843,2.7954,2.7759,2.6597,2.5586,2.246,0.6917,0.0759,-0.2927,-1.7354,-2.3192,-2.4852,-2.5499,-2.6542,-2.7588,-2.791,-2.7998,-2.7813,-2.7139,-2.7496,-2.7594,-2.6022,-2.7566,-2.9337,-2.9307,-3.0595,-3.1777,-3.1855,-3.1791,-3.173,-3.1826,-3.178,-3.2062,-3.2923,-3.2922,-3.314,-3.3953,-3.3955,-3.4448,-3.5889,-3.5262,-3.4348,-3.339,-3.4009,-3.384,-3.2492,-3.2406,-3.2722,-3.3406,-3.3206,-3.3214,-3.3635,-3.3288,-3.2931,-3.2564,-3.1841,-3.101,-3.0101,-2.939,-2.8463,-2.7575,-2.7575,-2.7488,-2.7299,-2.6736,-2.6297,-2.5892,-2.4738,-2.4176,-2.4015,-2.3305,-2.3078,-2.3138,0.0,0.0,0.0,0.0,0.0,0.0,0.0,0.0,0.0,0.0,0.0,0.0,0.0,0.0,0.0,0.0,0.0,0.0,-1.3618,-1.2889,-0.9935,-0.424,-0.2194,0.264,1.0835,1.0748,1.4224,2.1614,1.9721,2.0849,2.4769,2.5227,2.5827,2.6583,2.6958,2.736,2.7816,2.7998,2.7864,2.7567,2.8338,2.8679,2.8758,2.916,2.9378,2.8525,2.1475,1.8638,1.6666,0.6402,-0.5271,-1.6216,-2.0472,-2.2653,-2.3687,-2.4099,-2.5211,-2.6314,-2.66,-2.7256,-2.7833,-2.774,-2.7948,-2.7869,-2.6758,-2.7496,-2.8612,-2.924,-3.0188,-3.1291,-3.2596,-3.2261,-3.2171,-3.3434,-3.3049,-3.3128,-3.4623,-3.4802,-3.4807,-3.4887,-3.491,-3.4935,-3.4971,-3.5346,-3.5044,-3.3771,-3.3619,-3.334,-3.2734,-3.2489,-3.2493,-3.2669,-3.2351,-3.2403,-3.2793,-3.2295,-3.1705,-3.1073,-3.0166,-2.9619,-2.9343,-2.8314,-2.7625,-2.7284,-2.7196,-2.6817,-2.6272,-2.6111,-2.5536,-2.4738,-2.4292,-2.3897,-2.3569,-2.3198,-2.3078,-2.3138,0.0,0.0,0.0,0.0,0.0,0.0,0.0,0.0,0.0,0.0,0.0,0.0,0.0,0.0,0.0,0.0,0.0,0.0,0.0,-1.3697,-1.1422,-0.7088,-0.3796,0.1953,1.0606,1.1519,1.5843,2.3919,2.1819,2.2356,2.5321,2.5757,2.6291,2.6905,2.7222,2.7569,2.7891,2.8034,2.812,0.0,0.0,2.9023,2.8912,2.5586,2.4302,2.3091,1.3819,0.7657,0.3171,-0.166,-1.1379,-2.1523,-2.1955,-2.2547,-2.3127,-2.3498,-2.4247,-2.5075,-2.5479,-2.607,-2.66,-2.6704,-2.7427,-2.7887,-2.7008,-2.8086,-2.9313,-2.9421,-3.0072,-3.0944,-3.1929,-3.1615,-3.1652,-3.2986,-3.3053,-3.3416,-3.4738,-3.5284,-3.5489,-3.5355,-3.5388,-3.5435,-3.542,-3.5437,-3.5249,-3.476,-3.4174,-3.3514,-3.2844,-3.2557,-3.2406,-3.2406,-3.2055,-3.1863,-3.1828,-3.1375,-3.0924,-3.0468,-2.975,-2.9303,-2.9074,-2.8174,-2.766,-2.7372,-2.6959,-2.6539,-2.6042,-2.5425,-2.4808,-2.4176,-2.3839,-2.3497,-2.3271,-2.3138,-2.3078,-2.3078,0.0,0.0,0.0,0.0,0.0,0.0,0.0,0.0,0.0,-1.7306,-1.8409,-1.9121,-1.9031,-1.8447,0.0,0.0,0.0,0.0,0.0,0.0,-1.3735,-1.2138,-0.658,-0.0723,0.5348,1.1159,1.6607,2.1716,2.3023,2.3744,2.3913,2.5627,2.6576,2.6841,2.7576,2.7911,2.7909,2.7755,2.7456,2.705,2.6981,2.6547,2.5177,0.0,1.5207,1.3647,0.438,-0.5084,-1.3245,-1.3572,-1.7541,-2.2335,-2.2472,-2.2716,-2.3047,-2.3324,-2.3632,-2.3987,-2.4567,-2.4847,-2.4987,-2.5072,-2.6562,-2.7789,-2.6976,-2.8877,-3.0545,-2.968,-3.0144,-3.0715,-3.072,-3.0607,-3.0808,-3.1661,-3.248,-3.328,-3.4077,-3.5014,-3.5591,-3.5515,-3.556,-3.5791,-3.6293,-3.5486,-3.5154,-3.5684,-3.4916,-3.3967,-3.2925,-3.2606,-3.2457,-3.2406,-3.2055,-3.1637,-3.1055,-3.0716,-3.0551,-3.0468,-3.0027,-2.9572,-2.9074,-2.8543,-2.8027,-2.7524,-2.6893,-2.6457,-2.6068,-2.4894,-2.4292,-2.3956,-2.3365,-2.3138,-2.3138,-2.3138,-2.3065,-2.2871,0.0,0.0,0.0,0.0,0.0,0.0,-1.7028,-1.7333,-1.7661,-1.7719,-1.8387,-1.8934,-1.9136,-1.905,0.0,0.0,0.0,0.0,0.0,0.0,0.0,-0.7388,-0.5975,-0.2439,0.3756,0.5457,0.6904,0.8175,1.387,1.6796,1.7126,2.2523,2.5503,2.6331,2.6765,2.7147,2.7518,2.7649,2.4141,1.8511,1.834,1.4101,0.7761,0.6348,0.0,0.0,-0.642,-1.5356,-2.3036,-2.3518,-2.3708,-2.3583,-2.2818,-2.2948,-2.3334,-2.3082,-2.3264,-2.3681,-2.4247,-2.462,-2.4861,-2.4987,-2.6515,-2.7763,-2.6912,-2.8825,-3.0546,-2.9682,-3.0169,-3.0778,-3.0771,-3.072,-3.0936,-3.1744,-3.2512,-3.3272,-3.4089,-3.5007,-3.5591,-3.5591,-3.5596,-3.5586,-3.5522,-3.5196,-3.4945,-3.484,-3.4315,-3.378,-3.3262,-3.2908,-3.2621,-3.2406,-3.2055,-3.1748,-3.1445,-3.1095,-3.0757,-3.0468,-3.0027,-2.9572,-2.9074,-2.8415,-2.7894,-2.7437,-2.7167,-2.651,-2.5508,-2.5175,-2.4509,-2.3628,-2.3258,-2.3198,-2.333,-2.3138,-2.275,-2.2237,0.0,0.0,0.0,0.0,0.0,0.0,-1.6753,-1.7352,-1.7849,-1.7806,-1.884,-1.9591,-1.9613,-1.9462,-1.9182,0.0,0.0,0.0,0.0,0.0,0.0,-1.1977,-1.1661,-0.8775,-0.2721,-0.2001,-0.0244,0.2713,0.0,0.8204,0.8587,1.1418,1.3163,1.3951,1.38,1.3857,1.4005,1.3795,1.1856,0.8839,0.8039,0.5489,0.163,0.0,0.0,0.0,-1.7823,-2.2328,-2.6454,-2.6519,-2.6266,-2.5711,-2.4454,-2.3789,-2.3437,-2.3389,-2.3414,-2.3592,-2.4192,-2.454,-2.4779,-2.4921,-2.6493,-2.79,-2.7464,-2.9152,-3.0683,-3.0254,-3.0518,-3.0794,-3.0799,-3.0755,-3.0838,-3.1215,-3.1887,-3.2676,-3.3514,-3.438,-3.5083,-3.5538,-3.5601,-3.5558,-3.547,-3.5184,-3.4944,-3.4832,-3.4371,-3.3876,-3.335,-3.2848,-3.2523,-3.2388,-3.1929,-3.1617,-3.1504,-3.0998,-3.0651,-3.0468,-2.9793,-2.9303,-2.9074,-2.8238,-2.771,-2.7488,-2.7049,-2.651,-2.5906,-2.5119,-2.4509,-2.4015,-2.3556,-2.339,-2.3403,-2.3271,-2.3005,-2.2494,0.0,0.0,0.0,0.0,0.0,0.0,-1.6452,-1.7054,-1.7602,-1.7781,-1.9109,-2.0041,-2.006,-1.9979,-1.9758,0.0,0.0,0.0,0.0,0.0,0.0,0.0,0.0,-1.5389,-1.0653,0.0,0.0,-0.3902,-0.1843,0.0,0.0,0.0,0.0,0.0,0.1602,0.1365,0.1221,0.0804,0.0104,0.0,0.0,-0.3528,-0.5512,0.0,0.0,0.0,0.0,-2.697,-2.7643,-2.7449,-2.7385,-2.7291,-2.6251,-2.5102,-2.4164,-2.4206,-2.4001,-2.3884,-2.445,-2.4623,-2.4704,-2.4818,-2.6416,-2.7959,-2.8004,-2.945,-3.0774,-3.0796,-3.0799,-3.0801,-3.0821,-3.0785,-3.0724,-3.07,-3.1488,-3.2413,-3.3285,-3.4089,-3.4928,-3.58,-3.5739,-3.5612,-3.5612,-3.5307,-3.5066,-3.4996,-3.4508,-3.3954,-3.3332,-3.2784,-3.2439,-3.2388,-3.1856,-3.1542,-3.1504,-3.0918,-3.0568,-3.0468,-2.975,-2.9303,-2.9074,-2.8271,-2.781,-2.7575,-2.6982,-2.6669,-2.6457,-2.5342,-2.4794,-2.4523,-2.4015,-2.3688,-2.3522,-2.3463,-2.3258,-2.2811,0.0,0.0,0.0,0.0,0.0,0.0,-1.5646,-1.621,-1.6965,-1.7703,-1.862,-1.9484,-2.0188,-2.0842,-2.0821,0.0,0.0,0.0,0.0,0.0,0.0,0.0,0.0,0.0,0.0,0.0,0.0,-1.909,-1.2321,0.0,0.0,0.0,0.0,0.0,0.0,0.0088,-0.0194,-0.0006,0.0,0.0,0.0,0.0,0.0,0.0,0.0,0.0,0.0,-2.8909,-2.8634,-2.9023,-2.8179,-2.7041,-2.7445,-2.7121,-2.6446,-2.5743,-2.5213,-2.4904,-2.5155,-2.493,-2.4607,-2.4623,-2.6243,-2.7845,-2.7959,-2.9413,-3.0732,-3.0795,-3.0799,-3.0821,-3.0886,-3.0886,-3.0841,-3.0723,-3.2093,-3.3458,-3.427,-3.5061,-3.5882,-3.6774,-3.6163,-3.5684,-3.5684,-3.5496,-3.5254,-3.5009,-3.4338,-3.3743,-3.3321,-3.297,-3.2654,-3.2406,-3.2073,-3.1765,-3.1504,-3.1134,-3.0814,-3.0526,-3.0426,-2.9924,-2.9074,-2.8982,-2.8463,-2.7625,-2.7524,-2.7203,-2.6669,-2.6404,-2.5756,-2.4948,-2.458,-2.4203,-2.3832,-2.3628,-2.3173,-2.2604,0.0,0.0,0.0,0.0,0.0,0.0,-1.5384,-1.6464,-1.7442,-1.7771,-1.9016,-2.0011,-2.0327,-2.1058,-2.1111,-2.0136,-2.0205,0.0,0.0,0.0,0.0,0.0,0.0,0.0,0.0,0.0,-2.2306,-2.3327,-1.9692,0.0,0.0,0.0,0.0,0.0,0.0,-1.4423,-1.457,-1.4822,0.0,0.0,0.0,0.0,0.0,0.0,0.0,0.0,0.0,0.0,-2.9079,-2.9135,-2.8717,-2.8142,-2.8021,-2.8064,-2.7894,-2.6589,-2.5922,-2.5584,-2.5454,-2.5338,-2.5286,-2.5415,-2.6586,-2.7907,-2.8512,-2.9679,-3.0676,-3.0782,-3.08,-3.0816,-3.0889,-3.0891,-3.0871,-3.0827,-3.1337,-3.2218,-3.3589,-3.401,-3.4717,-3.6112,-3.5935,-3.5698,-3.5698,-3.5519,-3.5258,-3.4906,-3.4593,-3.4213,-3.3689,-3.3105,-3.2669,-3.2388,-3.2055,-3.1748,-3.1504,-3.1173,-3.0855,-3.0526,-3.0199,-2.975,-2.9074,-2.8795,-2.8271,-2.7625,-2.7625,-2.7458,-2.7203,-2.639,-2.5851,-2.5425,-2.4593,-2.4099,-2.3891,-2.3819,-2.3569,-2.3113,0.0,0.0,0.0,0.0,0.0,-1.5375,-1.5625,-1.6663,-1.762,-1.8089,-1.9223,-2.0069,-2.0341,-2.0882,-2.0985,-2.0323,-2.0324,0.0,0.0,0.0,0.0,0.0,0.0,0.0,0.0,0.0,-2.4043,-2.5261,-2.4229,-2.4116,0.0,0.0,-2.4077,-2.3784,0.0,0.0,0.0,0.0,0.0,0.0,0.0,0.0,0.0,0.0,0.0,0.0,0.0,0.0,0.0,0.0,0.0,-2.9079,-2.8667,-2.8764,-2.8754,-2.7406,-2.6752,-2.6421,-2.6167,-2.606,-2.6094,-2.6228,-2.7172,-2.8234,-2.8942,-2.9849,-3.0606,-3.0735,-3.0767,-3.0779,-3.082,-3.0839,-3.0839,-3.0839,-3.0994,-3.1729,-3.3469,-3.3653,-3.4267,-3.6012,-3.5723,-3.5453,-3.5682,-3.5516,-3.5258,-3.4889,-3.4793,-3.4505,-3.3921,-3.339,-3.2908,-3.2523,-3.2126,-3.1821,-3.1617,-3.1213,-3.0895,-3.0634,-3.0199,-2.975,-2.9303,-2.8779,-2.8255,-2.7795,-2.766,-2.7625,-2.7509,-2.6707,-2.6108,-2.5728,-2.4935,-2.4332,-2.3949,-2.3949,-2.3878,-2.3688,0.0,0.0,0.0,0.0,0.0,-1.5575,-1.6367,-1.6561,-1.719,-1.8776,-1.9001,-1.9342,-2.0205,-2.0372,-2.041,-2.0404,-2.1068,0.0,0.0,0.0,0.0,0.0,0.0,0.0,0.0,0.0,-2.5378,-2.6378,-2.5572,-2.5699,-2.6655,-2.572,-2.5389,-2.5567,0.0,0.0,0.0,0.0,0.0,0.0,0.0,0.0,-3.0797,0.0,0.0,0.0,0.0,0.0,0.0,0.0,0.0,0.0,0.0,-2.936,-2.8975,-2.8358,-2.7904,-2.7565,-2.75,-2.7193,-2.6898,-2.6898,-2.7894,-2.8919,-2.9066,-2.9833,-3.0547,-3.0675,-3.07,-3.07,-3.0708,-3.0704,-3.07,-3.0691,-3.1487,-3.2697,-3.4437,-3.4628,-3.523,-3.6989,-3.5665,-3.4905,-3.5624,-3.5516,-3.5302,-3.5009,-3.4813,-3.4461,-3.3921,-3.3815,-3.3476,-3.2827,-3.2214,-3.1894,-3.1894,-3.1312,-3.1015,-3.0975,-3.0634,-3.0258,-2.9793,-2.9303,-2.8795,-2.8255,-2.7795,-2.7625,-2.7625,-2.7575,-2.6864,-2.5783,-2.5783,-2.509,-2.4112,-2.4112,-2.4112,-2.4112,0.0,0.0,0.0,0.0,0.0,0.0,-1.5574,-1.6604,-1.7523,-1.8042,-1.9146,-1.9988,-2.026,-2.0313,-2.0565,-2.1179,-2.1482,0.0,0.0,0.0,0.0,0.0,0.0,0.0,0.0,-2.4889,-2.5621,-2.6676,-2.5732,-2.61,-2.7624,-2.6178,-2.5865,-2.6458,-2.5878,-2.5623,0.0,0.0,0.0,0.0,0.0,-3.0534,-3.0788,0.0,0.0,0.0,0.0,0.0,0.0,0.0,0.0,0.0,0.0,0.0,0.0,-2.8874,-2.8675,-2.8434,-2.7867,-2.7758,-2.7793,-2.7849,-2.832,-2.8979,-2.9736,-3.0155,-3.0414,-3.0587,-3.0675,-3.0697,-3.07,-3.07,-3.0906,-3.1486,-3.1846,-3.2639,-3.4393,-3.461,-3.5036,-3.6188,-3.5779,-3.5489,-3.5682,-3.5639,-3.5509,-3.5302,-3.5045,-3.4775,-3.4442,-3.408,-3.3532,-3.2827,-3.2601,-3.2317,-3.1894,-3.1542,-3.1252,-3.0975,-3.0634,-3.007,-2.9303,-2.9166,-2.8654,-2.7795,-2.766,-2.7625,-2.7575,-2.7152,-2.6496,-2.5728,-2.5425,-2.4778,-2.4112,-2.4112,-2.4112,-2.4112,0.0,0.0,0.0,0.0,0.0,0.0,-1.5645,-1.658,-1.7477,-1.8076,-1.9108,-1.9892,-2.0223,-2.0262,-2.0484,-2.1069,-2.1753,0.0,0.0,0.0,0.0,0.0,0.0,0.0,-2.4389,-2.4999,-2.563,-2.6319,-2.5737,-2.6041,-2.713,-2.6104,-2.5937,-2.6415,-2.5893,-2.5651,0.0,0.0,0.0,0.0,-3.0072,-3.0377,-2.9851,0.0,0.0,0.0,0.0,0.0,0.0,0.0,0.0,0.0,0.0,0.0,0.0,0.0,-2.832,-2.8276,-2.8272,-2.8426,-2.8631,-2.8669,-2.8945,-2.9406,-3.0065,-3.0304,-3.0413,-3.0543,-3.063,-3.0651,-3.0665,-3.0665,-3.0834,-3.1378,-3.1747,-3.2355,-3.3448,-3.4195,-3.4803,-3.538,-3.5673,-3.568,-3.5281,-3.5512,-3.5626,-3.5418,-3.5143,-3.4905,-3.4714,-3.4298,-3.3778,-3.3214,-3.2921,-3.2553,-3.2108,-3.1802,-3.1504,-3.1173,-3.0855,-3.0326,-2.9617,-2.9257,-2.8748,-2.814,-2.776,-2.7625,0.0,-2.7203,-2.6549,-2.5797,-2.5425,-2.4835,-2.4112,-2.4112,-2.4112,-2.4112,0.0,0.0,0.0,0.0,0.0,0.0,0.0,-1.6457,-1.7061,-1.8605,-1.8858,-1.923,-2.0107,-2.0203,-2.0242,-2.036,-2.1924,0.0,0.0,0.0,0.0,0.0,0.0,0.0,-2.2995,-2.4655,-2.5511,-2.5512,-2.564,-2.5698,-2.5705,-2.57,-2.5722,-2.5783,-2.5657,-2.5616,0.0,0.0,0.0,0.0,-2.9969,-2.9669,0.0,0.0,0.0,0.0,0.0,0.0,0.0,0.0,0.0,0.0,0.0,0.0,0.0,0.0,0.0,0.0,0.0,-2.9034,-2.924,-2.924,-2.9642,-3.0079,-3.0079,-3.0279,0.0,-3.0481,-3.052,-3.0588,-3.0588,-3.0598,-3.0617,-3.0675,-3.1366,-3.1948,-3.206,-3.3524,-3.463,-3.4686,-3.5405,-3.5555,-3.4672,-3.5262,-3.5621,-3.5445,-3.5117,-3.4846,-3.464,-3.433,-3.4024,-3.3723,-3.3094,-3.2648,-3.2422,-3.2091,-3.1748,-3.1504,-3.1173,-3.0814,-3.0468,-2.9572,-2.912,-2.8982,-2.8042,-2.7625,-2.7625,-2.7625,-2.6916,-2.5837,-2.5837,-2.5147,-2.4171,-2.4112,-2.4112,-2.4112,0.0,0.0,0.0,0.0,0.0,0.0,0.0,0.0,0.0,0.0,-1.8524,-1.9226,-2.0095,-2.019,-2.0466,0.0,0.0,0.0,0.0,0.0,0.0,0.0,0.0,0.0,-2.491,-2.5407,-2.5655,-2.5645,-2.5675,-2.6035,-2.666,-2.5995,-2.6028,-2.6588,-2.5954,-2.5676,0.0,0.0,0.0,0.0,-2.9366,-2.9542,0.0,0.0,0.0,0.0,-2.7262,-2.7251,0.0,0.0,0.0,0.0,0.0,0.0,0.0,0.0,-2.7283,-2.7311,-2.7493,0.0,-2.8539,-2.8539,-2.9176,-2.9808,0.0,-2.9931,-3.0018,-3.0228,-3.0278,-3.0333,-3.0509,-3.051,-3.0743,-3.14,-3.169,-3.2067,-3.2753,-3.3806,-3.4542,-3.4616,-3.5328,-3.574,-3.5523,-3.5611,-3.5676,-3.5631,-3.477,-3.4167,-3.4025,-3.3128,-3.2698,-3.2875,-3.2482,-3.2409,-3.2684,-3.2162,-3.1858,-3.1785,-3.1274,-3.0757,-3.0309,-2.9837,-2.9241,-2.848,-2.8255,-2.7929,-2.7625,-2.7625,-2.7152,-2.6457,-2.596,-2.537,-2.4734,-2.4287,-2.4112,-2.4112,0.0,0.0,0.0,0.0,0.0,0.0,0.0,0.0,0.0,0.0,-1.8029,-1.8788,-2.0021,-2.0155,-2.0526,0.0,0.0,0.0,0.0,0.0,0.0,0.0,0.0,-2.402,-2.497,-2.5437,-2.5642,-2.5645,-2.5673,-2.5936,-2.6386,-2.5917,-2.5931,-2.6329,-2.5883,-2.5915,0.0,0.0,0.0,-2.7686,-2.8544,0.0,0.0,0.0,0.0,0.0,-2.6386,-2.6373,0.0,-2.6315,-2.6547,-2.6812,0.0,0.0,0.0,0.0,-2.6233,-2.6208,-2.6083,-2.7151,-2.8297,-2.8222,-2.8952,-2.97,-2.982,-2.9915,-3.0052,-3.0241,-3.0309,-3.0364,-3.0469,-3.049,-3.08,-3.166,-3.1796,-3.2116,-3.3024,-3.3262,-3.3653,-3.4491,-3.4979,-3.5388,-3.5762,-3.5802,-3.56,-3.5185,-3.4494,-3.3859,-3.3379,-3.2613,-3.2255,-3.2367,-3.1997,-3.2107,-3.2777,-3.2352,-3.2055,-3.1894,-3.1562,-3.114,-3.0617,-3.0225,-2.9645,-2.895,-2.848,-2.8158,-2.7894,-2.771,-2.7255,-2.6669,-2.6336,-2.5701,-2.4948,-2.462,-2.4345,-2.4112,0.0,0.0,0.0,0.0,0.0,0.0,0.0,0.0,0.0,0.0,0.0,0.0,0.0,0.0,0.0,0.0,0.0,0.0,0.0,0.0,0.0,0.0,-2.3883,-2.4282,-2.4472,-2.5215,-2.5593,-2.5593,-2.5676,-2.5693,-2.5696,-2.5703,-2.5703,-2.5702,-2.5697,-2.6078,-2.673,-2.6866,-2.6922,-2.6981,-2.7719,0.0,0.0,0.0,0.0,0.0,0.0,0.0,0.0,-2.5628,-2.5595,-2.5549,-2.5418,0.0,0.0,0.0,0.0,0.0,-2.4969,-2.6507,-2.8091,-2.7959,-2.8745,-2.9589,-2.9751,-2.9931,-3.0095,-3.0228,0.0,-3.0371,-3.0394,-3.0406,-3.0648,-3.1383,-3.1551,-3.1864,-3.2687,-3.2331,-3.258,-3.4177,-3.4495,-3.4861,-3.5544,-3.566,-3.5311,-3.4406,-3.4031,-3.3495,-3.2673,-3.2216,-3.1939,-3.192,-3.1481,-3.1662,-3.2576,-3.2358,-3.2179,-3.1984,-3.1858,-3.1562,-3.1055,-3.0576,-3.014,-2.975,-2.8904,-2.8432,-2.824,-2.7894,-2.7342,-2.6841,-2.6736,-2.6136,-2.5216,-2.5174,-2.4721,-2.4229,0.0,0.0,0.0,0.0,0.0,0.0,0.0,0.0,0.0,0.0,0.0,0.0,0.0,0.0,0.0,0.0,0.0,0.0,0.0,0.0,0.0,-2.5197,-2.4554,-2.4544,-2.5293,-2.5504,-2.5606,-2.5606,-2.5675,-2.5702,-2.5702,-2.5703,-2.5703,-2.5702,-2.5702,-2.5761,-2.5937,-2.668,-2.6972,-2.7008,-2.7126,0.0,0.0,0.0,0.0,0.0,0.0,0.0,0.0,-2.559,-2.5512,-2.543,-2.5348,0.0,0.0,0.0,0.0,0.0,-2.5543,-2.6458,-2.7266,-2.7177,-2.8217,-2.9267,-2.9289,-2.939,-2.9492,-2.9606,-2.9696,-2.9784,-2.9965,-2.9992,-3.0041,-3.0175,-3.0381,-3.0648,-3.0955,-3.1486,-3.2192,-3.3219,-3.4023,-3.4581,-3.4774,-3.4739,-3.4409,-3.3633,-3.2746,-3.2141,-3.1883,-3.0918,-3.0595,-3.1146,-3.0711,-3.0851,-3.1602,-3.1685,-3.1901,-3.2319,-3.1819,-3.1504,-3.1389,-3.0757,-3.0199,-2.9793,-2.9661,-2.9088,-2.8288,-2.8207,-2.7879,-2.7408,-2.6893,-2.6563,-2.6351,-2.5851,-2.5314,-2.4778,0.0,0.0,0.0,0.0,0.0,0.0,0.0,0.0,0.0,0.0,0.0,0.0,0.0,0.0,0.0,0.0,0.0,0.0,0.0,0.0,-2.5414,-2.5446,-2.5092,-2.5123,-2.559,-2.5637,-2.5412,-2.4944,-2.4976,-2.4998,-2.5017,-2.5486,-2.5701,-2.57,-2.57,-2.57,-2.5721,-2.6132,-2.6308,-2.6308,0.0,0.0,0.0,0.0,0.0,0.0,0.0,0.0,0.0,0.0,-2.5557,-2.5485,-2.539,0.0,0.0,0.0,0.0,0.0,-2.5227,-2.6101,-2.6953,-2.686,-2.8022,-2.9222,-2.9293,-2.9334,-2.9395,-2.957,-2.9661,-2.9732,-2.9817,-2.9867,-2.9899,-2.9912,-3.0462,-3.0797,-3.0475,-3.0788,-3.1379,-3.229,-3.2818,-3.331,-3.3857,-3.39,-3.3574,-3.2756,-3.2276,-3.1746,-3.1142,-3.0537,-3.0286,-3.0443,-3.0189,-3.0286,-3.0807,-3.0755,-3.1153,-3.1986,-3.1811,-3.1654,-3.1466,-3.0998,-3.0551,-3.0156,-2.9984,-2.9601,-2.9088,-2.8591,-2.8271,-2.8042,-2.7509,-2.71,-2.6707,-2.6054,-2.5481,-2.4948,0.0,0.0,0.0,0.0,0.0,0.0,0.0,0.0,0.0,0.0,0.0,0.0,0.0,0.0,0.0,0.0,0.0,0.0,0.0,-2.5178,-2.5329,-2.5309,-2.5439,-2.5556,-2.5645,-2.5269,-2.4749,-2.4067,-2.3899,-2.4019,-2.4428,-2.5288,-2.5698,-2.5697,-2.5698,-2.5698,-2.5699,-2.5701,-2.5702,-2.5702,0.0,0.0,0.0,0.0,0.0,0.0,0.0,0.0,0.0,0.0,0.0,0.0,0.0,0.0,0.0,-2.5157,-2.5057,-2.5015,-2.4941,-2.5886,-2.6841,-2.6862,-2.8021,-2.916,-2.9275,-2.9297,-2.9358,-2.9514,-2.9626,-2.9662,-2.9681,-2.9885,-3.003,-2.9869,-3.0665,-3.1054,-3.0375,-3.0352,-3.0728,-3.169,-3.1851,-3.2181,-3.2906,-3.3033,-3.2723,-3.1852,-3.1804,-3.1441,-3.0665,-3.0485,-3.0274,-3.0028,-2.988,-2.9926,-3.0132,-3.0073,-3.0485,-3.1355,-3.1601,-3.1526,-3.121,-3.105,-3.0855,-3.051,-3.03,-3.0054,-2.9837,-2.915,-2.8748,-2.8511,-2.8155,-2.7645,-2.7071,-2.6375,-2.5837,-2.5481,0.0,0.0,0.0,0.0,0.0,0.0,0.0,0.0,0.0,0.0,0.0,0.0,0.0,0.0,0.0,0.0,0.0,0.0,0.0,-2.4904,-2.5395,-2.5379,-2.5466,-2.549,-2.5517,-2.3999,-2.3166,-2.3108,-2.2424,-2.2883,-2.4419,-2.5283,-2.5691,-2.5701,-2.5707,-2.5691,-2.5694,-2.5694,-2.5697,-2.57,-2.57,0.0,0.0,0.0,0.0,0.0,0.0,0.0,0.0,0.0,0.0,0.0,0.0,0.0,-2.5094,-2.4955,-2.4837,-2.481,-2.5245,-2.6019,-2.6825,-2.725,-2.8135,-2.891,-2.8934,-2.9026,-2.9134,-2.9156,-2.92,-2.9265,-2.9326,-3.0002,-3.0368,-2.9812,-3.0413,-3.0781,-3.035,-3.0297,-3.0683,-3.168,-3.1797,-3.1863,-3.1992,-3.2057,-3.1761,-3.094,-3.0897,-3.0827,-3.0706,-3.0517,-3.0304,-3.0089,-2.9965,-2.9808,-2.9643,-3.0068,-3.038,-3.0588,-3.0894,-3.082,-3.0421,-3.0813,-3.0895,-3.0692,-3.0651,-3.041,-3.0081,-2.9995,-2.9451,-2.8685,-2.8638,-2.8334,-2.784,-2.724,-2.6967,-2.6864,0.0,0.0,0.0,0.0,0.0,0.0,0.0,0.0,0.0,0.0,0.0,0.0,0.0,0.0,0.0,0.0,0.0,0.0,0.0,-2.4313,-2.4789,-2.5364,-2.5427,-2.5498,-2.5615,-2.4475,-2.3335,-2.2246,-2.1969,-2.2713,-2.4425,-2.5288,-2.5698,-2.5693,-2.5701,-2.5703,-2.5705,-2.5691,-2.5694,-2.5697,-2.5699,-2.57,0.0,0.0,0.0,0.0,0.0,0.0,0.0,0.0,-2.5066,-2.5468,-2.5426,-2.5274,-2.5101,-2.5044,-2.4865,-2.4701,-2.4672,-2.5608,-2.6609,-2.6561,-2.7634,-2.8737,-2.881,-2.8881,-2.8929,-2.8975,-2.9425,-2.9867,-3.0021,-3.0324,-3.0315,-2.9622,-3.0224,-3.0603,-3.006,-3.0095,-3.0356,-3.0874,-3.0994,-3.106,-3.1091,-3.1143,-3.1075,-3.0819,-3.0839,-3.0831,-3.0768,-3.0647,-3.049,-3.0282,-3.0131,-2.995,-2.9789,-2.9772,-2.9717,-2.9704,-3.0773,-3.114,-3.0889,-3.1148,-3.1201,-3.1123,-3.0958,-3.0773,-3.0593,-3.0309,-3.0038,-2.9629,-2.9058,-2.8542,-2.8103,-2.7775,-2.7408,-2.7071,0.0,0.0,0.0,0.0,0.0,0.0,0.0,0.0,0.0,0.0,0.0,0.0,0.0,0.0,0.0,0.0,0.0,0.0,-2.3059,-2.3688,-2.4283,-2.4921,-2.524,-2.5467,-2.5605,-2.4799,-2.3667,-2.2216,-2.2216,-2.2954,-2.4414,-2.5297,-2.5707,-2.5704,-2.5693,-2.5696,-2.5698,-2.5707,-2.5709,-2.5691,-2.5696,-2.5697,0.0,0.0,0.0,0.0,0.0,0.0,0.0,0.0,-2.4635,-2.5103,-2.5381,-2.5303,-2.5094,-2.5057,-2.5055,-2.5003,-2.4672,-2.5715,-2.6834,-2.6537,-2.7475,-2.8464,-2.836,-2.8379,-2.85,-2.8827,-2.9415,-3.006,-3.0715,-3.0853,-3.0639,-2.9888,-3.0532,-3.0787,-2.9918,-2.9946,-3.0155,-3.0375,-3.049,-3.054,-3.0607,-3.0646,-3.0706,-3.0765,-3.0831,-3.0859,-3.0801,-3.0732,-3.0619,-3.0404,-3.0196,-3.0037,-2.9888,-2.9645,-2.9412,-2.9289,-3.0537,-3.1047,-3.0917,-3.122,-3.1382,-3.1452,-3.1257,-3.1134,-3.0992,-3.0716,-3.0518,-3.0251,-2.9348,-2.8779,-2.8462,-2.8201,-2.7875,-2.7494,0.0,0.0,0.0,0.0,0.0,0.0,0.0,0.0,-2.0281,-2.0205,-2.0843,0.0,0.0,0.0,0.0,0.0,0.0,0.0,-2.1509,-2.3044,-2.3976,-2.3995,-2.4902,-2.5387,-2.5395,-2.4696,-2.3926,-2.3107,-2.3107,-2.3553,-2.4427,-2.5294,-2.5704,-2.5694,-2.5684,-2.569,-2.5671,-2.5676,-2.5679,-2.5701,-2.5685,-2.5687,-2.5707,0.0,0.0,0.0,0.0,0.0,0.0,0.0,-2.4219,-2.4258,-2.5136,-2.5265,-2.5091,-2.4955,-2.5374,-2.5826,-2.5485,-2.6478,-2.7565,-2.7411,-2.7846,-2.8138,-2.7457,-2.7447,-2.7848,-2.8699,-2.898,-2.9609,-3.126,-3.1644,-3.1455,-3.0705,-3.139,-3.1461,-2.9993,-2.9921,-3.0109,-3.0364,-3.0398,-3.0449,-3.0588,-3.0607,-3.0626,-3.0687,-3.0765,-3.0797,-3.0804,-3.0732,-3.0619,-3.0414,-3.0215,-3.0037,-2.9905,-2.9755,-2.9589,-2.9412,-3.0002,-3.0287,-3.0315,-3.0932,-3.1358,-3.162,-3.1603,-3.1449,-3.119,-3.119,-3.0918,-3.0435,-2.9483,-2.912,-2.9044,-2.8573,-2.8396,-2.8411,0.0,0.0,0.0,0.0,0.0,0.0,0.0,0.0,-2.0211,-2.0197,-2.0425,0.0,0.0,0.0,0.0,0.0,0.0,0.0,-2.147,-2.197,-2.2802,-2.4099,-2.4309,-2.4775,-2.5531,-2.5323,-2.4822,-2.4011,-2.3407,-2.3855,-2.5313,-2.557,-2.5375,-2.4787,-2.4797,-2.4453,-2.3868,-2.3873,-2.4232,-2.4783,-2.4786,-2.5158,-2.5707,0.0,0.0,0.0,0.0,0.0,0.0,0.0,0.0,0.0,-2.5408,-2.5749,-2.5951,-2.5244,-2.5456,-2.5726,-2.4909,-2.5778,-2.6819,-2.6501,-2.7475,-2.8268,-2.7374,-2.7107,-2.7143,-2.7554,-2.7893,-2.847,-2.9691,-3.0383,-3.0557,-2.9869,-3.0469,-3.0681,-2.972,-2.9751,-2.9918,-3.009,-3.0247,-3.0359,-3.0449,-3.0491,-3.0556,-3.062,-3.0751,-3.0806,-3.0797,-3.0772,-3.0728,-3.06,-3.0423,-3.022,-3.0037,-2.9905,-2.9754,-2.9607,-2.9655,-3.0143,-3.1021,-3.1321,-3.1824,-3.2435,-3.1896,-3.162,-3.1524,-3.1291,-3.0918,-3.0477,-3.0208,-2.9689,-2.9074,-2.8951,-2.87,-2.8411,0.0,0.0,0.0,0.0,0.0,0.0,0.0,0.0,-2.0195,-2.0171,-2.0205,-2.0214,0.0,0.0,0.0,-2.0721,-2.0773,0.0,-2.1556,-2.1575,-2.2204,-2.3616,-2.3929,-2.454,-2.5544,-2.5564,-2.5335,-2.4871,-2.4345,-2.4447,-2.5148,-2.5137,-2.4693,-2.3875,-2.3871,-2.3585,-2.3098,-2.3107,-2.3405,-2.3918,-2.4252,-2.4705,-2.5217,0.0,0.0,0.0,0.0,0.0,0.0,0.0,0.0,0.0,-2.543,-2.5776,-2.6006,-2.5751,-2.604,-2.6387,-2.6071,-2.6765,-2.7438,-2.6794,-2.7368,-2.7709,-2.6292,-2.63,-2.6606,-2.6796,-2.705,-2.7728,-2.9359,-2.9551,-2.9496,-2.9706,-2.9981,-2.9969,-2.9448,-2.9626,-2.9855,-2.9972,-3.0123,-3.026,-3.0386,-3.0442,-3.0509,-3.0586,-3.0667,-3.0735,-3.0799,-3.0762,-3.0743,-3.0691,-3.0498,-3.0344,-3.0184,-2.9996,-2.9857,-2.9773,-2.9531,-2.9931,-3.0901,-3.0976,-3.1476,-3.2317,-3.1882,-3.1677,-3.1677,-3.1329,-3.1015,-3.074,-3.0559,-3.0166,-2.9645,-2.9438,-2.909,-2.8653,0.0,0.0,-1.9102,-1.9095,0.0,0.0,0.0,0.0,-2.0159,-2.0116,-2.0115,-2.0124,0.0,0.0,0.0,-2.1394,-2.1492,-2.1565,-2.1572,-2.1649,-2.2056,-2.2861,-2.3809,-2.4675,-2.5492,-2.5492,-2.5518,-2.5564,-2.5589,-2.5129,-2.428,-2.4296,-2.3825,-2.2979,-2.298,-2.2932,-2.2854,-2.2864,-2.2906,-2.3043,-2.3832,-2.4269,-2.4491,-2.5288,0.0,0.0,0.0,0.0,0.0,0.0,0.0,0.0,-2.5348,-2.5632,-2.5762,-2.6352,-2.695,-2.7581,-2.8137,-2.8667,-2.8776,-2.7753,-2.7289,-2.6608,-2.4757,-2.5189,-2.6009,-2.6099,-2.622,-2.7101,-2.9507,-2.8787,-2.8304,-2.9757,-2.9548,-2.9187,-2.9077,-2.94,-2.9731,-2.9924,-3.0034,-3.0161,-3.0352,-3.0375,-3.0442,-3.0564,-3.0586,-3.065,-3.0774,-3.0739,-3.0718,-3.072,-3.054,-3.0395,-3.0317,-3.0052,-2.9905,-2.9888,-2.957,-2.9702,-3.0212,-3.0131,-3.0649,-3.1591,-3.1673,-3.1681,-3.1694,-3.1351,-3.123,-3.1151,-3.074,-3.0518,-3.0435,-3.0011,-2.9572,-2.9166,0.0,0.0,-1.9988,-1.9875,0.0,0.0,0.0,-2.0097,-2.0142,-2.0167,-2.0215,-2.0265,-2.0258,-2.0434,0.0,-2.0557,-2.0571,-2.0604,-2.0605,-2.1243,-2.1996,-2.2861,-2.4335,-2.5244,-2.5488,-2.5453,-2.5374,-2.5283,-2.5383,-2.5027,-2.4219,-2.4213,-2.3436,-2.2008,-2.206,-2.1691,-2.1065,-2.1065,-2.1441,-2.211,-2.2285,-2.3188,-2.4422,-2.4617,-2.4991,0.0,0.0,0.0,0.0,0.0,0.0,0.0,-2.5554,-2.6519,-2.7471,-2.6834,-2.7604,-2.8478,-2.7725,-2.7993,-2.8201,-2.7022,-2.6059,-2.5283,-2.4784,-2.4441,-2.4186,-2.4001,-2.4653,-2.5506,-2.6399,-2.6545,-2.6731,-2.7374,-2.7245,-2.7273,-2.7871,-2.8287,-2.8802,-2.9457,-2.977,-3.0,-3.0147,-3.026,-3.0359,-3.0432,-3.0532,-3.0633,-3.072,-3.0757,-3.0781,-3.0774,-3.0687,-3.0554,-3.0376,-3.0164,-2.9992,-2.9888,-2.9719,-2.9624,-2.9609,-2.9963,-3.0649,-3.1586,-3.1639,-3.1652,-3.1677,-3.162,-3.1428,-3.119,-3.1095,-3.0821,-3.0477,-3.0393,-3.0038,-2.9617,0.0,0.0,0.0,0.0,0.0,0.0,0.0,0.0,-2.1168,-2.0822,-2.0781,-2.0804,-2.0881,-2.0904,0.0,0.0,-2.093,-2.0918,-2.0932,-2.1357,-2.2168,-2.3412,-2.4717,-2.5412,-2.544,-2.5412,-2.534,-2.5194,-2.5245,-2.462,-2.3433,-2.3898,-2.3241,-2.1661,-2.1765,-2.1539,-2.1052,-2.0655,-2.076,-2.1253,-2.2091,-2.2978,-2.3868,-2.4706,-2.5297,-2.5696,-2.5696,0.0,0.0,0.0,0.0,0.0,0.0,0.0,-2.7556,-2.7459,-2.8152,-2.8902,-2.8665,-2.8732,-2.8482,-2.6814,-2.5361,-2.4311,-2.4198,-2.4226,-2.4235,-2.4086,-2.419,-2.449,-2.521,-2.5117,-2.528,-2.6257,-2.6407,-2.6658,-2.7367,-2.8172,-2.8869,-2.9336,-2.9663,-2.9924,-3.0094,-3.0152,-3.026,-3.0386,-3.0453,-3.0556,-3.0687,-3.0732,-3.0772,-3.0801,-3.0732,-3.0631,-3.0494,-3.0309,-3.0117,-2.9996,-2.9874,-2.9663,-2.9454,-2.9899,-3.0399,-3.091,-3.1387,-3.1611,-3.1653,-3.1704,-3.1582,-3.1428,-3.1252,-3.1055,-3.0838,-3.0838,-3.0535,-3.0097,0.0,0.0,0.0,0.0,0.0,0.0,0.0,0.0,0.0,-2.1522,-2.1503,-2.1541,-2.1496,-2.1556,-2.1533,0.0,0.0,0.0,-2.1374,-2.1664,-2.257,-2.4248,-2.502,-2.5406,-2.5406,-2.5406,-2.5332,-2.5182,-2.5122,-2.4305,-2.2819,-2.3592,-2.3176,-2.1787,-2.1923,-2.1974,-2.1891,-2.121,-2.0927,-2.1064,-2.2512,-2.317,-2.3465,-2.493,-2.5561,-2.5707,-2.5707,-2.5707,-2.569,-2.5698,0.0,0.0,0.0,0.0,-2.7094,-2.7955,-2.8574,-2.9129,-2.9851,-2.9683,-2.8815,-2.6819,-2.5117,-2.3898,-2.3781,-2.4329,-2.4941,-2.5067,-2.4419,-2.4086,-2.5011,-2.4339,-2.41,-2.5461,-2.5919,-2.634,-2.6952,-2.8137,-2.904,-2.9314,-2.9608,-2.9841,-3.0049,-3.0094,-3.0174,-3.0383,-3.0386,-3.0482,-3.0667,-3.0687,-3.0738,-3.0793,-3.0746,-3.0697,-3.0614,-3.0424,-3.0239,-3.0109,-2.9934,-2.977,-2.957,-2.9869,-3.0063,-3.0167,-3.1018,-3.1369,-3.1444,-3.1637,-3.1652,-3.1597,-3.1376,-3.1291,-3.1291,-3.123,-3.0958,-3.0601,0.0,0.0,0.0,0.0,0.0,0.0,0.0,0.0,0.0,0.0,-2.2141,-2.2323,-2.1581,-2.1512,-2.1224,-2.0523,-2.0473,-2.0462,-2.0458,0.0,0.0,-2.5155,-2.533,-2.5388,-2.5406,-2.5388,-2.5313,-2.5122,-2.5099,-2.4606,-2.3648,-2.3778,-2.3337,-2.247,-2.2658,-2.2778,-2.2818,-2.2702,-2.2668,-2.2687,-2.2926,-2.346,-2.417,-2.4468,-2.5044,-2.5694,-2.5694,-2.5701,-2.569,-2.5698,-2.5698,0.0,0.0,0.0,-2.7142,-2.7963,-2.8695,-2.9384,-3.0006,-2.933,-2.8127,-2.6735,-2.5627,-2.4886,-2.4753,-2.4769,-2.5033,-2.578,-2.5265,-2.4743,-2.5056,-2.4199,-2.3575,-2.3959,-2.4536,-2.5177,-2.5904,-2.7042,-2.8132,-2.9034,-2.9416,-2.9698,-2.9905,-3.0015,-3.0152,-3.0305,-3.0371,-3.0453,-3.06,-3.0667,-3.0735,-3.081,-3.0796,-3.0742,-3.0701,-3.0502,-3.0301,-3.0109,-2.9857,-2.9737,-2.9754,-2.9626,-2.9834,-3.0272,-3.0345,-3.0513,-3.0772,-3.1439,-3.1526,-3.1301,-3.1528,-3.162,-3.1582,-3.1291,-3.1151,-3.1055,0.0,0.0,0.0,0.0,0.0,0.0,0.0,0.0,0.0,0.0,0.0,-2.2575,-2.2265,-2.1793,-2.1177,-2.0369,-2.03,-2.0508,-2.0993,-2.176,-2.2909,-2.4589,-2.4676,-2.4888,-2.5322,-2.5332,-2.5264,-2.5107,-2.5107,-2.4877,-2.4423,-2.4479,-2.4143,-2.3458,-2.3566,-2.3644,-2.3638,-2.3191,-2.3003,-2.3042,-2.3487,-2.4216,-2.503,-2.5065,-2.5604,-2.631,-2.5855,-2.571,-2.5697,-2.5698,-2.5703,-2.5705,-2.5694,0.0,0.0,0.0,-2.8403,-2.9472,-3.0006,-2.9204,-2.809,-2.7419,-2.657,-2.5834,-2.5569,-2.5883,-2.6339,-2.6639,-2.6441,-2.6057,-2.5566,-2.4706,-2.4213,-2.4694,-2.5069,-2.5586,-2.6354,-2.7464,-2.8396,-2.9045,-2.9375,-2.9645,-2.9872,-2.9953,-3.006,-3.0279,-3.033,-3.0411,-3.0586,-3.0208,-3.0221,-3.078,-3.033,-3.0286,-3.0742,-3.0601,-3.0434,-3.0273,-3.003,-2.9972,-3.003,-2.982,-2.9814,-2.9976,-3.0161,-3.0314,-3.048,-3.088,-3.1285,-3.1578,-3.1509,-3.1638,-3.1823,-3.1603,-3.1411,-3.1196,0.0,0.0,0.0,0.0,0.0,0.0,0.0,0.0,0.0,0.0,0.0,-2.3016,-2.312,0.0,0.0,0.0,-2.0431,-2.0677,-2.154,-2.1598,-2.2246,0.0,-2.3984,-2.4379,-2.4986,-2.5187,-2.5253,-2.5149,-2.5149,-2.5103,-2.5006,-2.5103,-2.4896,-2.4427,-2.4485,-2.4505,-2.4486,-2.3888,-2.365,-2.3708,-2.4536,-2.5292,-2.5932,-2.6149,-2.6645,-2.7093,-2.6286,-2.6002,-2.5968,-2.5776,-2.5707,-2.5709,-2.5701,-2.615,0.0,0.0,0.0,-2.9169,-2.9636,-2.908,-2.8278,-2.8029,-2.7401,-2.6768,-2.6493,-2.6898,-2.7387,-2.7554,-2.7583,-2.7353,-2.6565,-2.5629,-2.5116,-2.562,-2.5946,-2.6318,-2.6933,-2.7885,-2.8676,-2.9082,-2.9314,-2.957,-2.9872,-2.9888,-3.0003,-3.024,-3.0088,-3.0037,-3.0214,-2.9492,-2.9381,-3.0086,-2.9491,-2.9583,-3.0452,-3.052,-3.0505,-3.0393,-3.0203,-3.0161,-3.0182,-3.0041,-2.9921,-2.9823,-3.007,-3.012,-3.0064,-3.0418,-3.0912,-3.1441,-3.1444,-3.1656,-3.1968,-3.1969,-3.177,-3.147,0.0,0.0,0.0,0.0,0.0,0.0,0.0,0.0,0.0,0.0,0.0,-2.4024,-2.4033,-2.3263,-2.2397,-2.1594,-2.0785,-2.067,-2.1536,-2.1602,-2.1971,-2.284,-2.3667,0.0,-2.4168,-2.4909,-2.5303,-2.5303,-2.5303,-2.5293,-2.5274,-2.5293,-2.5303,-2.534,-2.5348,-2.5374,-2.5434,-2.5395,-2.5376,-2.5461,-2.6331,-2.6694,-2.6837,-2.7667,-2.801,-2.7932,-2.7132,-2.685,-2.6724,-2.5966,-2.5707,-2.5693,-2.5703,-2.5723,-2.5935,0.0,0.0,0.0,-2.8733,-2.8809,-2.8658,-2.8203,-2.797,-2.7788,-2.7647,-2.7387,-2.7475,-2.8427,-2.8464,-2.8308,-2.8174,-2.6928,-2.5949,-2.5971,-2.653,-2.6968,-2.7074,-2.7851,-2.8619,-2.9144,-2.9272,-2.9474,-2.9855,-2.9888,-2.9953,-3.0109,-2.9461,-2.909,-2.9182,-2.8543,-2.8184,-2.8238,-2.8259,-2.8686,-2.956,-3.0133,-3.0416,-3.0408,-3.0248,-3.019,-3.0196,-3.0182,-3.0174,-3.0157,-2.9931,-2.9664,-2.9402,-3.0109,-3.0318,-3.0312,-3.1423,-3.187,-3.1936,-3.2317,-3.2248,-3.1967,0.0,0.0,0.0,0.0,0.0,0.0,0.0,0.0,0.0,0.0,0.0,0.0,0.0,-2.3821,-2.3071,-2.1666,-2.0773,-2.0441,-2.075,-2.0764,-2.1367,-2.2742,-2.3108,-2.3773,-2.4851,-2.5149,-2.5303,-2.5303,-2.5303,-2.5303,-2.5303,-2.5303,-2.5341,-2.5398,-2.5397,-2.5404,-2.5429,-2.5484,-2.5801,-2.6304,-2.661,-2.7412,-2.838,-2.8187,-2.8415,-2.8764,-2.7951,-2.7704,-2.76,-2.6763,-2.6509,-2.644,-2.5878,-2.57,-2.5876,-2.6738,-2.7125,-2.7418,-2.8148,-2.8172,-2.8049,-2.8446,-2.8331,-2.8197,-2.8525,-2.8517,-2.8445,-2.854,-2.8569,-2.8562,-2.8458,-2.7456,-2.6849,-2.7446,-2.7157,-2.7139,-2.7903,-2.8226,-2.8518,-2.8837,-2.9126,-2.9415,-2.9681,-2.9822,-2.9972,-3.0094,-2.9374,-2.897,-2.9085,-2.7853,-2.7426,-2.8087,-2.7616,-2.7785,-2.8664,-2.8879,-2.9245,-2.9758,-2.9671,-2.9931,-3.0451,-3.0309,-3.0267,-3.026,-3.0109,-2.9924,-2.9699,-2.9831,-3.0057,-3.0392,-3.0827,-3.1125,-3.1315,-3.1942,-3.1951,-3.1698,0.0,0.0,0.0,-2.6858,0.0,-2.5258,-2.3206,-2.3007,-2.3111,-2.3227,0.0,0.0,0.0,0.0,-2.3514,-2.2051,-2.1467,-2.1155,-2.1135,-2.0899,-2.1355,-2.2742,-2.2799,-2.3465,-2.487,-2.5149,-2.5303,-2.5303,-2.5303,-2.5303,-2.5303,-2.5303,-2.5322,-2.5361,-2.5388,-2.5395,-2.5393,-2.5448,-2.5766,-2.6307,-2.6878,-2.7815,-2.8866,-2.8894,-2.9259,-2.9636,-2.8803,-2.8528,-2.8443,-2.7593,-2.7329,-2.7229,-2.6367,-2.5891,-2.5785,-2.6386,-2.6491,-2.6603,-2.7439,-2.7466,-2.7503,-2.8555,-2.8385,-2.8181,-2.9035,-2.8963,-2.8699,-2.8737,-2.8694,-2.8644,-2.8612,-2.7931,-2.7647,-2.835,-2.7826,-2.7638,-2.8471,-2.8458,-2.8474,-2.8795,-2.902,-2.9254,-2.957,-2.9716,-2.9872,-3.0015,-2.9051,-2.8485,-2.8572,-2.7046,-2.6489,-2.7166,-2.6991,-2.7188,-2.7753,-2.8047,-2.8467,-2.8993,-2.9245,-2.9661,-3.0207,-3.0337,-3.0383,-3.0351,-3.0304,-3.0133,-2.9888,-2.977,-2.9889,-3.0213,-3.0493,-3.0678,-3.0859,-3.1609,-3.1635,-3.1314,-2.8853,-2.8089,-2.7414,-2.7376,-2.5958,-2.4582,-2.3809,-2.3638,-2.3707,-2.4053,0.0,0.0,0.0,0.0,0.0,-2.2904,-2.2882,-2.2863,-2.2789,-2.2076,-2.1991,-2.2802,-2.2831,-2.3263,-2.4129,-2.4909,-2.5303,-2.5303,-2.5303,-2.5303,-2.5303,-2.5303,-2.5303,-2.5303,-2.5361,-2.5407,-2.5406,-2.5406,-2.5423,-2.5614,-2.7209,-2.7951,-2.8257,-2.9854,-3.0511,-3.0482,-2.9636,-2.9334,-2.9214,-2.8404,-2.814,-2.8009,-2.7164,-2.6301,-2.5622,-2.5683,-2.5702,-2.5853,0.0,0.0,0.0,-2.8401,-2.8103,-2.7818,-2.9176,-2.8665,-2.813,-2.9015,-2.8887,-2.8644,-2.8785,-2.8492,-2.8309,-2.8562,-2.8484,-2.8502,-2.8761,-2.8518,-2.8525,-2.902,-2.8929,-2.9023,-2.9533,-2.9608,-2.9681,-2.9872,-2.8464,-2.7589,-2.7504,-2.6106,-2.5332,-2.5406,-2.634,-2.686,-2.6852,-2.7708,-2.8144,-2.8164,-2.906,-2.9448,-2.943,-3.0224,-3.0554,-3.0494,-3.0434,-3.0209,-2.9921,-2.9905,-2.9786,-2.9683,-3.0471,-3.0652,-3.0572,-3.137,-3.136,-3.0885,-2.8,-2.8044,-2.7735,-2.6706,-2.5997,-2.5114,-2.371,-2.3587,-2.37,0.0,0.0,0.0,-2.5207,-2.4582,-2.3995,-2.3753,-2.3174,-2.2827,-2.281,-2.2588,-2.2857,-2.3706,-2.3744,-2.412,-2.4947,-2.5187,-2.5303,-2.5303,-2.5303,-2.5303,-2.5303,-2.5303,-2.5303,-2.5303,-2.5313,-2.5322,-2.5332,-2.5378,-2.6109,-2.719,-2.7083,-2.8154,-2.9796,-2.9689,-2.9999,-3.0492,-3.0317,-3.0247,-3.0125,-2.9318,-2.9075,-2.8862,-2.7418,-2.6373,-2.5675,-2.5633,-2.5663,-2.5735,-2.5945,0.0,0.0,0.0,0.0,0.0,-2.8635,-2.8116,-2.7662,-2.8952,-2.8618,-2.8268,-2.8833,-2.8821,-2.8767,-2.8874,-2.8608,-2.8518,-2.8887,-2.8815,-2.8791,-2.8957,-2.9144,-2.9314,-2.9375,-2.9608,-2.9736,-2.9737,-2.8793,-2.7985,-2.7518,-2.6151,-2.5388,-2.541,-2.5672,-2.5854,-2.595,-2.6197,-2.6642,-2.7265,-2.8141,-2.8886,-2.9499,-3.0267,-3.0594,-3.0567,-3.0453,-3.0359,-3.0247,-3.0155,-3.0,-2.9841,-3.0067,-3.0019,-2.9924,-3.0599,-3.0742,-3.063,-2.7542,-2.7954,-2.7918,-2.6709,-2.612,-2.5396,-2.4144,-2.4025,-2.413,0.0,0.0,0.0,-2.5244,-2.488,-2.4601,-2.4601,-2.4129,-2.3841,-2.3832,-2.3542,-2.3715,-2.4562,-2.4283,-2.4485,-2.5284,-2.5303,-2.5303,-2.5303,-2.5303,-2.5303,-2.5303,-2.5303,-2.5303,-2.5303,-2.5303,-2.5303,-2.5313,-2.5341,-2.5947,-2.6882,-2.7113,-2.8087,-2.9448,-2.967,-3.0066,-3.052,-3.053,-3.0588,-3.0527,-3.0056,-2.9691,-2.9213,-2.787,-2.7126,-2.6609,-2.5863,-2.5933,-2.6152,-2.5798,-2.5664,-2.5839,-2.6601,0.0,0.0,-2.8427,-2.8065,-2.7759,-2.9195,-2.8986,-2.8719,-2.9165,-2.9126,-2.9052,-2.9144,-2.8997,-2.8902,-2.9026,-2.891,-2.8863,-2.9021,-2.916,-2.9249,-2.9293,-2.9493,-2.9626,-2.9683,-2.8894,-2.7983,-2.701,-2.5907,-2.5332,-2.536,-2.5365,-2.5403,-2.5473,-2.5556,-2.5859,-2.6364,-2.7261,-2.7949,-2.8436,-2.9269,-2.9815,-3.0143,-3.0063,-3.0206,-3.0472,-3.0367,-3.0215,-3.0079,-3.0079,-2.9934,-2.9806,-3.0152,-3.0185,-3.0071,0.0,-2.7855,-2.7997,-2.7047,-2.6302,-2.5555,-2.4786,-2.4657,-2.4779,0.0,-2.5091,-2.5099,-2.5271,-2.5312,-2.5303,-2.5303,-2.5303,-2.5303,-2.5303,-2.462,-2.4543,-2.5264,-2.4601,-2.4562,-2.5284,-2.5303,-2.5303,-2.5303,-2.5303,-2.5303,-2.5303,-2.5303,-2.5303,-2.5303,-2.5303,-2.5303,-2.5303,-2.5284,-2.538,-2.5659,-2.716,-2.7922,-2.8328,-2.9734,-3.0353,-3.0491,-3.0491,-3.053,-3.0598,-3.0597,-3.0075,-2.9262,-2.8509,-2.822,-2.7893,-2.6418,-2.6537,-2.6968,-2.6188,-2.5989,-2.6119,-2.6675,-2.633,0.0,-2.823,-2.8096,-2.7972,-2.9375,-2.9444,-2.9325,-2.9489,-2.9382,-2.9277,-2.9323,-2.9438,-2.9418,-2.9181,-2.8962,-2.8938,-2.9225,-2.9119,-2.9101,-2.9336,-2.9357,-2.9455,-2.9683,-2.8894,-2.7813,-2.6384,-2.569,-2.5324,-2.529,-2.5274,-2.5272,-2.5301,-2.5467,-2.5571,-2.56,-2.6523,-2.6947,-2.6939,-2.7869,-2.8672,-2.9355,-2.9366,-2.9727,-3.0346,-3.0365,-3.0332,-3.0292,-3.0292,-3.0194,-3.0022,-3.0007,-2.9767,-2.9454,-2.7064,-2.768,-2.7884,-2.7046,-2.673,-2.6098,-2.4681,-2.4716,-2.4953,-2.5032,-2.5111,-2.5201,-2.5282,-2.5292,-2.5302,-2.5303,-2.5303,-2.5303,-2.5303,-2.5149,-2.5139,-2.5284,-2.5159,-2.5139,-2.5303,-2.5303,-2.5303,-2.5303,-2.5303,-2.5303,-2.5303,-2.5303,-2.5303,-2.5303,-2.5302,-2.5312,-2.5303,-2.5243,-2.5657,-2.64,-2.6718,-2.8084,-2.9883,-2.9571,-2.9852,-3.0439,-3.0481,-3.052,-3.0521,-3.0576,-3.0063,-2.9385,-2.9259,-2.8719,-2.8075,-2.7783,-2.783,-2.7927,-2.7764,-2.7708,-2.7578,-2.7027,-2.7253,0.0,-2.7278,-2.6994,-2.7054,-2.795,-2.8013,-2.8126,-2.888,-2.938,-2.95,-2.8922,-2.9261,-2.957,-2.9513,-2.9551,-2.9607,-2.968,-2.9748,-2.9782,-2.9784,-2.9834,-2.9801,-2.9626,-2.8964,-2.811,-2.7053,-2.6523,-2.5933,-2.5233,-2.5168,-2.5154,-2.5216,-2.5255,-2.5363,-2.5538,-2.6368,-2.6812,-2.693,-2.7821,-2.8319,-2.8456,-2.8457,-2.8536,-2.8719,-2.9292,-2.9834,-3.0292,-3.0292,-3.0279,-3.0221,-3.0056,-2.9946,-2.9867,-2.682,-2.749,-2.7703,-2.689,-2.6783,-2.6265,-2.4649,-2.4712,-2.4947,-2.4947,-2.5111,-2.5376,-2.5847,-2.5542,-2.5485,-2.5899,-2.5553,-2.5303,-2.5303,-2.5303,-2.5303,-2.5303,-2.5303,-2.5303,-2.5303,-2.5303,-2.5303,-2.5303,-2.5303,-2.5303,-2.5303,-2.5293,-2.5513,-2.5878,-2.5435,-2.5482,-2.5877,-2.5395,-2.5732,-2.6638,-2.7033,-2.8217,-2.9756,-2.9789,-3.0051,-3.0398,-3.0449,-3.0471,-3.0511,-3.0574,-3.0348,-2.9985,-2.9574,-2.9458,-2.9283,-2.8456,-2.8515,-2.8766,-2.8353,-2.8231,-2.81,-2.7655,-2.7851,0.0,0.0,-2.7736,-2.7744,-2.8962,-2.8396,-2.8,-2.8937,-2.8937,-2.881,-2.8843,-2.9155,-2.9522,-2.9901,-2.9834,-2.9765,-2.9839,-2.9877,-2.9912,-2.9954,-2.9943,-2.9883,-2.9715,-2.9047,-2.8452,-2.7967,-2.6966,-2.6199,-2.5767,-2.526,-2.5043,-2.5145,-2.516,-2.5215,-2.5348,-2.5827,-2.6088,-2.6172,-2.6677,-2.7142,-2.7544,-2.7558,-2.7798,-2.8232,-2.8598,-2.9175,-2.9844,-3.0227,-3.0371,-3.033,-3.0247,-3.0109,-2.9988,-2.6617,-2.7195,-2.7402,-2.6924,-2.6814,-2.6321,-2.4906,-2.4806,-2.4915,-2.4942,-2.5378,-2.5891,-2.6439,-2.6069,-2.6051,-2.6773,-2.6196,-2.5773,-2.5773,-2.562,-2.561,-2.5783,-2.5476,-2.538,-2.5553,-2.538,-2.5303,-2.5303,-2.5303,-2.5303,-2.5303,-2.5302,-2.5734,-2.6491,-2.5779,-2.5844,-2.6469,-2.5738,-2.597,-2.6886,-2.7508,-2.8222,-2.8948,-2.9813,-3.0152,-3.0175,-3.034,-3.043,-3.0501,-3.0588,-3.0644,-3.0565,-2.9877,-3.0178,-3.0494,-2.9119,-2.9197,-2.9587,-2.8943,-2.8738,-2.8617,-2.8273,-2.8336,-2.8535,0.0,0.0,0.0,-2.9932,-2.9142,-2.8443,-2.9195,-2.8667,-2.8274,-2.8772,-2.8934,-2.9195,-2.9783,-2.9721,-2.9711,-2.997,-2.9975,-3.0009,-3.0107,-3.0009,-2.9915,-2.9836,-2.9263,-2.8859,-2.8673,-2.7471,-2.6618,-2.6262,-2.5536,-2.5091,-2.505,-2.5025,-2.508,-2.516,-2.5245,-2.5327,-2.5385,-2.5473,-2.5936,-2.6623,-2.6642,-2.7051,-2.773,-2.79,-2.8303,-2.8932,-2.9885,-3.0337,-3.0425,-3.0402,-3.0267,-3.0075,-2.6344,-2.6688,-2.6924,-2.7548,-2.7184,-2.6563,-2.5843,-2.5261,-2.4955,-2.5137,-2.6479,-2.7191,-2.6565,-2.7044,-2.7489,-2.7658,-2.7562,-2.7516,-2.752,-2.6779,-2.6743,-2.7563,-2.612,-2.5649,-2.6447,-2.5687,-2.5303,-2.5303,-2.5303,-2.5293,-2.5292,-2.5293,-2.5754,-2.6579,-2.6431,-2.6442,-2.6561,-2.6366,-2.6807,-2.7662,-2.7692,-2.7842,-2.8121,-2.8929,-2.9248,-2.9344,-3.0117,-3.043,-3.0511,-3.0582,-3.0618,-3.0613,-3.0629,-3.0626,-3.0628,-3.0605,-3.0584,-3.0569,-3.0513,-3.0512,-3.0138,-2.86,-2.8778,-2.8979,-2.7526,0.0,-2.8257,-2.8437,0.0,-2.9347,-2.9453,0.0,0.0,-2.8382,-2.8248,-2.8242,-2.8338,-2.8877,-2.9558,-3.0335,-3.0472,-3.0527,-3.0524,-3.026,-3.0018,-2.9905,-2.9815,-2.9404,-2.8579,-2.8521,-2.7789,-2.6176,-2.6023,-2.5601,-2.4836,-2.4768,-2.4851,-2.5019,-2.493,-2.501,-2.5303,-2.5271,-2.5398,-2.5659,-2.5717,-2.5844,-2.6048,-2.6816,-2.7155,-2.7316,-2.8844,-2.987,-3.0491,-3.043,-3.0383,-3.0355,-2.6374,-2.6612,-2.6851,-2.7658,-2.7645,-2.7081,-2.5801,-2.5543,-2.5721,-2.6393,-2.6785,-2.7261,-2.7886,-2.7381,-2.7412,-2.8401,-2.8068,-2.7792,-2.7796,-2.7451,-2.7454,-2.7871,-2.7198,-2.6736,-2.6601,-2.6236,-2.5813,-2.5303,-2.5303,-2.5303,-2.5293,-2.5302,-2.6013,-2.727,-2.6734,-2.706,-2.7953,-2.7388,-2.7113,-2.7071,-2.7434,-2.7376,-2.73,-2.9094,-2.9786,-2.9848,-3.024,-3.0409,-3.0441,-3.0521,-3.0595,-3.0658,-3.0639,-3.0675,-3.0728,-3.0765,-3.0769,-3.0774,-3.0831,-3.0804,-3.0454,-2.924,-2.922,-2.9309,-2.8589,-2.8303,-2.8488,-2.9503,0.0,0.0,0.0,0.0,0.0,0.0,-2.7723,-2.7576,-2.8021,-2.8837,-2.9674,-3.0516,-3.0571,-3.0543,-3.053,-3.0351,-3.0203,-3.0196,-3.0049,-2.9823,-2.9505,-2.8976,-2.8099,-2.6839,-2.6239,-2.5536,-2.4742,-2.4679,-2.4689,-2.4837,-2.4915,-2.4994,-2.5018,-2.5226,-2.5316,-2.5333,-2.5513,-2.5626,-2.5666,-2.6074,-2.6522,-2.7062,-2.8225,-2.913,-2.9859,-3.0298,-3.0422,-3.0414,-2.6713,-2.686,-2.7138,-2.7967,-2.8003,-2.744,-2.5998,-2.628,-2.6827,-2.7335,-2.7483,-2.7892,-2.8868,-2.8096,-2.7994,-2.9219,-2.8791,-2.8459,-2.8464,-2.8245,-2.8257,-2.856,-2.8129,-2.7717,-2.7302,-2.7082,-2.6659,-2.6005,-2.5764,-2.5668,-2.5639,-2.5398,-2.6079,-2.7451,-2.7052,-2.7527,-2.8638,-2.8167,-2.7669,-2.7209,-2.7627,-2.7687,-2.7692,-2.9334,-2.9972,-2.999,-3.0025,-3.0059,-3.0081,-3.0133,-3.0377,-3.0659,-3.0571,-3.0639,-3.0751,-3.0704,-3.0723,-3.0767,-3.0859,-3.0799,-3.0467,-2.9406,-2.9148,-2.9079,-2.8831,-2.8483,-2.8633,-3.0133,-2.9617,0.0,0.0,0.0,-2.7722,-2.8075,0.0,-2.7183,-2.8007,-2.8515,-2.9174,-3.024,-3.0508,-3.0556,-3.0511,-3.0411,-3.0359,-3.0375,-3.0133,-3.0053,-3.0142,-2.9342,-2.8493,-2.761,-2.663,-2.5757,-2.4949,-2.4694,-2.4564,-2.466,-2.4865,-2.4929,-2.4864,-2.5182,-2.5293,-2.5271,-2.5485,-2.557,-2.558,-2.5659,-2.6074,-2.6757,-2.7807,-2.854,-2.913,-3.0153,-3.0472,-3.0428,-2.7406,-2.757,-2.783,-2.8722,-2.8228,-2.7493,-2.6838,-2.7766,-2.826,-2.7502,-2.896,-2.9784,-2.8987,-2.9612,-3.0089,-3.0147,-3.0142,-3.0122,-3.0112,-2.9385,-2.934,-3.0196,-2.8722,-2.8245,-2.8998,-2.8264,-2.7832,-2.7813,-2.6967,-2.6572,-2.6551,-2.5677,-2.5773,-2.6675,-2.7412,-2.7796,-2.7862,-2.8436,-2.8765,-2.8906,-2.8654,-2.9163,-3.0008,-2.9296,-2.9078,-2.9133,-2.9133,-2.9167,-2.9233,-2.9253,-2.9857,-3.0607,-3.0678,-3.0646,-3.0613,-3.0682,-3.0667,-3.0637,-3.0772,-3.08,-3.0391,-2.8669,-2.8249,-2.8028,-2.7188,-2.761,-2.8462,-2.9363,-3.0115,-3.0642,-3.0738,-3.0027,-2.9159,-2.8324,-2.7475,0.0,0.0,-2.7496,-2.7622,-2.9325,-3.0279,-3.072,-3.0516,-3.0491,-3.0442,-3.0297,-3.0104,-3.0007,-3.0007,-2.9789,-2.9233,-2.8297,-2.7419,-2.6507,-2.5579,-2.4801,-2.4446,-2.4512,-2.466,-2.4808,-2.4994,-2.5061,-2.5222,-2.5407,-2.5473,-2.549,-2.5504,-2.5646,-2.5719,-2.5906,-2.7636,-2.8277,-2.8424,-3.0011,-3.0548,-3.0499,-2.7597,-2.8067,-2.85,-2.8779,-2.8686,-2.848,-2.8298,-2.8254,-2.8372,-2.8615,-2.8834,-2.9099,-2.9532,-2.9319,-2.9421,-3.0147,-3.0204,-3.0199,-3.0207,-2.9998,-2.9986,-3.0292,-2.9817,-2.9417,-2.9113,-2.8841,-2.8429,-2.789,-2.7024,-2.6591,-2.6591,-2.5707,-2.5764,-2.6649,-2.7443,-2.8092,-2.8644,-2.9423,-2.9467,-2.8996,-2.8911,-2.9313,-2.9988,-2.9855,-2.9468,-2.9034,-2.9082,-2.8741,-2.8275,-2.8318,-2.8936,-2.9674,-2.9696,-3.0122,-3.0601,-3.0639,-3.0236,-2.9825,-2.9868,-2.9452,-2.8889,-2.834,-2.7773,-2.7402,-2.7702,-2.7994,-2.8431,-2.9255,-3.0116,-3.0714,-3.0739,-3.001,-2.9331,-2.9038,-2.826,-2.7599,0.0,-2.7069,-2.7329,-2.8436,-2.9334,-2.9829,-2.9722,-3.0186,-3.0491,-3.0447,-3.0253,-3.0113,-3.0064,-2.9822,-2.9251,-2.8259,-2.7306,-2.6374,-2.5541,-2.4746,-2.4358,-2.4375,-2.4561,-2.467,-2.4741,-2.4987,-2.5138,-2.5203,-2.5376,-2.546,-2.5515,-2.5605,-2.5664,-2.5875,-2.7573,-2.8222,-2.8393,-3.0061,-3.0626,-3.0557,-2.802,-2.8421,-2.8785,-2.8834,-2.8947,-2.8994,-2.8994,-2.8716,-2.8697,-2.9219,-2.8969,-2.9006,-2.9712,-2.9363,-2.933,-3.0041,-3.0157,-3.0199,-3.0194,-3.0253,-3.0266,-3.0253,-3.0337,-3.0081,-2.95,-2.9509,-2.9129,-2.8341,-2.7486,-2.6909,-2.6582,-2.5707,-2.5774,-2.664,-2.7465,-2.8276,-2.9053,-2.9857,-2.9888,-2.9442,-2.9442,-2.966,-3.0026,-3.0147,-2.9691,-2.897,-2.8701,-2.8265,-2.7761,-2.7522,-2.8029,-2.8753,-2.8742,-2.9138,-2.9644,-2.9652,-2.9283,-2.8921,-2.8939,-2.8534,-2.8033,-2.7799,-2.7327,-2.7052,-2.7612,-2.7991,-2.8349,-2.8864,-2.9913,-3.0642,-3.0321,-3.0056,-2.9763,-2.9447,-2.8923,-2.8159,0.0,-2.7082,-2.7269,-2.7218,-2.8256,-2.9072,-2.9302,-2.9783,-3.0206,-3.052,-3.0304,-3.0118,-2.9992,-2.9769,-2.9289,-2.8569,-2.7354,-2.6462,-2.5945,-2.4819,-2.4266,-2.4266,-2.4476,-2.4604,-2.4682,-2.4943,-2.5107,-2.5182,-2.5327,-2.5446,-2.5511,-2.5576,-2.5648,-2.5832,-2.7237,-2.7968,-2.8449,-3.0118,-3.0682,-3.0595,-2.8612,-2.8662,-2.8761,-2.8863,-2.8952,-2.8994,-2.8994,-2.9115,-2.9209,-2.9272,-2.9397,-2.9495,-2.957,-2.9751,-2.9872,-2.9888,-3.0064,-3.0185,-3.0204,-3.0194,-3.0194,-3.0204,-3.0253,-3.0266,-3.0188,-3.0267,-2.9939,-2.9152,-2.8321,-2.7486,-2.6697,-2.5793,-2.5832,-2.6697,-2.7563,-2.8357,-2.904,-2.9723,-3.009,-3.0204,-3.0204,-3.0185,-3.0204,-3.0204,-2.9696,-2.8913,-2.802,-2.7719,-2.7593,-2.6809,-2.7099,-2.7843,-2.7836,-2.7865,-2.7903,-2.7914,-2.7913,-2.7959,-2.8009,-2.8009,-2.7804,-2.7082,-2.6861,-2.6849,-2.6891,-2.7539,-2.8122,-2.8135,-2.9514,-3.0474,-2.9656,-3.0154,-3.0425,-2.9611,-2.9434,-2.8817,-2.7155,-2.7551,-2.7447,-2.5918,-2.719,-2.8473,-2.9194,-2.9283,-2.9644,-3.0459,-3.0287,-3.0028,-2.9842,-2.9626,-2.9433,-2.9222,-2.7588,-2.6698,-2.6716,-2.5039,-2.4192,-2.4192,-2.4407,-2.4582,-2.479,-2.4937,-2.5099,-2.5293,-2.5365,-2.5441,-2.549,-2.5576,-2.5636,-2.5791,-2.6651,-2.7556,-2.8554,-3.0204,-3.0711,-3.061,-2.8737,-2.8761,-2.8785,-2.881,-2.8834,-2.8881,-2.8994,-2.8998,-2.898,-2.9003,-2.903,-2.9123,-2.9275,-2.9377,-2.957,-2.9872,-2.9956,-3.0034,-3.0185,-3.0194,-3.0194,-3.0204,-3.0253,-3.0266,-3.0188,-3.0279,-3.0203,-2.9997,-2.8537,-2.8041,-2.8429,-2.6948,-2.6736,-2.7601,-2.8426,-2.8871,-2.9053,-2.9811,-3.0166,-3.0204,-3.0204,-3.0123,-2.9977,-2.9984,-2.9769,-2.9301,-2.812,-2.723,-2.6511,-2.5864,-2.6205,-2.6927,-2.6928,-2.7381,-2.7892,-2.7903,-2.7489,-2.7034,-2.7039,-2.6626,-2.6274,-2.6714,-2.634,-2.6037,-2.673,-2.7073,-2.7216,-2.7165,-2.8594,-2.9743,-2.9489,-3.0119,-3.0623,-3.0393,-2.9816,-2.9244,-2.8803,-2.8361,-2.7915,-2.751,-2.7905,-2.8003,-2.753,-2.8661,-2.9485,-2.9541,-3.0085,-3.0285,-3.0041,-2.9883,-2.9662,-2.9351,-2.7713,-2.678,-2.6633,-2.5017,-2.4209,-2.419,-2.4248,-2.4441,-2.4741,-2.4814,-2.5019,-2.5302,-2.5332,-2.5393,-2.5499,-2.5518,-2.5571,-2.5717,-2.6596,-2.7879,-2.9393,-3.0421,-3.0755,-3.0675,-2.8712,-2.8712,-2.8712,-2.8761,-2.8761,-2.8785,-2.89,-2.8881,-2.8881,-2.8905,-2.8881,-2.891,-2.9075,-2.9206,-2.9375,-2.9626,-2.9716,-2.9822,-2.9937,-2.9934,-2.9934,-2.9937,-2.9965,-2.9981,-2.995,-3.0056,-2.9937,-2.9595,-2.8771,-2.8434,-2.8544,-2.7601,-2.7621,-2.8429,-2.8895,-2.9238,-2.9459,-2.9787,-3.0,-3.0049,-2.9969,-2.9869,0.0,-2.9769,-2.9644,-2.9308,-2.8021,-2.7219,-2.6569,-2.5589,-2.5608,-2.6032,-2.6033,-2.637,-2.6755,-2.6756,-2.6458,-2.613,-2.6129,-2.5799,-2.5569,-2.6061,-2.5842,-2.5731,-2.6645,-2.6856,-2.6841,-2.6858,-2.7969,-2.8916,-2.8843,-2.9544,-3.0267,-3.0633,-3.0295,-2.9841,-2.9458,-2.8985,-2.8383,-2.7627,-2.7935,-2.7682,-2.6406,-2.7889,-2.8851,-2.8694,-2.9429,-2.9763,-2.9493,-2.9741,-2.9732,-2.9373,-2.7753,-2.6801,-2.6612,-2.4997,-2.419,-2.419,-2.419,-2.4338,-2.4623,-2.4697,-2.4915,-2.5176,-2.5261,-2.5376,-2.5492,-2.5506,-2.5551,-2.5729,-2.6598,-2.7565,-2.855,-2.9394,-3.0142,-3.0735,-2.8775,-2.8775,-2.8739,-2.8705,-2.8687,-2.8712,-2.8761,-2.8785,-2.881,-2.8881,-2.8834,-2.8834,-2.8947,-2.9052,-2.9188,-2.9272,-2.9455,-2.957,-2.9608,-2.9608,-2.9608,-2.9608,-2.9608,-2.9608,-2.9608,-2.9765,-2.952,-2.8829,-2.8957,-2.8732,-2.8165,-2.8069,-2.8464,-2.9256,-2.926,-2.9532,-2.9962,-2.9697,-2.9698,-2.9855,-2.9662,-2.9589,-2.957,-2.957,-2.9435,-2.9089,-2.7913,-2.7418,-2.7148,-2.57,-2.5241,-2.5292,-2.5293,-2.5303,-2.5303,-2.5303,-2.5351,-2.5398,-2.5398,-2.5406,-2.5393,-2.5393,-2.5352,-2.5534,-2.6287,-2.6362,-2.6334,-2.651,-2.7242,-2.785,-2.7918,-2.8641,-2.9523,-3.0397,-3.0535,-3.0263,-2.951,-2.9492,-2.8961,-2.7334,-2.7969,0.0,-2.5947,-2.7255,-2.8106,-2.7874,-2.8644,-2.9021,-2.877,-2.9513,-2.9751,-2.9355,-2.7773,-2.6821,-2.6573,-2.4977,-2.419,-2.419,-2.419,-2.4321,-2.4528,-2.4654,-2.4814,-2.505,-2.5209,-2.5359,-2.5486,-2.5492,-2.5565,-2.5761,-2.6505,-2.6878,-2.7077,-2.7846,-2.9121,-3.0479,-2.959,-2.959,-2.9373,-2.8721,-2.8612,-2.8612,-2.8637,-2.8687,-2.8718,-2.8718,-2.8718,-2.8737,-2.8743,-2.8815,-2.8962,-2.9188,-2.9251,-2.9357,-2.9589,-2.9608,-2.9608,-2.9608,-2.9608,-2.9608,-2.9608,-2.9626,-2.9623,-2.9525,-2.8844,-2.8897,-2.9617,-2.8949,-2.9149,-3.0086,-3.0087,-3.0032,-2.9905,-2.9698,-2.9626,-2.9644,-2.9626,-2.9513,-2.9355,-2.9355,-2.9228,-2.896,-2.8177,-2.7568,-2.6951,-2.5647,-2.522,-2.5222,-2.5292,-2.5293,-2.5303,-2.5303,-2.5351,-2.5398,-2.5398,-2.5397,-2.5395,-2.5395,-2.491,-2.4471,-2.4629,-2.4101,-2.3786,-2.4529,-2.5363,-2.6182,-2.6904,-2.7737,-2.8613,-2.9485,-2.964,-2.9565,-2.9413,-3.0012,-3.0084,-2.9075,-2.9765,-2.9374,-2.6913,-2.7657,-2.7948,-2.7146,-2.84,-2.9139,-2.9029,-2.9748,-2.9953,-2.9476,-2.7903,-2.6898,-2.6512,-2.4919,-2.4151,-2.419,-2.419,-2.4358,-2.4676,-2.4689,-2.4879,-2.5164,-2.5201,-2.5284,-2.5414,-2.5473,-2.5542,-2.5629,-2.5732,-2.6247,-2.6949,-2.7153,-2.7866,-2.8826,-3.0405,-3.0079,-2.9663,-2.9282,-2.8884,-2.8587,-2.8587,-2.8637,-2.8662,-2.8694,-2.8694,-2.8718,-2.8761,-2.8761,-2.8815,-2.903,-2.903,-2.9119,-2.927,-2.9291,-2.9291,-2.9291,-2.9291,-2.9291,-2.9291,-2.9395,-2.9474,-2.9551,-2.9231,-2.9336,-2.9845,-2.9478,-2.9563,-2.9988,-2.9867,-2.9803,-2.9716,-2.9415,-2.9334,-2.9435,-2.9314,-2.9228,-2.9138,-2.9138,-2.9071,-2.8906,-2.8241,-2.7807,-2.7382,-2.6129,-2.5485,-2.522,-2.5241,-2.5273,-2.5302,-2.5302,-2.5332,-2.5351,-2.5351,-2.537,-2.5397,-2.5397,-2.4769,-2.4157,-2.4184,-2.3535,-2.3021,-2.3446,-2.3855,-2.4549,-2.5877,-2.756,-2.8719,-2.873,-2.9101,-2.9394,-2.9393,-2.9765,-2.9863,-2.9452,-3.0203,-2.9723,-2.7151,-2.7729,-2.7834,-2.687,-2.7865,-2.8657,-2.8982,-2.9735,-2.995,-2.9514,-2.7939,-2.6898,-2.6447,-2.4839,-2.4074,-2.4151,-2.4151,-2.4247,-2.4464,-2.4629,-2.4779,-2.4947,-2.5122,-2.5264,-2.5357,-2.5453,-2.5529,-2.5556,-2.5542,-2.5838,-2.6233,-2.6308,-2.6882,-2.7804,-3.1021,-3.0477,-2.9934,-2.959,-2.9029,-2.8587,-2.8587,-2.8587,-2.8612,-2.8669,-2.8669,-2.8712,-2.8737,-2.8712,-2.8737,-2.8858,-2.8858,-2.8905,-2.8975,-2.8994,-2.8994,-2.8994,-2.8994,-2.8994,-2.8994,-2.916,-2.927,-2.931,-2.9474,-2.9589,-2.9644,-2.9697,-2.9715,-2.9678,-2.9474,-2.9434,-2.9513,-2.916,-2.9093,-2.9228,-2.9067,-2.8994,-2.8994,-2.8994,-2.8994,-2.8925,-2.8399,-2.8114,-2.7863,-2.6946,-2.6102,-2.5382,-2.5248,-2.5241,-2.5282,-2.5311,-2.5302,-2.5303,-2.5303,-2.5341,-2.5389,-2.5389,-2.4598,-2.3843,-2.3879,-2.3095,-2.2407,-2.2601,-2.2774,-2.3436,-2.5182,-2.6977,-2.8115,-2.7854,-2.839,-2.8896,-2.9081,-2.9262,-2.9396,-2.938,-3.0006,-2.9483,-2.7039,-2.7488,-2.7563,-2.6713,-2.7439,-2.8212,-2.8874,-2.968,-2.9934,-2.9551,-2.7921,-2.686,-2.645,-2.478,-2.3996,-2.4074,-2.4094,-2.4171,-2.4303,-2.458,-2.4738,-2.4827,-2.5094,-2.5243,-2.5311,-2.5395,-2.5439,-2.546,-2.5526,-2.5576,-2.5589,-2.5648,-2.6113,-2.6962,-3.1129,-3.093,-3.0423,-2.8974,-2.8641,-2.8587,-2.8587,-2.8587,-2.8612,-2.8612,-2.8612,-2.8612,-2.8612,-2.8612,-2.8637,-2.8718,-2.8718,-2.8767,-2.8905,-2.8905,-2.8929,-2.8994,-2.8994,-2.8994,-2.8994,-2.9017,-2.9021,-2.904,-2.9044,-2.9181,-2.9414,-2.9434,-2.9532,-2.9681,-2.9435,-2.9314,-2.9314,-2.9093,-2.9017,-2.904,-2.9017,-2.8994,-2.8994,-2.8994,-2.8994,-2.8975,-2.8925,-2.8525,-2.801,-2.8072,-2.722,-2.6007,-2.5382,-2.519,-2.5222,-2.5282,-2.5292,-2.5302,-2.5303,-2.5313,-2.5313,-2.5313,-2.41,-2.2912,-2.2932,-2.1695,-2.0764,-2.1555,-2.2346,-2.3431,-2.5173,-2.4996,-2.5101,-2.6663,-2.6935,-2.7237,-2.8032,-2.8858,-2.9376,-2.9314,-2.9493,-2.8806,-2.6741,-2.6832,-2.6877,-2.6545,-2.7373,-2.8213,-2.8955,-2.9688,-2.9969,-2.9681,-2.7867,-2.6804,-2.6583,-2.4723,-2.3896,-2.4016,-2.4074,-2.4248,-2.4559,-2.4657,-2.487,-2.5156,-2.5195,-2.5234,-2.5301,-2.5245,-2.5265,-2.5327,-2.5398,-2.5452,-2.5523,-2.5589,-2.5707,-2.6078,-3.1148,-3.0604,-3.0061,-2.9427,-2.892,-2.8775,-2.9246,-2.9318,-2.9318,-2.9318,-2.8902,-2.8587,-2.8587,-2.8587,-2.8637,-2.8694,-2.8694,-2.8743,-2.8834,-2.8881,-2.8905,-2.8929,-2.8994,-2.8994,-2.8994,-2.8994,-2.8994,-2.8994,-2.8994,-2.9044,-2.9156,-2.92,-2.9267,-2.9332,-2.9181,-2.9115,-2.9115,-2.9021,-2.8994,-2.8994,-2.8994,-2.8994,-2.8994,-2.8994,-2.8994,-2.8994,-2.8994,-2.8842,-2.8544,-2.8236,-2.7173,-2.5993,-2.5848,-2.5386,-2.4923,-2.5082,-2.5122,-2.5149,-2.5262,-2.5293,-2.5303,-2.5303,-2.4052,-2.2791,-2.2808,-2.1506,-2.0395,-2.0742,-2.1479,-2.2431,-2.3647,-2.4428,-2.512,-2.584,-2.6389,-2.7,-2.7825,-2.8266,-2.8874,-2.9902,-2.997,-2.9409,-2.8133,-2.7595,-2.7489,-2.7853,-2.7862,-2.8182,-2.8967,-2.9618,-2.9891,-2.9717,-2.7922,-2.6822,-2.6539,-2.4801,-2.3721,-2.3343,-2.3286,-2.3456,-2.383,-2.3892,-2.4393,-2.5191,-2.5203,-2.5217,-2.5233,-2.5201,-2.5212,-2.5244,-2.5311,-2.5363,-2.5391,-2.5551,-2.5613,-2.5886,-3.0564,-2.9924,-2.9529,-2.9511,-2.9116,-2.9079,-2.9873,-3.008,-3.0133,-3.0133,-2.9663,-2.9137,-2.8641,-2.8587,-2.8612,-2.8687,-2.8887,-2.8948,-2.8779,-2.9028,-2.9095,-2.8905,-2.8952,-2.8994,-2.8994,-2.8994,-2.8994,-2.8994,-2.8994,-2.8994,-2.8994,-2.9062,-2.9085,-2.9085,-2.9017,-2.8994,-2.8994,-2.8994,-2.8994,-2.8994,-2.8994,-2.8994,-2.8994,-2.8994,-2.8994,-2.8994,-2.8994,-2.8994,-2.8948,-2.8521,-2.7529,-2.6429,-2.6189,-2.5623,-2.5032,-2.4941,-2.491,-2.4956,-2.5103,-2.5149,-2.5171,-2.5233,-2.3976,-2.2738,-2.2791,-2.1509,-2.0296,-2.0296,-2.0743,-2.1493,-2.2607,-2.3816,-2.4806,-2.5327,-2.6108,-2.6957,-2.7769,-2.8126,-2.8734,-2.9967,-2.9789,-2.9279,-2.8605,-2.7762,-2.756,-2.828,-2.816,-2.8401,-2.9224,-2.9437,-2.9465,-2.9323,-2.7531,-2.6488,-2.627,-2.4732,-2.3704,-2.3234,-2.3082,-2.3235,-2.3652,-2.3817,-2.4352,-2.5168,-2.518,-2.5191,-2.5191,-2.5195,-2.5195,-2.5187,-2.5254,-2.5274,-2.5318,-2.546,-2.551,-2.5809,-2.914,-2.8938,-2.889,-2.8825,-2.9077,-2.9547,-3.0374,-3.0772,-3.0985,-3.0985,-3.0966,-3.0369,-2.8768,-2.8587,-2.8587,-2.8587,-2.9318,-2.9497,-2.8748,-2.9457,-2.958,-2.8942,-2.8905,-2.8929,-2.8994,-2.8994,-2.8994,-2.8994,-2.8994,-2.8994,-2.8994,-2.8994,-2.8994,-2.8994,-2.8994,-2.8994,-2.8994,-2.8994,-2.8994,-2.8994,-2.8994,-2.8994,-2.8994,-2.8994,-2.8994,-2.8994,-2.8994,-2.8994,-2.9021,-2.9209,-2.8609,-2.7561,-2.6298,-2.5893,-2.5724,-2.4926,-2.4697,-2.4727,-2.4795,-2.4823,-2.4845,-2.5049,-2.3842,-2.264,-2.2775,-2.1504,-2.0312,-2.0312,-2.0312,-2.0831,-2.2485,-2.2821,-2.3396,-2.5123,-2.6073,-2.692,-2.7778,-2.8627,-2.9197,-2.9214,-2.8521,-2.7865,-2.7466,-2.6864,-2.6703,-2.7191,-2.8074,-2.8976,-2.9836,-2.908,-2.8542,-2.8424,-2.66,-2.5653,-2.5726,-2.4441,-2.3858,-2.3978,-2.3858,-2.4022,-2.4493,-2.4888,-2.5082,-2.5113,-2.5168,-2.5191,-2.5191,-2.5191,-2.5191,-2.5191,-2.5206,-2.5243,-2.5302,-2.5309,-2.5348,-2.5661,-2.9758,-2.9569,-2.9569,-2.9551,-2.9646,-2.9973,-3.0783,-3.1016,-3.108,-3.108,-3.1278,-3.1004,-3.0019,-3.0107,-3.0242,-3.0242,-3.0459,-3.0522,-3.0269,-3.0049,-2.981,-2.958,-2.9132,-2.8905,-2.8929,-2.8994,-2.8994,-2.8994,-2.8994,-2.8994,-2.8994,-2.8994,-2.8994,-2.8994,-2.8994,-2.8994,-2.8994,-2.8994,-2.8994,-2.8994,-2.8994,-2.8994,-2.8994,-2.8994,-2.8994,-2.8994,-2.8994,-2.8994,-2.9017,-2.9067,-2.8883,-2.8452,-2.7495,-2.6447,-2.5431,-2.47,-2.4543,-2.4591,-2.4712,-2.4766,-2.4823,-2.4891,-2.367,-2.246,-2.2464,-2.116,-1.9991,-2.0079,-2.0021,-2.0535,-2.246,-2.2719,-2.3256,-2.5043,-2.5553,-2.6227,-2.7691,-2.8144,-2.869,-2.9685,-2.9518,-2.9189,-2.8923,-2.8188,-2.8022,-2.8726,-2.8573,-2.8619,-2.8998,-2.8625,-2.8406,-2.8405,-2.6617,-2.5653,-2.5634,-2.4634,-2.3897,-2.34,-2.3309,-2.3436,-2.3783,-2.4628,-2.5051,-2.5095,-2.5113,-2.5125,-2.5144,-2.518,-2.5191,-2.5191,-2.5203,-2.5206,-2.5231,-2.5284,-2.5312,-2.5588,-2.9678,-2.9574,-2.9644,-2.9937,-3.0091,-3.0453,-3.122,-3.1428,-3.1547,-3.1547,-3.1711,-3.1696,-3.1221,-3.1367,-3.1303,-3.0844,-3.0955,-3.0903,-3.0599,-3.0431,-3.0237,-2.996,-2.9664,-2.9541,-2.961,-2.9485,-2.9428,-2.9457,-2.914,-2.8994,-2.8994,-2.8994,-2.8994,-2.8994,-2.8994,-2.8994,-2.8994,-2.8994,-2.8994,-2.8994,-2.8994,-2.8994,-2.8994,-2.8994,-2.8994,-2.8994,-2.8994,-2.8994,-2.8994,-2.8994,-2.8994,-2.8847,-2.8044,-2.7108,-2.6103,-2.5078,-2.4579,-2.441,-2.4493,-2.4538,-2.4582,-2.4659,-2.371,-2.2574,-2.1954,-2.101,-2.0191,-1.9966,-2.01,-2.0736,-2.2329,-2.2791,-2.3427,-2.4893,-2.5619,-2.6402,-2.7529,-2.7918,-2.8471,-2.9432,-2.9171,-2.8969,-2.9101,-2.8652,-2.8652,-2.9415,-2.8726,-2.8483,-2.889,-2.8221,-2.7867,-2.7848,-2.6152,-2.5207,-2.5079,-2.4524,-2.3953,-2.3345,-2.3419,-2.3562,-2.3808,-2.4592,-2.4985,-2.5031,-2.5082,-2.5107,-2.5088,-2.5156,-2.5156,-2.5156,-2.518,-2.518,-2.518,-2.5239,-2.5252,-2.5522,-2.92,-2.9127,-2.9364,-3.0074,-3.0443,-3.085,-3.1573,-3.1967,-3.2214,-3.2214,-3.2248,-3.2248,-3.2248,-3.2248,-3.1822,-3.0663,-3.0956,-3.0865,-3.0129,-3.0725,-3.0775,-3.0103,-3.0338,-3.0545,-3.0725,-3.0321,-3.0136,-3.0192,-2.9483,-2.9099,-2.902,-2.902,-2.8983,-2.8929,-2.8952,-2.897,-2.897,-2.9049,-2.9067,-2.9067,-2.914,-2.9122,-2.9085,-2.9067,-2.9049,-2.8994,-2.8994,-2.8994,-2.8994,-2.8994,-2.8994,-2.8865,-2.8117,-2.7842,-2.7475,-2.5954,-2.4905,-2.4282,-2.4284,-2.4228,-2.4248,-2.4422,-2.3878,-2.2887,-2.1398,-2.1061,-2.0854,-2.0106,-2.0546,-2.1324,-2.223,-2.3027,-2.3856,-2.4733,-2.6186,-2.7239,-2.7361,-2.8026,-2.852,-2.8647,-2.7944,-2.7692,-2.8296,-2.8426,-2.869,-2.9258,-2.855,-2.842,-2.9163,-2.7811,-2.6972,-2.6897,-2.5336,-2.4411,-2.4229,-2.421,-2.4096,-2.3858,-2.4115,-2.4284,-2.4424,-2.4734,-2.487,-2.4884,-2.4999,-2.507,-2.5089,-2.5107,-2.5107,-2.5101,-2.5175,-2.5156,-2.5113,-2.5168,-2.518,-2.5432,-3.0666,-3.0666,-3.0717,-3.0903,-3.0997,-3.1125,-3.1295,-3.1406,-3.1466,-3.1466,-3.1694,-3.1823,-3.1823,-3.1823,-3.1721,-3.1428,-3.176,-3.1932,-3.1739,-3.1336,-3.1038,-3.0845,-3.0378,-3.0137,-3.0168,-3.0142,-3.0125,-3.0194,-3.0378,-3.0026,-2.9242,-2.9242,-2.8901,-2.8316,-2.8576,-2.8669,-2.8674,-2.9491,-2.9795,-2.9826,-3.0497,-3.0393,-2.9862,-2.9892,-2.9549,-2.8994,-2.8994,-2.8994,-2.8994,-2.8994,-2.8994,-2.8957,-2.8796,-2.8301,-2.7603,-2.6612,-2.575,-2.5127,-2.5109,-2.4669,-2.421,-2.4266,-2.3656,-2.2805,-2.1821,-2.1618,-2.1581,-2.15,-2.1535,-2.194,-2.3032,-2.378,-2.4588,-2.5555,-2.655,-2.7417,-2.8053,-2.8299,-2.8625,-2.9158,-2.9027,-2.8932,-2.8973,-2.8992,-2.8804,-2.8373,-2.8135,-2.7859,-2.7451,-2.6544,-2.6302,-2.6879,-2.5336,-2.4482,-2.4429,-2.4429,-2.4393,-2.4339,-2.4445,-2.4513,-2.4564,-2.4578,-2.4642,-2.4753,-2.4731,-2.4804,-2.4959,-2.5057,-2.5101,-2.5101,-2.5114,-2.5095,-2.5095,-2.5126,-2.5126,-2.5367,-3.1112,-3.1112,-3.1112,-3.119,-3.119,-3.119,-3.119,-3.119,-3.119,-3.119,-3.1351,-3.1449,-3.1449,-3.1449,-3.1449,-3.1449,-3.1657,-3.1804,-3.1804,-3.1405,-3.1145,-3.1145,-3.0907,-3.0801,-3.0817,-3.0683,-3.0459,-3.0194,-3.0469,-3.0313,-2.9804,-2.9804,-2.9572,-2.9144,-2.9331,-2.9404,-2.9412,-2.9981,-3.0288,-3.0377,-3.0695,-3.065,-3.0412,-3.0225,-3.0051,-2.9824,-2.9416,-2.9387,-2.9494,-2.9104,-2.8994,-2.8994,-2.8994,-2.8705,-2.8264,-2.7842,-2.6869,-2.586,-2.5513,-2.5072,-2.4651,-2.4283,-2.386,-2.3345,-2.2518,-2.2354,-2.2261,-2.1959,-2.2148,-2.2645,-2.3628,-2.441,-2.5208,-2.6135,-2.6954,-2.7624,-2.811,-2.8147,-2.8257,-2.866,-2.8381,-2.8137,-2.807,-2.8088,-2.7925,-2.7481,-2.7075,-2.6836,-2.68,-2.5709,-2.5486,-2.634,-2.5114,-2.4411,-2.4357,-2.421,-2.421,-2.4357,-2.4339,-2.441,-2.4549,-2.4442,-2.4441,-2.4526,-2.454,-2.4623,-2.4719,-2.4931,-2.4959,-2.4931,-2.5044,-2.5057,-2.5018,-2.5089,-2.533,-2.5844,-3.0975,-3.0975,-3.1032,-3.1151,-3.119,-3.119,-3.119,-3.119,-3.119,-3.119,-3.119,-3.119,-3.119,-3.119,-3.119,-3.119,-3.119,-3.119,-3.119,-3.119,-3.119,-3.119,-3.1449,-3.164,-3.1696,-3.1446,-3.0981,-3.036,-3.0472,-3.0451,-3.0442,-3.0442,-3.0371,-3.0264,-3.0325,-3.0325,-3.0325,-3.051,-3.0683,-3.0848,-3.0653,-3.0665,-3.0819,-3.0455,-3.0517,-3.0702,-2.998,-2.9888,-3.0009,-2.935,-2.9062,-2.8994,-2.8994,-2.8994,-2.8994,-2.8994,-2.8022,-2.6796,-2.597,-2.5586,-2.5219,-2.4392,-2.419,-2.4025,-2.3345,-2.318,-2.2997,-2.2299,-2.2703,-2.3437,-2.4226,-2.5034,-2.5841,-2.6649,-2.7457,-2.8011,-2.8073,-2.7901,-2.7827,-2.7889,-2.7175,-2.6677,-2.6677,-2.6737,-2.672,-2.6591,-2.5908,-2.5762,-2.6393,-2.5134,-2.4727,-2.5449,-2.4764,-2.4321,-2.4173,-2.3899,-2.3899,-2.4173,-2.4037,-2.4153,-2.4411,-2.4265,-2.4229,-2.4265,-2.4373,-2.4408,-2.4459,-2.4719,-2.4783,-2.4692,-2.4931,-2.4959,-2.487,-2.5004,-2.5544,-2.636,-3.0912,-3.0935,-3.1015,-3.1015,-3.1112,-3.119,-3.119,-3.119,-3.119,-3.119,-3.119,-3.119,-3.119,-3.119,-3.119,-3.119,-3.119,-3.119,-3.119,-3.119,-3.119,-3.119,-3.1269,-3.1291,-3.1291,-3.1556,-3.1528,-3.111,-3.1655,-3.1411,-3.0507,-3.0577,-3.03,-2.9658,-2.9954,-3.0036,-3.0024,-3.0928,-3.1257,-3.1197,-3.1933,-3.1777,-3.1126,-3.1239,-3.0876,-3.0315,-3.0285,-3.005,-2.9743,-2.9616,-2.9314,-2.8994,-2.8994,-2.8994,-2.8994,-2.8994,-2.881,-2.8466,-2.764,-2.645,-2.5219,-2.4392,-2.419,-2.4171,-2.4043,-2.4006,-2.3969,-2.3841,-2.3933,-2.4263,-2.5072,-2.586,-2.6686,-2.7475,-2.8301,-2.8833,-2.8833,-2.8246,-2.7787,-2.7809,-2.7111,-2.6633,-2.6633,-2.6615,-2.634,-2.568,-2.5536,-2.5262,-2.4727,-2.4505,-2.4413,-2.4432,-2.4303,-2.4172,-2.4036,-2.3996,-2.3996,-2.4036,-2.4016,-2.4036,-2.4075,-2.3881,-2.3899,-2.4037,-2.4018,-2.4058,-2.4174,-2.4442,-2.4545,-2.4545,-2.4707,-2.4753,-2.4738,-2.4753,-2.5261,-2.6105,-3.079,-3.0871,-3.0912,-3.0975,-3.1112,-3.119,-3.119,-3.119,-3.119,-3.119,-3.119,-3.119,-3.119,-3.119,-3.119,-3.119,-3.119,-3.119,-3.119,-3.119,-3.119,-3.119,-3.119,-3.119,-3.119,-3.1389,-3.1411,-3.1295,-3.1582,-3.1465,-3.1025,-3.1136,-3.1003,-3.0659,-3.0872,-3.0942,-3.0959,-3.1446,-3.1689,-3.1741,-3.1934,-3.1864,-3.1602,-3.1411,-3.1289,-3.1124,-3.0738,-3.0637,-3.0539,-2.9753,-2.9421,-2.9307,-2.8895,-2.8881,-2.8952,-2.8834,-2.8571,-2.8282,-2.7897,-2.6612,-2.5311,-2.4944,-2.452,-2.419,-2.419,-2.419,-2.419,-2.419,-2.419,-2.4575,-2.5823,-2.6355,-2.7016,-2.8264,-2.8778,-2.8994,-2.8994,-2.8319,-2.764,-2.7218,-2.6429,-2.5768,-2.5346,-2.5309,-2.5104,-2.4561,-2.4563,-2.4379,-2.3899,-2.3901,-2.3901,-2.3881,-2.4018,-2.3978,-2.3728,-2.3732,-2.3692,-2.361,-2.3692,-2.3795,-2.3896,-2.3774,-2.3735,-2.3837,-2.3816,-2.3837,-2.3901,-2.4174,-2.4266,-2.4266,-2.4495,-2.4543,-2.4547,-2.5129,-2.5806,-2.6559,-3.03,-3.0468,-3.0651,-3.0757,-3.0975,-3.1151,-3.1151,-3.119,-3.119,-3.119,-3.119,-3.119,-3.119,-3.119,-3.119,-3.119,-3.119,-3.119,-3.119,-3.119,-3.119,-3.119,-3.119,-3.119,-3.119,-3.119,-3.123,-3.1274,-3.1295,-3.1351,-3.1462,-3.1521,-3.1596,-3.1596,-3.1671,-3.1726,-3.1726,-3.1763,-3.1856,-3.2018,-3.1668,-3.1634,-3.1787,-3.1389,-3.1487,-3.1754,-3.1183,-3.1165,-3.1172,-2.9869,-2.9515,-2.9476,-2.8709,-2.8626,-2.8749,-2.8533,-2.8173,-2.7848,-2.7798,-2.6759,-2.5621,-2.5438,-2.4777,-2.419,-2.419,-2.419,-2.419,-2.419,-2.4151,-2.4608,-2.6279,-2.6551,-2.7021,-2.8649,-2.8805,-2.8677,-2.8542,-2.7748,-2.6911,-2.6224,-2.5421,-2.4691,-2.4071,-2.4016,-2.3917,-2.3714,-2.3714,-2.3649,-2.3522,-2.35,-2.3522,-2.3522,-2.3714,-2.3707,-2.3412,-2.3422,-2.3359,-2.3248,-2.3364,-2.3495,-2.3646,-2.3584,-2.3562,-2.3562,-2.3584,-2.3602,-2.3624,-2.3901,-2.4089,-2.4249,-2.4543,-2.4709,-2.4857,-2.5689,-2.6451,-2.7154,-2.9212,-2.9661,-3.0054,-3.0054,-3.0593,-3.1015,-3.1015,-3.1112,-3.119,-3.119,-3.119,-3.119,-3.119,-3.119,-3.119,-3.119,-3.119,-3.119,-3.119,-3.119,-3.119,-3.119,-3.119,-3.119,-3.119,-3.119,-3.119,-3.119,-3.1274,-3.1295,-3.1295,-3.1462,-3.1517,-3.1517,-3.1517,-3.1517,-3.1517,-3.1596,-3.1596,-3.1555,-3.1517,-3.1445,-3.1334,-3.1295,-3.1334,-3.1355,-3.1511,-3.1268,-3.0817,-3.0162,-2.9655,-2.9173,-2.8379,-2.8156,-2.8156,-2.8156,-2.8121,-2.8012,-2.7765,-2.712,-2.6316,-2.5502,-2.4756,-2.419,-2.419,-2.419,-2.419,-2.419,-2.3996,-2.4408,-2.6258,-2.6385,-2.6758,-2.8372,-2.8218,-2.7725,-2.723,-2.6015,-2.5091,-2.4771,-2.405,-2.3531,-2.3459,-2.3459,-2.3437,-2.3414,-2.3414,-2.3437,-2.35,-2.35,-2.3455,-2.3323,-2.3346,-2.3271,-2.3126,-2.3126,-2.3126,-2.3102,-2.3126,-2.3126,-2.3151,-2.3151,-2.3151,-2.3151,-2.3289,-2.3336,-2.3342,-2.3624,-2.4165,-2.4852,-2.5066,-2.5546,-2.6162,-2.6257,-2.6808,-2.7584,-2.9074,-2.912,-2.9196,-2.9435,-2.9569,-2.9701,-2.9995,-3.0393,-3.0658,-3.0658,-3.0975,-3.119,-3.119,-3.119,-3.119,-3.119,-3.119,-3.1072,-3.0781,-3.1055,-3.119,-3.119,-3.119,-3.119,-3.119,-3.119,-3.119,-3.119,-3.123,-3.1252,-3.1252,-3.1329,-3.1368,-3.1368,-3.1462,-3.1517,-3.1517,-3.1538,-3.15,-3.1479,-3.1406,-3.1351,-3.1295,-3.1235,-3.1252,-3.1252,-3.1389,-3.1298,-3.107,-3.0437,-3.0246,-3.0004,-2.8754,-2.8529,-2.8642,-2.8217,-2.7964,-2.7844,-2.7817,-2.7302,-2.6518,-2.5745,-2.4936,-2.4217,-2.3801,-2.3692,-2.3692,-2.3692,-2.361,-2.3929,-2.5136,-2.5288,-2.5584,-2.6759,-2.6742,-2.6543,-2.6348,-2.5404,-2.4705,-2.4611,-2.3897,-2.3392,-2.3392,-2.3392,-2.3341,-2.3212,-2.3212,-2.314,-2.3017,-2.2993,-2.2993,-2.2917,-2.2917,-2.2935,-2.2995,-2.2995,-2.2927,-2.285,-2.2944,-2.2995,-2.2995,-2.307,-2.3095,-2.3102,-2.3151,-2.3432,-2.3897,-2.41,-2.4652,-2.5348,-2.5654,-2.5927,-2.6253,-2.6881,-2.724,-2.7489,-2.8606,-2.8559,-2.8591,-2.8888,-2.8919,-2.9027,-2.93,-2.9717,-3.0038,-3.0064,-3.0559,-3.0918,-3.0975,-3.1112,-3.119,-3.119,-3.1055,-3.0838,-3.0518,-3.0658,-3.0878,-3.119,-3.119,-3.119,-3.119,-3.119,-3.119,-3.119,-3.119,-3.119,-3.119,-3.1252,-3.1274,-3.1274,-3.1346,-3.1402,-3.1402,-3.1423,-3.1462,-3.1423,-3.1351,-3.1295,-3.1295,-3.123,-3.119,-3.123,-3.1274,-3.1295,-3.1193,-3.0609,-3.0535,-3.0438,-2.9142,-2.8781,-2.8732,-2.8264,-2.7877,-2.76,-2.7654,-2.7251,-2.6729,-2.6118,-2.5179,-2.4258,-2.3798,-2.3524,-2.3369,-2.3369,-2.3341,-2.3567,-2.4444,-2.4539,-2.4782,-2.5625,-2.5586,-2.5426,-2.525,-2.4601,-2.4087,-2.4014,-2.3512,-2.3177,-2.3177,-2.3177,-2.3122,-2.2977,-2.2952,-2.2876,-2.2712,-2.2712,-2.2712,-2.2712,-2.2712,-2.2738,-2.2842,-2.2842,-2.279,-2.2712,-2.279,-2.2842,-2.2842,-2.2944,-2.2952,-2.2995,-2.302,-2.3465,-2.4165,-2.4337,-2.5006,-2.595,-2.616,-2.643,-2.6792,-2.7482,-2.7655,-2.7661,-2.7625,-2.7978,-2.8288,-2.8288,-2.8779,-2.9194,-2.9194,-2.93,-2.9451,-2.9585,-2.9978,-3.0335,-3.0477,-3.0918,-3.119,-3.119,-3.074,-3.0477,-3.0477,-3.0054,-3.0182,-3.1151,-3.119,-3.119,-3.119,-3.119,-3.119,-3.119,-3.119,-3.119,-3.119,-3.119,-3.119,-3.119,-3.119,-3.119,-3.119,-3.1274,-3.1295,-3.1295,-3.1295,-3.1295,-3.1295,-3.123,-3.119,-3.123,-3.1274,-3.1295,-3.1193,-3.0626,-3.0404,-3.025,-2.9467,-2.8733,-2.8202,-2.8202,-2.7753,-2.7282,-2.7152,-2.7055,-2.6948,-2.6678,-2.5456,-2.43,-2.43,-2.3797,-2.33,-2.33,-2.3188,-2.3404,-2.4397,-2.4435,-2.454,-2.5253,-2.4938,-2.4399,-2.3853,-2.3371,-2.2995,-2.2738,-2.2712,-2.2712,-2.2712,-2.2712,-2.2712,-2.2712,-2.2712,-2.2712,-2.2712,-2.2712,-2.2712,-2.2712,-2.2712,-2.2712,-2.2712,-2.2712,-2.2712,-2.2712,-2.2712,-2.2712,-2.2712,-2.2712,-2.2712,-2.2729,-2.2859,-2.3328,-2.4023,-2.4156,-2.5164,-2.663,-2.6613,-2.7201,-2.8014,-2.8014,-2.8071,-2.82,-2.7625,-2.771,-2.7795,-2.7795,-2.7978,-2.8061,-2.8061,-2.8448,-2.8779,-2.8826,-2.9316,-2.9673,-2.9717,-2.9935,-3.0064,-3.0064,-3.0054,-3.0011,-3.0011,-2.9572,-2.9572,-3.0182,-3.0535,-3.0699,-3.0699,-3.0699,-3.0535,-3.0241,-3.0535,-3.0699,-3.0699,-3.1055,-3.119,-3.119,-3.119,-3.119,-3.119,-3.123,-3.1213,-3.1213,-3.1213,-3.1213,-3.123,-3.119,-3.119,-3.119,-3.1213,-3.1213,-3.1179,-3.1014,-3.0946,-3.0849,-3.0122,-2.9072,-2.8084,-2.8118,-2.7621,-2.7089,-2.704,-2.6975,-2.6804,-2.6255,-2.5687,-2.5004,-2.404,-2.3636,-2.3352,-2.2859,-2.2747,-2.2859,-2.3128,-2.3154,-2.3188,-2.3466,-2.3319,-2.3154,-2.3039,-2.2902,-2.279,-2.2712,-2.2712,-2.2712,-2.2712,-2.2712,-2.2712,-2.2712,-2.2712,-2.2712,-2.2712,-2.2712,-2.2712,-2.2712,-2.2712,-2.2712,-2.2712,-2.2712,-2.2712,-2.2712,-2.2712,-2.2712,-2.2729,-2.3219,-2.346,-2.3522,-2.4102,-2.4787,-2.5478,-2.5669,-2.6318,-2.7255,-2.7356,-2.7537,-2.7806,-2.7806,-2.7818,-2.7864,-2.7625,-2.7625,-2.7625,-2.7625,-2.7625,-2.7625,-2.7625,-2.791,-2.814,-2.8204,-2.8685,-2.9042,-2.9134,-2.9361,-2.954,-2.954,-2.9467,-2.9364,-2.9166,-2.8951,-2.9044,-2.9483,-2.9777,-3.0038,-3.0225,-3.0225,-3.0097,-2.9793,-3.0097,-3.0225,-3.0225,-3.0493,-3.0757,-3.0918,-3.0918,-3.1015,-3.119,-3.119,-3.119,-3.119,-3.119,-3.119,-3.119,-3.119,-3.119,-3.119,-3.119,-3.119,-3.119,-3.119,-3.119,-3.1123,-3.0726,-2.9797,-2.8796,-2.8578,-2.7998,-2.7383,-2.7093,-2.6959,-2.6807,-2.6413,-2.5975,-2.5351,-2.4207,-2.3755,-2.3346,-2.2613,-2.2515,-2.2569,-2.2569,-2.2569,-2.2579,-2.2605,-2.2596,-2.2579,-2.2659,-2.2659,-2.2659,-2.2659,-2.2685,-2.2685,-2.2659,-2.2685,-2.2712,-2.2712,-2.2712,-2.2712,-2.2712,-2.2712,-2.2712,-2.2712,-2.2712,-2.2712,-2.2712,-2.2605,-2.2579,-2.2579,-2.2659,-2.2659,-2.2596,-2.3123,-2.3512,-2.3822,-2.4287,-2.5126,-2.6109,-2.6246,-2.6727,-2.7421,-2.7369,-2.7461,-2.763,-2.7491,-2.7565,-2.7701,-2.7625,-2.7625,-2.7625,-2.7625,-2.7625,-2.7625,-2.7625,-2.7625,-2.7625,-2.779,-2.8155,-2.8463,-2.8591,-2.8996,-2.9271,-2.9271,-2.8982,-2.8637,-2.8235,-2.8299,-2.8573,-2.8997,-2.9044,-2.9212,-2.9677,-2.9705,-2.9705,-2.9661,-2.9705,-2.975,-2.975,-2.9793,-3.0011,-3.0435,-3.0435,-3.0658,-3.1055,-3.1055,-3.1112,-3.1151,-3.1095,-3.1112,-3.1151,-3.1095,-3.1112,-3.1151,-3.1151,-3.1151,-3.119,-3.119,-3.119,-3.119,-3.119,-3.076,-3.0071,-2.9372,-2.8713,-2.8015,-2.7282,-2.7044,-2.6978,-2.691,-2.6283,-2.5507,-2.4763,-2.413,-2.3464,-2.2734,-2.2586,-2.259,-2.259,-2.2538,-2.2487,-2.2515,-2.2487,-2.2515,-2.2579,-2.2579,-2.2579,-2.2579,-2.2632,-2.2659,-2.2596,-2.2659,-2.2685,-2.2685,-2.2685,-2.2685,-2.2685,-2.2685,-2.2685,-2.2685,-2.2685,-2.2712,-2.2712,-2.2515,-2.2405,-2.2405,-2.2552,-2.2552,-2.2377,-2.2689,-2.3227,-2.3863,-2.4001,-2.489,-2.6212,-2.6212,-2.6626,-2.7218,-2.694,-2.7053,-2.7355,-2.7135,-2.7258,-2.7535,-2.7625,-2.7625,-2.7625,-2.7625,-2.7625,-2.7625,-2.7625,-2.7625,-2.7625,-2.7625,-2.7825,-2.7925,-2.786,-2.8122,-2.8268,-2.8155,-2.8171,-2.8186,-2.8186,-2.8235,-2.8332,-2.8525,-2.8525,-2.8621,-2.8716,-2.9044,-2.9044,-2.87,-2.9044,-2.9257,-2.9257,-2.9617,-2.9837,-2.9968,-2.9968,-3.0011,-3.0097,-3.0097,-3.0309,-3.0601,-3.0267,-3.0309,-3.0617,-3.0225,-3.0309,-3.0642,-3.0642,-3.0878,-3.119,-3.119,-3.119,-3.119,-3.119,-3.0683,-3.0112,-2.9942,-2.9367,-2.864,-2.7981,-2.7708,-2.7487,-2.7029,-2.6673,-2.6268,-2.5524,-2.5236,-2.4946,-2.4201,-2.3633,-2.3283,-2.3283,-2.2824,-2.2432,-2.2487,-2.246,-2.2432,-2.2515,-2.2515,-2.2515,-2.2515,-2.2525,-2.2542,-2.2525,-2.2579,-2.2605,-2.2605,-2.2605,-2.2605,-2.2605,-2.2605,-2.2605,-2.2605,-2.2659,-2.2712,-2.2712,-2.2515,-2.2405,-2.2405,-2.2215,-2.2113,-2.2135,-2.3341,-2.4086,-2.4471,-2.5647,-2.649,-2.704,-2.704,-2.6982,-2.6891,-2.6825,-2.6708,-2.6624,-2.659,-2.6607,-2.6674,-2.7625,-2.7625,-2.7625,-2.7625,-2.7625,-2.7625,-2.7625,-2.7625,-2.7625,-2.7625,-2.7675,-2.7675,-2.7625,-2.774,-2.779,-2.7725,-2.784,-2.794,-2.7989,-2.8039,-2.8152,-2.8299,-2.8299,-2.8348,-2.8411,-2.8653,-2.8668,-2.8411,-2.8668,-2.8795,-2.8795,-2.9013,-2.9273,-2.9483,-2.9483,-2.9572,-2.9793,-2.9793,-2.9924,-3.014,-2.9881,-2.9968,-3.014,-2.9881,-2.9968,-3.0182,-3.0182,-3.0477,-3.0878,-3.0878,-3.1015,-3.1151,-3.0935,-3.061,-3.0162,-2.9596,-2.9135,-2.871,-2.798,-2.7627,-2.737,-2.7073,-2.6859,-2.6505,-2.5778,-2.5609,-2.5389,-2.4644,-2.4201,-2.3858,-2.3519,-2.3129,-2.2756,-2.2473,-2.2394,-2.2394,-2.2432,-2.246,-2.246,-2.246,-2.2487,-2.2515,-2.2515,-2.2542,-2.2569,-2.2569,-2.2569,-2.2497,-2.2326,-2.2298,-2.2243,-2.2084,-2.2113,-2.2113,-2.2113,-2.1911,-2.1947,-2.2311,-2.2428,-2.2458,-2.2372,-2.3629,-2.4458,-2.4987,-2.5763,-2.637,-2.6892,-2.7023,-2.6875,-2.6607,-2.6607,-2.6505,-2.6383,-2.6243,-2.6208,-2.6225,-2.7625,-2.7625,-2.7625,-2.7625,-2.7625,-2.7625,-2.7625,-2.7625,-2.7625,-2.7625,-2.7625,-2.7625,-2.7625,-2.7625,-2.7625,-2.7625,-2.7675,-2.779,-2.779,-2.7905,-2.8005,-2.8137,-2.8186,-2.8201,-2.8314,-2.8314,-2.8348,-2.8411,-2.8411,-2.8411,-2.8411,-2.8411,-2.8621,-2.8997,-2.8997,-2.9182,-2.9544,-2.9544,-2.9633,-2.9661,-2.9572,-2.9617,-2.9661,-2.9572,-2.9617,-2.9661,-2.9661,-2.9968,-3.0393,-3.0393,-3.0658,-3.0878,-3.0518,-3.0393,-3.0178,-2.9193,-2.8903,-2.8715,-2.8003,-2.7613,-2.729,-2.7043,-2.6842,-2.6505,-2.5848,-2.5729,-2.5609,-2.4983,-2.4715,-2.4382,-2.3793,-2.3425,-2.3026,-2.2466,-2.2293,-2.2237,-2.2366,-2.2377,-2.2377,-2.2377,-2.2432,-2.246,-2.246,-2.2487,-2.2487,-2.2487,-2.2487,-2.2332,-2.1998,-2.1998,-2.1823,-2.1493,-2.1477,-2.1542,-2.1657,-2.1422,-2.1665,-2.2372,-2.2981,-2.306,-2.2769,-2.3687,-2.4531,-2.5179,-2.5295,-2.5763,-2.6418,-2.6657,-2.659,-2.6314,-2.6314,-2.6314,-2.626,-2.601,-2.5917,-2.5917,-2.7625,-2.7625,-2.7625,-2.7625,-2.7625,-2.7625,-2.7625,-2.7625,-2.7625,-2.7625,-2.7675,-2.774,-2.7625,-2.7625,-2.7625,-2.7625,-2.7625,-2.7675,-2.779,-2.784,-2.7905,-2.8005,-2.8005,-2.8069,-2.8054,-2.8054,-2.8168,-2.8411,-2.8411,-2.8411,-2.8411,-2.8411,-2.8444,-2.8493,-2.8493,-2.8541,-2.8589,-2.8589,-2.8826,-2.9166,-2.8748,-2.8826,-2.9166,-2.8748,-2.8826,-2.9212,-2.9212,-2.9483,-2.9881,-2.9881,-2.9924,-2.9968,-2.9924,-2.9881,-2.9865,-2.968,-2.9648,-2.9502,-2.8731,-2.8514,-2.8167,-2.6902,-2.6552,-2.6423,-2.612,-2.6285,-2.6522,-2.642,-2.5598,-2.4895,-2.4796,-2.3506,-2.2491,-2.271,-2.2242,-2.1991,-2.2265,-2.231,-2.231,-2.231,-2.231,-2.2338,-2.2338,-2.2394,-2.2405,-2.2405,-2.2405,-2.2276,-2.1928,-2.1911,-2.1764,-2.1417,-2.1462,-2.1771,-2.236,-2.215,-2.2388,-2.3061,-2.3558,-2.3453,-2.281,-2.3597,-2.4221,-2.4713,-2.5386,-2.5931,-2.6418,-2.6453,-2.6279,-2.6046,-2.6046,-2.5917,-2.5712,-2.5675,-2.5637,-2.5637,-2.7625,-2.7625,-2.7625,-2.7625,-2.7625,-2.7625,-2.7625,-2.7625,-2.7625,-2.7625,-2.7625,-2.7675,-2.7625,-2.7625,-2.7625,-2.7625,-2.7625,-2.7625,-2.7675,-2.7675,-2.774,-2.7905,-2.7905,-2.7905,-2.802,-2.802,-2.8069,-2.8168,-2.8168,-2.8201,-2.8299,-2.8299,-2.8348,-2.8411,-2.8411,-2.8348,-2.8299,-2.8299,-2.8429,-2.859,-2.8381,-2.8477,-2.87,-2.8493,-2.8541,-2.87,-2.87,-2.8997,-2.9393,-2.9393,-2.9572,-2.975,-2.9483,-2.9393,-2.9348,-2.909,-2.9013,-2.895,-2.8635,-2.8437,-2.8152,-2.7487,-2.6928,-2.6474,-2.6357,-2.6167,-2.6175,-2.6624,-2.6099,-2.5473,-2.5076,-2.4158,-2.3398,-2.3127,-2.2524,-2.213,-2.2271,-2.1986,-2.1751,-2.1751,-2.1751,-2.1751,-2.1751,-2.1781,-2.1781,-2.1781,-2.1781,-2.1645,-2.1308,-2.1293,-2.1119,-2.0778,-2.1191,-2.1523,-2.1824,-2.2114,-2.2608,-2.3262,-2.346,-2.3521,-2.3443,-2.4191,-2.4608,-2.4852,-2.5287,-2.5605,-2.5828,-2.6082,-2.601,-2.577,-2.5954,-2.586,-2.5578,-2.5448,-2.541,-2.541]},{"header":{"parameterUnit":"m.s-1","parameterCategory":1,"la1":30.6,"la2":28.766,"lo1":-90.7593,"lo2":-88.6598,"dy":0.0162,"dx":0.0183,"nx":116,"ny":114,"refTime":"2024-06-19T06:00:00:Z","depth":0,"parameterNumber":3,"parameterNumberName":"V-component_of_WINDS"},"data":[0.0,0.0,0.0,0.0,0.0,0.0,0.0,0.0,0.0,0.0,0.0,0.0,0.0,0.0,0.0,0.0,0.0,0.0,0.0,0.0,0.0,0.0,0.0,0.0,0.0,0.0,0.0,0.0,0.0,0.0,0.0,0.0,0.0,0.0,0.0,0.0,0.0,0.0,0.0,0.0,0.0,0.0,0.0,0.0,0.0,0.0,0.0,0.0,0.0,0.0,0.0,0.0,0.0,0.0,0.0,0.0,0.0,0.0,0.0,0.0,0.0,0.0,0.0,0.0,0.0,0.0,0.0,0.0,0.0,0.0,0.0,0.0,0.0,0.0,0.0,0.0,0.0,0.0,0.0,0.0,0.0,0.0,0.0,0.0,0.0,0.0,0.0,0.0,0.0,0.0,0.0,0.0,0.0,0.0,0.0,0.0,0.0,0.0,0.0,0.0,0.0,0.0,0.0,0.0,0.0,0.0,0.0,0.0,0.0,0.0,0.0,0.0,0.0,0.0,0.0,0.0,0.0,0.0,0.0,0.0,0.0,0.0,0.0,0.0,0.0,0.0,0.0,0.0,0.0,0.0,0.0,0.0,0.0,0.0,0.0,0.0,0.0,0.0,0.0,0.0,0.0,0.0,0.0,0.0,0.0,0.0,0.0,0.0,0.0,0.0,0.0,0.0,0.0,0.0,0.0,0.0,0.0,0.0,0.0,0.0,0.0,0.0,0.0,0.0,0.0,0.0,0.0,0.0,0.0,0.0,0.0,0.0,0.0,0.0,0.0,0.0,0.0,0.0,0.0,0.0,0.0,0.0,0.0,0.0,0.0,0.0,0.0,0.0,0.0,0.0,0.0,0.0,0.0,0.0,0.0,0.0,0.0,0.0,0.0,0.0,0.0,0.0,0.0,0.0,0.0,0.0,0.0,0.0,0.0,0.0,0.0,0.0,0.0,0.0,0.0,0.0,0.0,0.0,0.0,0.0,0.0,0.0,0.0,0.0,0.0,0.0,0.0,0.0,0.0,0.0,0.0,0.0,0.0,0.0,0.0,0.0,0.0,0.0,0.0,0.0,0.0,0.0,0.0,0.0,0.0,0.0,0.0,0.0,0.0,0.0,0.0,0.0,0.0,0.0,0.0,0.0,0.0,0.0,0.0,0.0,0.0,0.0,0.0,0.0,0.0,0.0,0.0,0.0,0.0,0.0,0.0,0.0,0.0,0.0,0.0,0.0,0.0,0.0,0.0,0.0,0.0,0.0,0.0,0.0,0.0,0.0,0.0,0.0,0.0,0.0,0.0,0.0,0.0,0.0,0.0,0.0,0.0,0.0,0.0,0.0,0.0,0.0,0.0,0.0,0.0,0.0,0.0,0.0,0.0,0.0,0.0,0.0,0.0,0.0,0.0,0.0,0.0,0.0,0.0,0.0,0.0,0.0,0.0,0.0,0.0,0.0,0.0,0.0,0.0,0.0,0.0,0.0,0.0,0.0,0.0,0.0,0.0,0.0,0.0,0.0,0.0,0.0,0.0,0.0,0.0,0.0,0.0,0.0,0.0,0.0,0.0,0.0,0.0,0.0,0.0,0.0,0.0,0.0,0.0,0.0,0.0,0.0,0.0,0.0,0.0,0.0,0.0,0.0,0.0,0.0,0.0,0.0,0.0,0.0,0.0,0.0,0.0,0.0,0.0,0.0,0.0,0.0,0.0,0.0,0.0,0.0,0.0,0.0,0.0,0.0,0.0,0.0,0.0,0.0,0.0,0.0,0.0,0.0,0.0,0.0,0.0,0.0,0.0,0.0,0.0,0.0,0.0,0.0,0.0,0.0,0.0,0.0,0.0,0.0,0.0,0.0,0.0,0.0,0.0,0.0,0.0,0.0,0.0,0.0,0.0,0.0,0.0,0.0,0.0,0.0,0.0,0.0,0.0,0.0,0.0,0.0,0.0,0.0,0.0,0.0,0.0,0.0,0.0,0.0,0.0,0.0,0.0,0.0,0.0,0.0,0.0,0.0,0.0,0.0,0.0,0.0,0.0,0.0,0.0,0.0,0.0,0.0,0.0,0.0,0.0,0.0,0.0,0.0,0.0,0.0,0.0,0.0,0.0,0.0,0.0,0.0,0.0,0.0,0.0,0.0,0.0,0.0,0.0,0.0,0.0,0.0,0.0,0.0,0.0,0.0,0.0,0.0,0.0,0.0,0.0,0.0,0.0,0.0,0.0,0.0,0.0,0.0,0.0,0.0,0.0,0.0,0.0,0.0,0.0,0.0,0.0,0.0,0.0,0.0,0.0,0.0,0.0,0.0,0.0,0.0,0.0,0.0,0.0,0.0,0.0,0.0,0.0,0.0,0.0,0.0,0.0,0.0,0.0,0.0,0.0,0.0,0.0,0.0,0.0,0.0,0.0,0.0,0.0,0.0,0.0,0.0,0.0,0.0,0.0,0.0,0.0,0.0,0.0,0.0,0.0,0.0,0.0,0.0,0.0,0.0,0.0,0.0,0.0,0.0,0.0,0.0,0.0,0.0,0.0,0.0,0.0,0.0,0.0,0.0,0.0,0.0,0.0,0.0,0.0,0.0,0.0,0.0,0.0,0.0,0.0,0.0,0.0,0.0,0.0,0.0,0.0,0.0,0.0,0.0,0.0,0.0,0.0,0.0,0.0,0.0,0.0,0.0,0.0,0.0,0.0,0.0,0.0,0.0,0.0,0.0,0.0,0.0,0.0,0.0,0.0,0.0,0.0,0.0,0.0,0.0,0.0,0.0,0.0,0.0,0.0,0.0,0.0,0.0,0.0,0.0,0.0,0.0,0.0,0.0,0.0,0.0,0.0,0.0,0.0,0.0,0.0,0.0,0.0,0.0,0.0,0.0,0.0,0.0,0.0,0.0,0.0,0.0,0.0,0.0,0.0,0.0,0.0,0.0,0.0,0.0,0.0,0.0,0.0,0.0,0.0,0.0,0.0,0.0,0.0,0.0,0.0,0.0,0.0,0.0,0.0,0.0,0.0,0.0,0.0,0.0,0.0,0.0,0.0,0.0,0.0,0.0,0.0,0.0,0.0,0.0,0.0,0.0,0.0,0.0,0.0,0.0,0.0,0.0,0.0,0.0,0.0,0.0,0.0,0.0,0.0,0.0,0.0,0.0,0.0,0.0,0.0,0.0,0.0,0.0,0.0,0.0,0.0,0.0,0.0,0.0,0.0,0.0,0.0,0.0,0.0,0.0,0.0,0.0,0.0,0.0,0.0,0.0,0.0,0.0,0.0,0.0,0.0,0.0,0.0,0.0,0.0,0.0,0.0,0.0,0.0,0.0,0.0,0.0,0.0,0.0,0.0,0.0,0.0,0.0,0.0,0.0,0.0,0.0,0.0,0.0,0.0,0.0,0.0,0.0,0.0,0.0,0.0,0.0,0.0,0.0,0.0,0.0,0.0,0.0,0.0,0.0,0.0,0.0,0.0,0.0,0.0,0.0,0.0,0.0,0.0,0.0,0.0,0.0,0.0,0.0,0.0,0.0,0.0,0.0,0.0,0.0,0.0,0.0,0.0,0.0,0.0,0.0,0.0,0.0,0.0,0.0,0.0,0.0,0.0,0.0,0.0,0.0,0.0,0.0,0.0,0.0,0.0,0.0,0.0,0.0,0.0,0.0,0.0,0.0,0.0,0.0,0.0,0.0,0.0,0.0,0.0,0.0,0.0,0.0,0.0,0.0,0.0,0.0,0.0,0.0,0.0,0.0,0.0,0.0,0.0,0.0,0.0,0.0,0.0,0.0,0.0,0.0,0.0,0.0,0.0,0.0,0.0,0.0,0.0,0.0,0.0,0.0,0.0,0.0,0.0,0.0,0.0,0.0,0.0,0.0,0.0,0.0,0.0,0.0,0.0,0.0,0.0,0.0,0.0,0.0,0.0,0.0,0.0,0.0,0.0,0.0,0.0,0.0,0.0,0.0,0.0,0.0,0.0,0.0,0.0,0.0,0.0,0.0,0.0,0.0,0.0,0.0,0.0,0.0,0.0,0.0,0.0,0.0,0.0,0.0,0.0,0.0,0.0,0.0,0.0,0.0,0.0,0.0,0.0,0.0,0.0,0.0,0.0,0.0,0.0,0.0,0.0,0.0,0.0,0.0,0.0,0.0,0.0,0.0,0.0,0.0,0.0,0.0,0.0,0.0,0.0,0.0,0.0,0.0,0.0,0.0,0.0,0.0,0.0,0.0,0.0,0.0,0.0,0.0,0.0,0.0,0.0,0.0,0.0,0.0,0.0,0.0,0.0,0.0,0.0,0.0,0.0,0.0,0.0,0.0,0.0,0.0,0.0,0.0,0.0,0.0,0.0,0.0,0.0,0.0,0.0,0.0,0.0,0.0,0.0,0.0,0.0,0.0,0.0,0.0,0.0,0.0,0.0,0.0,0.0,0.0,0.0,0.0,0.0,0.0,0.0,0.0,0.0,0.0,0.0,0.0,0.0,0.0,0.0,0.0,0.0,0.0,0.0,0.0,0.0,0.0,0.0,0.0,0.0,0.0,0.0,0.0,0.0,0.0,0.0,0.0,0.0,0.0,0.0,0.0,0.0,0.0,0.0,0.0,0.0,0.0,0.0,0.0,0.0,0.0,0.0,0.0,0.0,0.0,0.0,0.0,0.0,0.0,0.0,0.0,0.0,0.0,0.0,0.0,0.0,0.0,0.0,0.0,0.0,0.0,0.0,0.0,0.0,0.0,0.0,0.0,0.0,0.0,0.0,0.0,0.0,0.0,0.0,0.0,0.0,0.0,0.0,0.0,0.0,0.0,0.0,0.0,0.0,0.0,0.0,0.0,0.0,0.0,0.0,0.0,0.0,0.0,0.0,0.0,0.0,0.0,0.0,0.0,0.0,0.0,0.0,0.0,0.0,0.0,0.0,0.0,0.0,0.0,0.0,0.0,0.0,0.0,0.0,0.0,0.0,0.0,0.0,0.0,0.0,0.0,0.0,0.0,0.0,0.0,0.0,0.0,0.0,0.0,0.0,0.0,0.0,0.0,0.0,0.0,0.0,0.0,0.0,0.0,0.0,0.0,0.0,0.0,0.0,0.0,0.0,0.0,0.0,0.0,0.0,0.0,0.0,0.0,0.0,0.0,0.0,0.0,0.0,0.0,0.0,0.0,0.0,0.0,0.0,0.0,0.0,0.0,0.0,0.0,0.0,0.0,0.0,0.0,0.0,0.0,0.0,0.0,0.0,0.0,0.0,0.0,0.0,0.0,0.0,0.0,0.0,0.0,0.0,0.0,0.0,0.0,0.0,0.0,0.0,0.0,0.0,0.0,0.0,0.0,0.0,0.0,0.0,0.0,0.0,0.0,0.0,0.0,0.0,0.0,0.0,0.0,0.0,0.0,0.0,0.0,0.0,0.0,0.0,0.0,0.0,0.0,0.0,0.0,0.0,0.0,0.0,0.0,0.0,0.0,0.0,0.0,0.0,0.0,0.0,0.0,0.0,0.0,0.0,0.0,0.0,0.0,0.0,0.0,0.0,0.0,0.0,0.0,0.0,0.0,0.0,0.0,0.0,0.0,0.0,0.0,0.0,0.0,0.0,0.0,0.0,0.0,0.0,0.0,0.0,0.0,0.0,0.0,0.0,0.0,0.0,0.0,0.0,0.0,0.0,0.0,0.0,0.0,0.0,0.0,0.0,0.0,0.0,0.0,0.0,0.0,0.0,0.0,0.0,0.0,0.0,0.0,0.0,0.0,0.0,0.0,0.0,0.0,0.0,0.0,0.0,0.0,0.0,0.0,0.0,0.0,0.0,0.0,0.0,0.0,0.0,0.0,0.0,0.0,0.0,0.0,0.0,0.0,0.0,0.0,0.0,0.0,0.0,0.0,0.0,0.0,0.0,0.0,0.0,0.0,0.0,0.0,0.0,0.0,0.0,0.0,0.0,0.0,0.0,0.0,0.0,0.0,0.0,0.0,0.0,0.0,0.0,0.0,0.0,0.0,0.0,0.0,0.0,0.0,0.0,0.0,0.0,0.0,0.0,0.0,0.0,0.0,0.0,0.0,0.0,0.0,0.0,0.0,0.0,0.0,0.0,0.0,0.0,0.0,0.0,0.0,0.0,0.0,0.0,0.0,0.0,0.0,-1.5546,-1.6019,0.0,0.0,0.0,0.0,0.0,0.0,0.0,0.0,0.0,0.0,0.0,0.0,0.0,0.0,0.0,0.0,0.0,0.0,0.0,0.0,0.0,0.0,0.0,-0.3043,-0.3363,-0.3931,-0.3961,-0.4092,-0.4351,-0.4826,-0.5033,-0.4885,-0.5376,-0.5774,-0.6019,-0.5923,-0.6047,-0.6467,-0.6082,-0.6072,-0.6427,-0.732,-0.8282,-0.9332,0.0,0.0,0.0,0.0,0.0,0.0,0.0,0.0,0.0,0.0,0.0,0.0,0.0,0.0,0.0,0.0,0.0,0.0,0.0,0.0,0.0,0.0,0.0,0.0,0.0,0.0,0.0,0.0,0.0,0.0,0.0,0.0,0.0,0.0,0.0,0.0,0.0,0.0,0.0,0.0,0.0,0.0,0.0,0.0,0.0,0.0,0.0,0.0,0.0,0.0,0.0,0.0,0.0,0.0,0.0,0.0,0.0,0.0,0.0,0.0,0.0,0.0,0.0,0.0,0.0,0.0,0.0,0.0,0.0,0.0,-1.5556,-1.5904,0.0,0.0,0.0,0.0,0.0,0.0,0.0,0.0,0.0,0.0,0.0,0.0,0.0,0.0,0.0,0.0,0.0,0.0,0.0,0.0,0.0,-0.2272,-0.1901,-0.2112,-0.2513,-0.314,-0.3208,-0.3385,-0.3873,-0.4005,-0.4096,-0.4184,-0.4526,-0.4918,-0.5356,-0.5376,-0.5595,-0.6005,-0.5225,-0.5091,-0.5614,-0.6597,-0.77,-0.8922,-0.9852,0.0,0.0,0.0,0.0,0.0,0.0,0.0,0.0,0.0,0.0,0.0,0.0,0.0,0.0,0.0,0.0,0.0,0.0,0.0,0.0,0.0,0.0,0.0,0.0,0.0,0.0,0.0,0.0,0.0,0.0,0.0,0.0,0.0,0.0,0.0,0.0,0.0,0.0,0.0,0.0,0.0,0.0,0.0,0.0,0.0,0.0,0.0,0.0,0.0,0.0,0.0,0.0,0.0,0.0,0.0,0.0,0.0,0.0,0.0,0.0,0.0,0.0,0.0,-1.5538,-1.5766,-1.5383,-1.5882,-1.589,-1.5478,-1.5672,-1.5798,-1.5924,-1.6195,0.0,0.0,0.0,0.0,0.0,0.0,0.0,0.0,0.0,0.0,0.0,0.0,0.0,0.0,0.0,0.0,0.0,0.0,0.0,-0.1331,-0.1394,-0.1329,-0.1381,-0.1687,-0.1655,-0.1832,-0.2364,-0.281,-0.3252,-0.3697,-0.4136,-0.453,-0.487,-0.4885,-0.4995,-0.5247,-0.4557,-0.4424,-0.4841,-0.5069,-0.5941,-0.74,-0.9275,-1.0283,-1.0648,0.0,0.0,0.0,0.0,0.0,0.0,0.0,0.0,0.0,0.0,0.0,0.0,0.0,0.0,0.0,0.0,0.0,0.0,0.0,0.0,0.0,0.0,0.0,0.0,0.0,0.0,0.0,0.0,0.0,0.0,0.0,0.0,0.0,0.0,0.0,0.0,0.0,0.0,0.0,0.0,0.0,-1.0059,-1.003,0.0,0.0,0.0,0.0,0.0,0.0,0.0,0.0,0.0,0.0,0.0,0.0,0.0,-1.3614,-1.3487,-1.3728,-1.4422,-1.5451,-1.5,-1.5205,-1.6004,-1.6186,-1.6079,-1.5672,-1.5798,0.0,-1.5944,-1.6863,0.0,0.0,0.0,0.0,0.0,0.0,0.0,0.0,0.0,0.0,0.0,0.0,0.0,0.0,0.0,0.0,0.0,0.0,0.0,0.0,0.0,0.0116,0.012,0.0307,0.0353,0.0177,-0.0398,-0.0884,-0.1417,-0.1956,-0.2669,-0.3293,-0.373,-0.3683,-0.3727,-0.3811,-0.3663,-0.3777,-0.409,-0.4567,-0.5286,-0.623,-0.8096,-0.9554,-1.0768,-1.2283,0.0,0.0,0.0,0.0,0.0,0.0,0.0,0.0,0.0,0.0,0.0,0.0,0.0,0.0,0.0,0.0,0.0,0.0,0.0,0.0,0.0,0.0,0.0,0.0,0.0,0.0,0.0,0.0,0.0,0.0,0.0,0.0,0.0,0.0,0.0,0.0,0.0,0.0,0.0,-0.9336,-0.9655,-0.9643,-1.014,-1.0646,0.0,0.0,0.0,0.0,0.0,0.0,0.0,0.0,0.0,-1.253,-1.2848,-1.3026,-1.296,-1.3876,-1.4586,-1.4932,-1.5707,-1.6088,-1.6086,-1.6294,-1.6198,-1.5818,-1.6117,-1.6276,-1.6463,-1.6873,-1.7408,-1.8092,0.0,0.0,0.0,0.0,-2.0288,-2.0238,0.0,0.0,0.0,0.0,0.0,0.0,0.0,0.0,0.0,0.0,0.0,0.0,0.158,0.1585,0.168,0.2052,0.2048,0.18,0.1318,0.0785,0.0219,-0.0266,-0.1202,-0.1917,-0.2317,-0.2408,-0.235,-0.2234,-0.2514,-0.2881,-0.3245,-0.3965,-0.4728,-0.5581,-0.7169,-0.8784,-1.0464,-1.2047,-1.3157,-1.3868,0.0,0.0,0.0,0.0,0.0,0.0,0.0,0.0,0.0,0.0,0.0,0.0,0.0,0.0,0.0,0.0,0.0,0.0,0.0,0.0,0.0,0.0,0.0,0.0,0.0,0.0,0.0,0.0,0.0,0.0,0.0,0.0,0.0,0.0,0.0,0.0,0.0,-0.8884,-0.9052,-0.9136,-0.9661,-1.017,0.0,0.0,0.0,0.0,0.0,0.0,-1.1977,-1.2615,-1.2871,-1.2623,-1.2803,-1.2942,-1.3031,-1.4344,-1.5086,-1.5116,-1.6562,-1.6978,-1.6364,-1.6743,-1.6598,-1.6163,-1.6598,-1.691,-1.7031,-1.6961,-1.748,-1.8444,-1.9283,-2.0088,-2.0742,-2.0702,-2.0718,-2.063,0.0,0.0,0.0,0.0,0.0,0.0,0.0,0.0,0.0,0.0,0.0,0.2099,0.2398,0.2891,0.3155,0.3114,0.2942,0.2734,0.2445,0.1612,0.1059,0.0837,-0.0222,-0.0801,-0.0801,-0.1162,-0.1138,-0.0711,-0.1042,-0.1567,-0.2285,-0.2771,-0.3908,-0.5569,-0.692,-0.8156,-0.9318,-1.1361,-1.2706,-1.3524,-1.4592,0.0,0.0,0.0,0.0,0.0,0.0,0.0,0.0,0.0,0.0,0.0,0.0,0.0,0.0,0.0,0.0,0.0,0.0,0.0,0.0,0.0,0.0,0.0,0.0,0.0,0.0,0.0,0.0,0.0,0.0,0.0,0.0,0.0,0.0,0.0,0.0,0.0,0.0,-0.8533,-0.856,0.0,0.0,0.0,0.0,-1.124,-1.1603,-1.1963,-1.2466,-1.2833,-1.2972,-1.2958,-1.3622,-1.4164,-1.4484,-1.516,-1.6016,-1.7045,-1.7269,-1.7282,-1.7179,-1.7752,-1.7583,-1.6787,-1.7369,-1.7637,-1.7637,-1.7502,-1.8269,-1.9515,-1.9597,-2.0377,-2.1362,-2.0878,-2.0718,-2.063,0.0,0.0,0.0,-0.2227,-0.1394,-0.0631,0.02,0.0837,0.1434,0.2126,0.2557,0.3178,0.4187,0.4485,0.4749,0.5148,0.5141,0.4888,0.441,0.3677,0.3039,0.2581,0.1524,0.0929,0.0929,0.069,0.0549,0.05,0.0,-0.0846,-0.1942,-0.2656,-0.3639,-0.4922,-0.6702,-0.8298,-0.9742,-1.1524,-1.3004,-1.4269,-1.5415,-1.6039,0.0,0.0,0.0,0.0,0.0,0.0,0.0,0.0,0.0,0.0,0.0,0.0,0.0,0.0,0.0,0.0,0.0,0.0,0.0,0.0,0.0,0.0,0.0,0.0,0.0,0.0,0.0,0.0,0.0,0.0,0.0,0.0,0.0,0.0,0.0,0.0,0.0,-0.8484,-0.8517,0.0,-0.877,-0.9034,-0.952,-1.0308,-1.125,-1.1961,-1.2322,-1.3615,-1.4216,-1.4071,-1.4537,-1.5022,-1.5511,-1.6076,-1.6797,-1.7502,-1.7898,-1.7991,-1.7953,-1.7893,-1.7667,-1.7369,-1.7606,-1.7885,-1.8207,-1.8574,-1.9,-1.9516,-2.0273,-2.1136,-2.1858,-2.1749,-2.1732,-2.1644,-0.461,-0.3894,0.0,-0.1594,-0.0698,0.0067,0.0768,0.1471,0.2167,0.2845,0.3468,0.4275,0.5458,0.5802,0.613,0.6562,0.655,0.6363,0.6049,0.5314,0.4811,0.4673,0.3595,0.2939,0.277,0.2319,0.2052,0.1992,0.1092,0.0072,-0.1049,-0.2055,-0.3167,-0.4381,-0.6465,-0.838,-1.0217,-1.191,-1.3454,-1.4876,-1.6202,-1.6688,-1.6691,0.0,0.0,0.0,0.0,0.0,0.0,0.0,0.0,0.0,0.0,0.0,0.0,0.0,0.0,0.0,0.0,0.0,0.0,0.0,0.0,0.0,0.0,0.0,0.0,0.0,0.0,0.0,0.0,0.0,0.0,0.0,0.0,0.0,0.0,-0.84,-0.8334,-0.8495,-0.8517,-0.8517,-0.8517,-0.8727,-0.9231,-1.0117,-1.1222,-1.2117,-1.276,-1.4268,-1.4965,-1.4736,-1.5138,-1.5716,-1.6351,-1.6856,-1.743,-1.8065,-1.8431,-1.8526,-1.8371,-1.8247,-1.8102,-1.7957,-1.8112,-1.8468,-1.8987,-1.9425,-1.992,-2.0393,-2.1174,-2.1877,-2.2421,-2.2322,-2.2309,-2.2234,-0.4279,-0.3431,-0.235,-0.1094,-0.01,0.0768,0.1507,0.2142,0.2768,0.3547,0.4497,0.5356,0.606,0.6768,0.7229,0.7211,0.7028,0.7052,0.7295,0.6453,0.6244,0.6891,0.6008,0.5259,0.48,0.3689,0.3302,0.3712,0.2255,0.1198,0.05,-0.0895,-0.2397,-0.395,-0.6121,-0.8364,-1.0623,-1.2512,-1.4023,-1.5315,-1.697,-1.7255,-1.6823,0.0,0.0,0.0,0.0,0.0,0.0,0.0,0.0,0.0,0.0,0.0,0.0,0.0,0.0,0.0,0.0,0.0,0.0,0.0,0.0,0.0,0.0,0.0,0.0,0.0,0.0,0.0,0.0,0.0,0.0,0.0,0.0,0.0,-0.877,-0.8641,-0.8517,-0.8517,-0.8517,-0.8522,-0.8533,-0.8748,-0.9525,-1.0949,-1.1499,-1.2458,-1.3982,-1.4659,-1.5057,-1.5057,-1.5482,-1.6137,-1.7084,-1.7284,-1.7858,-1.8824,-1.9012,-1.8837,-1.8413,-1.8868,-1.8827,-1.8423,-1.8934,-1.9518,-2.0096,-2.0172,-2.0921,-2.2101,-2.2101,-2.2494,-2.3015,-2.2535,-2.2334,-2.2259,-0.3866,-0.2816,-0.1594,-0.0266,0.06,0.1371,0.2275,0.2547,0.313,0.4497,0.4941,0.5567,0.676,0.7305,0.7558,0.7574,0.7695,0.7773,0.7808,0.7431,0.7349,0.7696,0.774,0.7488,0.683,0.578,0.4941,0.4342,0.3132,0.2058,0.1198,-0.0066,-0.1482,-0.3042,-0.5346,-0.8059,-1.0966,-1.2812,-1.4847,-1.6912,-1.7714,-1.8055,-1.8211,0.0,0.0,0.0,0.0,0.0,0.0,0.0,0.0,0.0,0.0,0.0,0.0,0.0,0.0,0.0,0.0,0.0,0.0,0.0,0.0,0.0,0.0,0.0,0.0,0.0,0.0,0.0,0.0,0.0,0.0,0.0,-0.8615,-0.8576,-0.8576,-0.8517,-0.8517,-0.8517,-0.8517,-0.8646,-0.8985,-0.9379,-1.0269,-1.1745,-1.2343,-1.3206,-1.4612,-1.5242,-1.5605,-1.592,-1.6088,-1.6663,-1.7714,-1.7497,-1.791,-1.9049,-1.906,-1.9003,-1.8878,-1.9013,-1.9003,-1.8955,-1.953,-1.9911,-2.0161,-2.1164,-2.1791,-2.2101,-2.2101,-2.2494,-2.3053,-2.2902,-2.2852,-2.2946,-0.3709,-0.2524,-0.12,0.01,0.1001,0.1838,0.2676,0.3225,0.3985,0.5235,0.5815,0.655,0.7666,0.805,0.8277,0.8396,0.8507,0.8579,0.8667,0.8961,0.9263,0.9542,0.9604,0.9319,0.8711,0.7441,0.648,0.586,0.4669,0.3739,0.3023,0.1749,0.0097,-0.1927,-0.4429,-0.7693,-1.1402,-1.3459,-1.5733,-1.7988,-1.845,-1.8525,-1.8491,-1.9617,-1.9383,-1.8483,-1.8609,-1.7625,-1.6179,-1.5825,0.0,0.0,0.0,0.0,0.0,0.0,0.0,0.0,0.0,0.0,0.0,0.0,0.0,0.0,0.0,0.0,0.0,0.0,0.0,0.0,0.0,0.0,0.0,0.0,-0.8553,-0.8517,-0.8517,-0.8517,-0.8517,-0.8517,-0.8603,-0.8869,-0.9313,-0.9647,-1.0506,-1.2165,-1.266,-1.35,-1.4894,-1.5462,-1.5845,-1.6004,-1.6091,-1.6599,-1.7731,-1.7496,-1.7988,-1.9075,-1.9075,-1.9075,-1.9075,-1.9075,-1.9075,-1.9131,-1.9846,-2.0226,-2.0613,-2.1667,-2.2298,-2.2494,0.0,0.0,0.0,0.0,-2.3245,-2.3603,-0.3612,-0.2428,-0.107,0.02,0.1233,0.2167,0.29,0.3985,0.5016,0.5831,0.6851,0.7808,0.859,0.8926,0.9197,0.9492,0.9473,0.956,0.9861,1.0772,1.1425,1.1709,1.1281,1.0788,1.0259,0.8743,0.786,0.7656,0.6551,0.5823,0.5364,0.416,0.22,-0.041,-0.3197,-0.7005,-1.1497,-1.3973,-1.6407,-1.864,-1.9027,-1.8802,-1.8349,-2.0018,-1.977,-1.8644,-1.9169,-1.8329,-1.6775,-1.5814,0.0,0.0,0.0,0.0,0.0,0.0,0.0,0.0,0.0,0.0,0.0,0.0,0.0,0.0,0.0,0.0,0.0,0.0,0.0,0.0,0.0,0.0,0.0,0.0,-0.8646,-0.8517,-0.8517,-0.8517,-0.8522,-0.8549,-0.8737,-0.9111,-0.9611,-0.9702,-1.0479,-1.2439,-1.2746,-1.3522,-1.4981,-1.5434,0.0,0.0,0.0,-1.6351,-1.7382,-1.7373,-1.7988,-1.9075,-1.9075,-1.9075,-1.9075,-1.9075,-1.9075,-1.9131,-1.9911,-2.0549,-2.1187,-2.1928,-2.2555,-2.3078,-2.3078,-2.3078,-2.3138,-2.3185,-2.3603,-2.4118,-0.3196,-0.2134,-0.0969,0.0267,0.1366,0.2431,0.3458,0.4279,0.5266,0.6602,0.7183,0.794,0.9135,0.9542,0.9841,1.0097,1.0664,1.1133,1.1516,1.2281,1.2442,1.1792,1.1837,1.1419,1.0463,0.9489,0.8668,0.8011,0.7653,0.7206,0.6639,0.6225,0.4677,0.2156,-0.082,-0.5004,-1.0013,-1.2812,-1.5773,-1.8639,-1.9044,-1.9497,-1.9895,-1.9726,-1.9602,-1.9555,-1.9761,-1.8444,-1.6578,-1.6656,-1.5145,-1.3112,-1.2539,-1.1873,0.0,0.0,0.0,0.0,0.0,0.0,0.0,0.0,0.0,0.0,0.0,0.0,0.0,0.0,0.0,0.0,0.0,0.0,0.0,-0.8796,-0.8646,-0.8517,-0.8517,-0.8517,-0.8587,-0.8775,-0.884,-0.9173,-0.9797,-1.0198,-1.1111,-1.2883,-1.3097,-1.3899,-1.5476,-1.5356,-1.5455,-1.5757,-1.5769,-1.6351,-1.7382,-1.7373,-1.7988,-1.9075,-1.9075,0.0,-1.9075,-1.9075,-1.9075,-1.9198,-2.0355,-2.0996,-2.1187,-2.2445,-2.3005,-2.3078,-2.3078,-2.3078,-2.3198,-2.3721,-2.4015,-2.4234,-0.2801,-0.1904,-0.0936,0.0301,0.1565,0.2761,0.3779,0.4916,0.6044,0.7192,0.7875,0.8651,0.9649,0.9906,1.0185,1.0667,1.151,1.2416,1.3444,1.3856,1.3926,1.3609,1.3249,1.2636,1.1721,1.0806,1.0148,0.9742,0.9517,0.8878,0.7894,0.7592,0.5624,0.2225,-0.0453,-0.4633,-0.9834,-1.256,-1.5416,-1.8157,-1.8396,-1.889,-1.9487,-1.975,-1.9901,-1.9981,-2.0219,-1.895,-1.7153,-1.6763,-1.4902,-1.2615,-1.1783,-1.0794,-0.9979,0.0,0.0,0.0,0.0,0.0,0.0,0.0,0.0,0.0,0.0,0.0,0.0,0.0,0.0,-0.9319,-0.9158,0.0,-0.8811,-0.8812,-0.8646,-0.8517,-0.8517,-0.8517,-0.8603,-0.8834,-0.9111,-0.9487,-1.0162,-1.0443,-1.128,-1.3074,-1.3209,-1.3926,-1.5404,-1.5455,-1.566,-1.6071,-1.6358,-1.7009,-1.8067,-1.835,-1.8914,-1.9748,-1.9748,-1.9748,-1.9748,-1.9748,-1.9944,-2.0411,-2.116,-2.1707,-2.2131,-2.2813,-2.3078,-2.3078,-2.3078,-2.3078,-2.3198,-2.3826,-2.4292,-2.4681,-0.2537,-0.1771,-0.0936,0.0301,0.178,0.3103,0.4132,0.5557,0.6896,0.7772,0.8606,0.9433,1.0273,1.0444,1.0806,1.1619,1.2575,1.3695,1.5069,1.5209,1.5242,1.514,1.4417,1.3605,1.2726,1.1916,1.1482,1.1519,1.099,1.011,0.8967,0.8333,0.5914,0.2023,-0.0438,-0.4371,-0.9354,-1.2195,-1.4866,-1.7227,-1.7738,-1.817,-1.8639,-1.9765,-2.0041,-1.9907,-2.0501,-1.9588,-1.7946,-1.6773,-1.4636,-1.2188,-1.0518,-0.9149,-0.8147,-0.8067,-0.7941,0.0,0.0,0.0,0.0,0.0,0.0,0.0,0.0,-0.936,-0.9383,-0.929,-0.9246,-0.9226,-0.9367,-0.9116,-0.8823,-0.87,-0.8511,-0.8317,-0.8317,-0.8489,-0.8667,-0.8904,-0.9247,-0.9768,-1.0479,-1.0519,-1.1346,-1.3161,-1.3241,-1.389,-1.5204,-1.5715,-1.6045,-1.6336,-1.7071,-1.7843,-1.8682,-1.9277,-1.9857,-2.042,-2.042,-2.042,-2.042,-2.042,-2.0794,-2.1443,-2.1763,-2.2315,-2.3004,-2.307,-2.3078,-2.3078,-2.3138,-2.3258,-2.3424,-2.406,-2.4567,-2.5133,-0.2504,-0.1771,-0.0936,0.0301,0.1903,0.3485,0.47,0.5957,0.7193,0.8412,0.9152,0.9988,1.1223,1.167,1.2396,1.3643,1.4506,1.5196,1.5585,1.6015,1.5645,1.43,1.4089,1.3398,1.2127,1.1858,1.1812,1.1923,1.07,0.9933,0.9566,0.8092,0.6056,0.3542,0.0697,-0.2771,-0.6779,-1.0726,-1.3542,-1.5573,-1.7602,-1.8492,-1.8675,-1.9471,-1.9397,-1.9049,-2.0523,-2.014,-1.8739,-1.7173,-1.4755,-1.188,-0.8746,-0.667,-0.5672,-0.6742,-0.6905,-0.6909,-0.7639,-0.7441,-0.7105,-0.7368,-0.7484,-0.7658,0.0,-0.8601,-0.8865,-0.9658,-0.9598,-0.9514,-0.9778,-0.8969,-0.8301,-0.8301,-0.7987,-0.7797,-0.7797,-0.8424,-0.891,-0.9141,-0.9346,-0.9696,-1.0173,-1.0588,-1.1416,-1.3068,-1.3404,-1.4114,-1.5655,-1.6024,-1.6285,-1.6336,-1.7264,-1.8138,-1.8682,-1.9277,-1.9857,-2.042,-2.042,-2.042,-2.042,-2.042,-2.0544,-2.095,-2.1731,-2.2457,-2.3105,-2.3103,-2.3078,-2.3138,-2.3271,-2.3675,-2.4234,-2.4738,-2.4951,-2.5189,-0.2344,-0.1573,-0.0801,0.0067,0.1601,0.316,0.4501,0.5705,0.6932,0.8225,0.9161,1.0069,1.1045,1.1851,1.2799,1.3955,1.4614,1.5422,1.638,1.6674,1.6451,1.5654,1.5582,1.5157,1.428,1.4183,1.4186,1.4326,1.2529,1.104,0.9831,0.7664,0.5165,0.2412,0.0096,-0.2921,-0.6479,-0.9552,-1.2087,-1.4179,-1.5608,-1.6527,-1.6996,-1.6862,-1.698,-1.7558,-2.0416,-1.9782,0.0,-1.5462,-1.2097,-0.8268,-0.5726,-0.3972,-0.3144,-0.4406,-0.4666,-0.4893,-0.6299,-0.6413,-0.6248,-0.7044,-0.6998,-0.6883,-0.7687,-0.7936,-0.8082,-0.8382,-0.8475,-0.8419,-0.8454,-0.7977,-0.7587,-0.7587,-0.7391,-0.7391,-0.7792,-0.8068,-0.841,-0.9037,-0.9344,-0.9696,-1.0318,-1.0738,-1.1626,-1.3237,-1.3462,-1.4271,-1.6024,-1.6259,-1.6542,-1.6978,-1.7752,-1.8559,-1.9392,-2.001,-2.0622,-2.1228,-2.1228,-2.1228,-2.1217,-2.1375,-2.1596,-2.1989,-2.2817,-2.3182,-2.3138,-2.321,-2.3497,-2.3826,-2.3956,-2.4408,-2.4951,-2.5175,-2.5398,-2.5783,-0.2281,-0.1507,-0.0768,-0.01,0.1255,0.275,0.4266,0.5493,0.67,0.8036,0.9137,1.0229,1.1266,1.2364,1.331,1.3976,1.4755,1.5648,1.6777,1.706,1.7084,1.6795,1.6782,1.6541,1.5992,1.5347,1.5002,1.5017,1.2432,1.0386,0.8814,0.62,0.3684,0.121,-0.086,-0.3368,-0.6161,-0.8666,-1.0835,-1.2648,-1.3934,-1.4866,-1.5441,-1.5004,-1.5279,-1.6275,-1.9168,-1.8517,-1.5885,-1.3359,-0.9784,-0.5939,-0.3066,-0.1427,-0.0815,-0.1975,-0.275,-0.3454,-0.4727,-0.5074,-0.5262,-0.6067,-0.5986,-0.5971,-0.6642,-0.7046,-0.7309,-0.7475,-0.7583,-0.7658,-0.7573,-0.7318,-0.6999,-0.7012,-0.6798,-0.6863,-0.7391,-0.771,-0.8159,-0.8853,-0.9377,-0.984,-1.0404,-1.0812,-1.17,-1.339,-1.3535,-1.4294,-1.6093,-1.6293,-1.6719,-1.7295,-1.8027,-1.8871,-1.9894,-2.0547,-2.1175,-2.1807,-2.1807,-2.1735,-2.159,-2.1862,-2.2287,-2.2843,-2.3492,-2.3527,-2.3138,-2.3271,-2.3616,-2.4073,-2.4408,-2.4908,-2.5453,-2.5673,-2.596,-2.6283,-0.2405,-0.1705,-0.0936,-0.0133,0.1015,0.2424,0.4225,0.5508,0.6747,0.8018,0.9169,1.0558,1.2354,1.3624,1.4319,1.421,1.5403,1.6219,1.6418,1.7101,1.7334,1.7021,1.6984,1.6735,1.6185,1.4092,1.2837,1.2512,0.8863,0.6726,0.5961,0.3204,0.1541,0.0712,-0.1866,-0.3752,-0.5119,-0.8088,-0.9819,-1.0823,-1.3352,-1.4418,-1.4508,-1.5085,-1.5301,-1.5426,-1.6188,-1.6146,-1.5155,-1.13,-0.8776,-0.6381,-0.1313,0.0784,0.1229,0.0285,-0.1675,-0.3398,-0.3076,-0.3418,-0.3796,-0.343,-0.3724,-0.433,-0.4999,-0.5713,-0.6514,-0.7597,-0.7749,-0.7747,-0.8023,-0.7268,-0.6607,-0.6428,-0.6272,-0.6141,-0.6145,-0.7359,-0.8313,-0.8388,-0.9405,-1.0092,-1.0196,-1.0594,-1.1552,-1.3382,-1.3535,-1.4194,-1.5743,-1.6156,-1.6533,-1.6927,-1.7885,-1.8871,-1.9894,-2.0547,-2.1175,-2.1807,-2.1807,-2.1569,-2.1104,-2.1572,-2.2166,-2.2807,-2.301,-2.309,-2.3078,-2.3138,-2.321,-2.3509,-2.4234,-2.4951,-2.5673,-2.6404,-2.651,-2.6404,-0.2109,-0.1607,-0.1004,-0.0201,0.0476,0.1465,0.3072,0.4606,0.6003,0.7198,0.9106,0.0,0.0,0.0,0.0,0.0,1.4819,1.5563,1.63,1.6869,1.7323,1.7645,1.7707,1.7111,1.5825,1.6463,1.5292,1.2205,1.1059,0.932,0.7032,0.4295,0.2363,0.1113,-0.0544,-0.2436,-0.456,-0.7209,-0.9025,-1.0425,-1.266,-1.3564,-1.3433,-1.2475,-1.1803,-1.1145,0.0,-0.9515,-0.9948,-0.6642,-0.3,0.0779,0.4517,0.5315,0.4417,0.2327,0.0119,-0.1518,-0.1356,-0.1582,-0.1938,-0.2513,-0.2471,-0.2493,-0.3607,-0.4391,-0.4987,-0.5512,-0.5981,-0.6387,-0.6552,-0.6242,-0.5942,-0.5989,-0.5844,-0.5953,-0.6541,-0.695,-0.757,-0.8634,-0.8985,-0.952,-1.034,-1.0644,-1.1477,-1.3164,-1.339,-1.4286,-1.6067,-1.6276,-1.6516,-1.691,-1.7552,-1.8476,-1.9583,-1.9834,-2.0441,-2.1342,-2.1553,-2.1577,-2.1561,-2.2163,-2.2727,-2.3218,-2.3286,-2.333,-2.3437,-2.3582,-2.4073,-2.4794,-2.5175,-2.596,-2.6841,-2.7152,-2.7255,-2.7188,-0.1926,-0.1484,-0.0904,-0.0213,0.0319,0.0,0.0,0.0,0.0,0.0,0.0,0.0,0.0,0.0,0.0,0.0,0.0,1.5212,1.6068,1.6638,1.7256,1.8044,1.7555,1.6747,1.5594,1.5605,1.3993,1.0682,0.9977,0.8422,0.6012,0.3733,0.2084,0.0993,-0.0696,-0.2426,-0.4241,-0.6668,-0.8505,-0.9882,-1.1511,-1.2318,-1.2293,-1.074,-0.9427,0.0,-0.5445,-0.4146,-0.3336,-0.1137,0.1691,0.4889,0.8288,0.8292,0.6655,0.4378,0.2329,0.0734,0.0501,0.0256,-0.0194,-0.0961,-0.1016,-0.1255,-0.2398,-0.3201,-0.3872,-0.4142,-0.4698,-0.5265,-0.5351,-0.5507,-0.562,-0.5711,-0.5577,-0.5706,-0.6425,-0.6512,-0.696,-0.8036,-0.8307,-0.8817,-1.0027,-1.0173,-1.1093,-1.3164,-1.3492,-1.4336,-1.6058,-1.6139,-1.631,-1.6696,-1.7217,-1.8073,-1.9164,-1.9394,-1.9978,-2.0855,-2.0896,-2.1202,-2.1815,-2.2075,-2.2587,-2.3271,-2.3271,-2.339,-2.3569,-2.3923,-2.4478,-2.5231,-2.5783,-2.651,-2.7181,-2.7473,-2.7625,-2.7575,-0.1873,-0.131,-0.0667,0.0,0.0,0.0,0.0,0.0,0.0,0.0,0.0,0.0,0.0,0.0,0.0,0.0,0.0,0.0,1.5717,1.6369,1.7149,1.8064,1.6628,1.5636,1.5305,1.1881,0.9386,0.7991,0.6069,0.4439,0.3137,0.1729,0.0837,0.0337,-0.2145,-0.3547,-0.4151,-0.6501,-0.8117,-0.9201,-1.0106,-1.0785,-1.1017,-0.9723,-0.795,-0.59,-0.3856,-0.0,0.4213,0.4866,0.5317,0.6242,1.002,0.9845,0.7955,0.6476,0.48,0.3204,0.2565,0.1958,0.1458,0.1244,0.048,-0.0421,-0.1307,-0.223,-0.3019,-0.3469,-0.4028,-0.4466,-0.4477,-0.5035,-0.5523,-0.554,-0.5461,-0.5437,-0.5731,-0.6176,-0.6592,-0.6908,-0.7372,-0.8112,-0.9282,-0.9366,-1.0501,-1.3237,-1.374,-1.4452,-1.5672,-1.5805,-1.5959,-1.6293,-1.6828,-1.766,-1.8644,-1.9219,-1.9787,-2.0348,-1.9993,-2.0525,-2.177,-2.1353,-2.1939,-2.3138,-2.3138,-2.3271,-2.3522,-2.4073,-2.4523,-2.4894,-2.6068,-2.6616,-2.6788,-2.7408,-2.7625,-2.7575,0.0,0.0,0.0,0.0,0.0,0.0,0.0,0.0,0.0,0.0,0.0,0.0,0.0,0.0,0.0,0.0,0.0,0.0,1.5124,1.5775,1.6292,1.6696,1.6121,1.4786,1.263,1.2473,1.0526,0.666,0.7373,0.6424,0.3923,0.2874,0.1919,0.0986,-0.0883,-0.2574,-0.4157,-0.6271,-0.8122,-0.9627,-0.9965,-0.9875,-0.9205,-0.6531,-0.3998,-0.1308,0.297,0.6281,0.8676,0.8892,1.0989,1.3368,1.2793,1.1294,0.957,0.8712,0.717,0.5653,0.481,0.4073,0.3294,0.2488,0.1832,0.1095,0.0,-0.114,-0.2126,-0.2815,-0.3506,-0.3981,-0.393,-0.4391,-0.488,-0.5146,-0.5456,-0.5692,-0.5872,-0.598,-0.6294,-0.7019,-0.7102,-0.7825,-0.9616,-0.9802,-1.0631,-1.2459,-1.3243,-1.398,-1.4832,-1.5497,-1.5848,-1.5934,-1.6484,-1.7229,-1.8271,-1.9213,-1.962,-1.9417,-2.0347,-2.0933,-2.1319,-2.2321,-2.3078,-2.3509,-2.3641,-2.4041,-2.4607,-2.4778,-2.5314,-2.6068,-2.651,-2.6893,-2.7233,-2.7524,-2.7625,-2.7575,0.0,0.0,0.0,0.0,0.0,0.0,0.0,0.0,0.0,0.0,0.0,0.0,0.0,0.0,0.0,0.0,0.0,0.0,0.0,1.4947,1.565,1.6597,1.6122,1.4833,1.2696,1.2571,1.0636,0.6859,0.73,0.6358,0.4181,0.322,0.2242,0.1234,-0.0475,-0.1928,-0.3301,-0.5322,-0.6946,0.0,0.0,-0.7035,-0.6014,-0.2238,0.0849,0.3657,0.7581,1.0636,1.2837,1.2823,1.4631,1.6515,1.4531,1.3018,1.1657,0.9974,0.8646,0.7428,0.6235,0.5482,0.481,0.3931,0.3064,0.2134,0.112,-0.0123,-0.1152,-0.1735,-0.2499,-0.3048,-0.3004,-0.3742,-0.4519,-0.4709,-0.5309,-0.5742,-0.5891,-0.5825,-0.6018,-0.6553,-0.6479,-0.6968,-0.8585,-0.9082,-0.9858,-1.1211,-1.2777,-1.3968,-1.4537,-1.5355,-1.5805,-1.5805,-1.6333,-1.7121,-1.8191,-1.9039,-1.9323,-1.9131,-2.0161,-2.0805,-2.1123,-2.231,-2.3005,-2.3378,-2.3852,-2.4319,-2.4821,-2.5425,-2.6028,-2.6616,-2.6945,-2.7269,-2.7488,-2.7575,-2.7625,-2.7625,0.0,0.0,0.0,0.0,0.0,0.0,0.0,0.0,0.0,0.3876,0.5453,0.6678,0.721,0.8504,0.0,0.0,0.0,0.0,0.0,0.0,1.4859,1.6554,1.5984,1.5061,1.3931,1.2502,1.0682,0.85,0.7259,0.6085,0.492,0.3602,0.2559,0.17,-0.0361,-0.1463,-0.1829,-0.3901,-0.4903,-0.4952,-0.3792,-0.2849,-0.1705,0.0,0.5837,0.8079,1.0574,1.3508,1.614,1.5891,1.6501,1.7061,1.5372,1.4471,1.3441,1.0753,0.9548,0.879,0.7219,0.6426,0.5941,0.5386,0.4088,0.2798,0.2005,0.0756,-0.0333,-0.0648,-0.1382,-0.2013,-0.1946,-0.3082,-0.4056,-0.4309,-0.4927,-0.5495,-0.5932,-0.5781,-0.5637,-0.5864,-0.5712,-0.5989,-0.7055,-0.7867,-0.8765,-0.9896,-1.2279,-1.3896,-1.4402,-1.5204,-1.5655,-1.5805,-1.6333,-1.7088,-1.8202,-1.8731,-1.8998,-1.9131,-1.9781,-2.042,-2.1123,-2.1803,-2.2494,-2.3198,-2.3897,-2.435,-2.4738,-2.5892,-2.651,-2.6841,-2.7357,-2.7575,-2.7575,-2.7575,-2.761,-2.7745,0.0,0.0,0.0,0.0,0.0,0.0,0.0334,0.1022,0.1817,0.2609,0.3866,0.5251,0.6871,0.7217,0.0,0.0,0.0,0.0,0.0,0.0,0.0,1.3679,1.3907,1.383,1.343,1.3257,1.3052,1.2832,1.1082,0.9697,0.8679,0.6193,0.4727,0.4053,0.0818,-0.0296,0.024,-0.2176,-0.2165,-0.0404,0.1202,0.236,0.3598,0.7498,0.0,0.0,1.2203,1.4829,1.6507,1.5566,1.5916,1.6513,1.5031,1.4063,1.3135,1.1571,1.0602,0.9688,0.8231,0.7176,0.6372,0.5941,0.4616,0.3225,0.2532,0.1133,-0.02,-0.0583,-0.1251,-0.1613,-0.1344,-0.1946,-0.2707,-0.3477,-0.428,-0.5047,-0.5628,-0.5701,-0.5637,-0.5637,-0.5479,-0.5796,-0.6824,-0.7642,-0.8551,-0.958,-1.1315,-1.2714,-1.3608,-1.4394,-1.5125,-1.5805,-1.6333,-1.6881,-1.752,-1.8134,-1.8664,-1.9131,-1.9781,-2.042,-2.1123,-2.2002,-2.2689,-2.333,-2.3616,-2.4292,-2.5287,-2.5618,-2.6283,-2.7181,-2.7473,-2.7524,-2.7437,-2.7575,-2.7845,-2.8207,0.0,0.0,0.0,0.0,0.0,0.0,0.0402,0.1328,0.2073,0.2265,0.3026,0.412,0.5578,0.6277,0.7029,0.0,0.0,0.0,0.0,0.0,0.0,1.2732,1.3594,1.3908,1.3677,1.4235,1.4002,1.2901,0.0,1.0692,1.0234,0.8107,0.711,0.6994,0.4551,0.3519,0.3492,0.1207,0.0673,0.1499,0.2749,0.3737,0.4871,0.0,0.0,0.0,1.4114,1.5132,1.5273,1.5003,1.5012,1.4919,1.3695,1.3323,1.2991,1.1031,1.0364,0.9953,0.8389,0.7444,0.6756,0.6213,0.485,0.3549,0.3251,0.1655,0.0201,0.0,-0.0733,-0.1277,-0.1143,-0.1679,-0.2224,-0.2662,-0.3774,-0.4665,-0.5009,-0.5292,-0.5478,-0.547,-0.5321,-0.5473,-0.6015,-0.7318,-0.8309,-0.8765,-1.0426,-1.1996,-1.339,-1.4625,-1.5426,-1.5797,-1.6621,-1.7166,-1.7373,-1.8259,-1.8875,-1.9131,-2.0096,-2.0805,-2.1123,-2.2261,-2.2944,-2.3271,-2.3721,-2.4292,-2.4908,-2.5673,-2.6283,-2.6788,-2.7218,-2.7386,-2.7401,-2.7488,-2.766,-2.8027,0.0,0.0,0.0,0.0,0.0,0.0,0.0646,0.1605,0.2317,0.2302,0.2686,0.3309,0.4264,0.5353,0.6182,0.0,0.0,0.0,0.0,0.0,0.0,0.0,0.0,1.3555,1.3513,0.0,0.0,1.247,1.1474,0.0,0.0,0.0,0.0,0.0,0.7007,0.6219,0.587,0.3663,0.2811,0.0,0.0,0.4456,0.537,0.0,0.0,0.0,0.0,1.3965,1.3408,1.3536,1.3579,1.3237,1.2102,1.2379,1.2713,1.0651,1.0188,1.0015,0.8598,0.7705,0.7025,0.6534,0.5254,0.3992,0.3811,0.2189,0.0671,0.0538,-0.0336,-0.1076,-0.1076,-0.1479,-0.1879,-0.1945,-0.3101,-0.398,-0.4087,-0.4715,-0.5064,-0.5031,-0.5182,-0.5243,-0.5243,-0.6703,-0.7774,-0.7999,-0.9895,-1.1774,-1.3382,-1.4768,-1.5647,-1.5797,-1.676,-1.7304,-1.7373,-1.8395,-1.9008,-1.9131,-2.0161,-2.0805,-2.1123,-2.2187,-2.2823,-2.3138,-2.3767,-2.4118,-2.435,-2.5453,-2.6014,-2.6297,-2.6788,-2.713,-2.7299,-2.735,-2.7473,-2.7795,0.0,0.0,0.0,0.0,0.0,0.0,0.0752,0.1134,0.1708,0.2449,0.2658,0.2955,0.3605,0.4146,0.4711,0.0,0.0,0.0,0.0,0.0,0.0,0.0,0.0,0.0,0.0,0.0,0.0,1.3997,1.2592,0.0,0.0,0.0,0.0,0.0,0.0,0.4472,0.5231,0.2891,0.0,0.0,0.0,0.0,0.0,0.0,0.0,0.0,0.0,1.0166,1.1135,1.0135,1.0958,1.211,1.0742,1.1234,1.2192,1.1664,1.0832,0.9999,0.9405,0.8281,0.7289,0.7235,0.6059,0.4722,0.3992,0.2638,0.1342,0.0605,-0.0336,-0.1076,-0.0876,-0.0876,-0.1077,-0.1543,-0.1893,-0.2266,-0.2923,-0.3685,-0.4247,-0.419,-0.4681,-0.5015,-0.5015,-0.586,-0.6773,-0.7761,-1.0335,-1.2365,-1.3462,-1.425,-1.5054,-1.5805,-1.6342,-1.689,-1.7373,-1.8066,-1.8607,-1.9075,-1.9198,-1.9901,-2.1123,-2.125,-2.1939,-2.3078,-2.3198,-2.3543,-2.4118,-2.4408,-2.509,-2.5948,-2.6244,-2.6645,-2.7055,-2.7181,-2.7494,-2.7913,0.0,0.0,0.0,0.0,0.0,0.0,0.1414,0.1803,0.218,0.2379,0.2503,0.2723,0.3129,0.3382,0.377,0.428,0.4944,0.0,0.0,0.0,0.0,0.0,0.0,0.0,0.0,0.0,1.1674,1.1251,1.1085,0.0,0.0,0.0,0.0,0.0,0.0,0.5645,0.5961,0.4145,0.0,0.0,0.0,0.0,0.0,0.0,0.0,0.0,0.0,0.0,0.973,0.9748,1.024,1.0944,1.125,1.1196,1.0988,1.0675,1.0605,1.0401,0.9327,0.8417,0.761,0.7168,0.6138,0.5046,0.4516,0.3316,0.2011,0.1075,0.0202,-0.0538,-0.0741,-0.0674,-0.0674,-0.0875,-0.1368,-0.1759,-0.2054,-0.2751,-0.319,-0.3159,-0.3777,-0.4304,-0.4304,-0.5467,-0.6853,-0.838,-0.9593,-1.087,-1.2512,-1.3882,-1.4974,-1.5797,-1.6333,-1.6881,-1.7373,-1.7998,-1.8539,-1.9075,-1.9518,-2.0161,-2.1123,-2.1502,-2.2187,-2.3078,-2.3078,-2.3245,-2.3543,-2.4394,-2.4964,-2.5425,-2.6258,-2.6765,-2.7003,-2.7041,-2.7233,-2.7545,0.0,0.0,0.0,0.0,0.0,0.1514,0.1918,0.2268,0.2476,0.2502,0.2573,0.2731,0.2904,0.2981,0.3089,0.3401,0.4043,0.0,0.0,0.0,0.0,0.0,0.0,0.0,0.0,0.0,0.8751,0.8086,0.8343,0.8069,0.0,0.0,0.6283,0.593,0.0,0.0,0.0,0.0,0.0,0.0,0.0,0.0,0.0,0.0,0.0,0.0,0.0,0.0,0.0,0.0,0.0,0.973,1.0718,1.0683,1.0253,1.052,1.0741,1.0675,0.9653,0.8783,0.804,0.7521,0.6461,0.5424,0.4908,0.3863,0.2678,0.1678,0.094,0.0403,0.0067,0.0135,0.0202,0.0269,-0.0338,-0.0762,-0.073,-0.1616,-0.2171,-0.2124,-0.289,-0.3492,-0.375,-0.5229,-0.6853,-0.8537,-0.8917,-0.9976,-1.1929,-1.3237,-1.4394,-1.5426,-1.6193,-1.6742,-1.7166,-1.793,-1.8472,-1.8865,-1.9518,-2.0161,-2.0805,-2.1491,-2.2175,-2.2811,-2.3005,-2.3078,-2.3185,-2.4047,-2.4667,-2.5063,-2.5934,-2.6553,-2.6951,-2.6951,-2.6989,-2.713,0.0,0.0,0.0,0.0,0.0,0.1671,0.2118,0.2144,0.2301,0.2932,0.301,0.2977,0.302,0.2818,0.2687,0.2732,0.3196,0.0,0.0,0.0,0.0,0.0,0.0,0.0,0.0,0.0,0.5452,0.5247,0.4452,0.3784,0.3273,0.35,0.2837,0.1396,0.0,0.0,0.0,0.0,0.0,0.0,0.0,0.0,0.047,0.0,0.0,0.0,0.0,0.0,0.0,0.0,0.0,0.0,0.0,0.9046,1.0332,1.1819,1.1487,1.065,1.0763,0.963,0.8481,0.8481,0.7279,0.5884,0.4994,0.4126,0.3278,0.2549,0.1945,0.1609,0.1811,0.1878,0.1945,0.2079,0.1512,0.107,0.1052,-0.0302,-0.1307,-0.1292,-0.2025,-0.2824,-0.3744,-0.5229,-0.6623,-0.7761,-0.8761,-1.0126,-1.1929,-1.2224,-1.3018,-1.453,-1.5886,-1.6603,-1.6603,-1.7716,-1.8269,-1.8337,-1.8865,-1.9462,-2.0096,-2.0805,-2.1502,-2.2175,-2.2811,-2.3078,-2.3078,-2.3138,-2.3872,-2.5007,-2.5007,-2.5756,-2.6779,-2.6779,-2.6779,-2.6779,0.0,0.0,0.0,0.0,0.0,0.0,0.2293,0.2667,0.2972,0.3181,0.3333,0.339,0.33,0.3217,0.3119,0.2976,0.2924,0.0,0.0,0.0,0.0,0.0,0.0,0.0,0.0,0.4501,0.4402,0.3987,0.3559,0.2801,0.169,0.1658,0.0847,-0.0577,-0.0169,-0.028,0.0,0.0,0.0,0.0,0.0,-0.14,-0.0873,0.0,0.0,0.0,0.0,0.0,0.0,0.0,0.0,0.0,0.0,0.0,0.0,1.0724,1.0864,1.056,1.035,0.949,0.863,0.8514,0.7654,0.6624,0.578,0.5114,0.4342,0.308,0.2549,0.2281,0.1945,0.1945,0.2093,0.2202,0.2087,0.1925,0.2028,0.1133,0.0459,0.0474,-0.1249,-0.2871,-0.375,-0.4771,-0.5783,-0.6623,-0.7689,-0.8832,-1.0121,-1.1403,-1.2872,-1.453,-1.5029,-1.5675,-1.6603,-1.7304,-1.7862,-1.8337,-1.8865,-1.9715,-2.0805,-2.0996,-2.169,-2.2811,-2.3005,-2.3078,-2.3138,-2.3603,-2.4279,-2.5063,-2.5425,-2.6111,-2.6779,-2.6779,-2.6779,-2.6779,0.0,0.0,0.0,0.0,0.0,0.0,0.2478,0.2812,0.3121,0.3432,0.3541,0.3597,0.352,0.3527,0.3382,0.3055,0.296,0.0,0.0,0.0,0.0,0.0,0.0,0.0,0.3699,0.3848,0.3716,0.329,0.2705,0.1935,0.1007,0.0684,-0.0113,-0.1269,-0.1131,-0.1288,0.0,0.0,0.0,0.0,-0.1971,-0.1791,-0.1369,0.0,0.0,0.0,0.0,0.0,0.0,0.0,0.0,0.0,0.0,0.0,0.0,0.0,0.9476,0.9667,1.0151,0.9649,0.8959,0.8902,0.7959,0.6857,0.6322,0.5617,0.4749,0.3818,0.3422,0.3222,0.2885,0.2885,0.2969,0.3021,0.2847,0.2617,0.2412,0.1717,0.1215,0.0849,-0.0856,-0.2417,-0.3242,-0.4046,-0.5007,-0.6086,-0.723,-0.8219,-0.9221,-1.0732,-1.2211,-1.3673,-1.4314,-1.518,-1.6272,-1.6821,-1.7373,-1.7998,-1.8539,-1.932,-2.0355,-2.0869,-2.1565,-2.2384,-2.2884,-2.3078,0.0,-2.3543,-2.4221,-2.5021,-2.5425,-2.6056,-2.6779,-2.6779,-2.6779,-2.6779,0.0,0.0,0.0,0.0,0.0,0.0,0.0,0.2717,0.2893,0.3574,0.3708,0.3738,0.3727,0.3744,0.3524,0.3043,0.3277,0.0,0.0,0.0,0.0,0.0,0.0,0.0,0.3642,0.3355,0.3132,0.2963,0.1793,0.1122,0.0954,0.0393,-0.0224,-0.0957,-0.1176,-0.1567,0.0,0.0,0.0,0.0,-0.2556,-0.214,0.0,0.0,0.0,0.0,0.0,0.0,0.0,0.0,0.0,0.0,0.0,0.0,0.0,0.0,0.0,0.0,0.0,0.9926,0.943,0.943,0.8151,0.6806,0.6806,0.5749,0.0,0.4691,0.4561,0.4367,0.4367,0.43,0.4303,0.4311,0.3851,0.3217,0.2382,0.183,0.1134,0.0303,-0.0618,-0.1475,-0.2272,-0.324,-0.4453,-0.5931,-0.7065,-0.8125,-0.912,-1.0088,-1.1137,-1.2191,-1.3708,-1.4879,-1.5726,-1.6263,-1.6881,-1.7373,-1.7998,-1.8607,-1.9131,-2.042,-2.106,-2.125,-2.2506,-2.3078,-2.3078,-2.3078,-2.3813,-2.4951,-2.4951,-2.5701,-2.6727,-2.6779,-2.6779,-2.6779,0.0,0.0,0.0,0.0,0.0,0.0,0.0,0.0,0.0,0.0,0.3685,0.3955,0.3997,0.4016,0.3932,0.0,0.0,0.0,0.0,0.0,0.0,0.0,0.0,0.0,0.2125,0.1777,0.1569,0.14,0.0672,0.017,-0.0058,-0.017,-0.0625,-0.1335,-0.1076,-0.1177,0.0,0.0,0.0,0.0,-0.1989,-0.2001,0.0,0.0,0.0,0.0,0.0416,0.1369,0.0,0.0,0.0,0.0,0.0,0.0,0.0,0.0,0.7374,0.7638,0.834,0.0,0.8793,0.8793,0.8435,0.7987,0.0,0.7186,0.6724,0.5807,0.5543,0.5348,0.4764,0.4628,0.4526,0.4623,0.4383,0.4222,0.4094,0.3479,0.2718,0.189,0.054,-0.039,-0.0543,-0.2568,-0.3986,-0.4375,-0.5819,-0.7029,-0.7777,-0.8877,-1.0153,-1.1722,-1.2877,-1.3924,-1.4895,-1.6035,-1.6673,-1.6811,-1.7784,-1.8664,-1.9309,-2.0031,-2.0858,-2.1854,-2.2175,-2.2616,-2.3078,-2.3078,-2.3603,-2.435,-2.4851,-2.5481,-2.6179,-2.6621,-2.6779,-2.6779,0.0,0.0,0.0,0.0,0.0,0.0,0.0,0.0,0.0,0.0,0.3668,0.3951,0.4164,0.4192,0.4129,0.0,0.0,0.0,0.0,0.0,0.0,0.0,0.0,0.2207,0.1856,0.1612,0.1456,0.14,0.0728,0.0283,0.0115,-0.017,-0.0566,-0.0977,-0.0904,-0.1075,0.0,0.0,0.0,-0.1633,-0.1683,0.0,0.0,0.0,0.0,0.0,0.0115,0.0863,0.0,0.2187,0.2849,0.3589,0.0,0.0,0.0,0.0,0.6601,0.6778,0.7172,0.7914,0.8584,0.8763,0.8645,0.8306,0.7712,0.7251,0.6662,0.5741,0.5481,0.5286,0.4894,0.4761,0.4672,0.4732,0.461,0.4442,0.4128,0.3423,0.2796,0.2336,0.1221,0.0386,0.0,-0.1641,-0.2958,-0.3621,-0.4925,-0.6046,-0.6791,-0.8056,-0.9249,-1.0361,-1.1567,-1.2972,-1.4593,-1.5692,-1.6333,-1.6603,-1.7226,-1.7978,-1.8854,-1.9441,-2.0279,-2.1227,-2.1854,-2.2298,-2.2689,-2.2944,-2.3484,-2.4118,-2.4452,-2.5147,-2.5948,-2.6286,-2.6568,-2.6779,0.0,0.0,0.0,0.0,0.0,0.0,0.0,0.0,0.0,0.0,0.0,0.0,0.0,0.0,0.0,0.0,0.0,0.0,0.0,0.0,0.0,0.0,0.2932,0.2713,0.2195,0.1984,0.1902,0.1902,0.1177,0.0729,0.0617,0.0112,-0.0168,-0.028,-0.0561,-0.0911,-0.1225,-0.1232,-0.1293,-0.1296,-0.1392,0.0,0.0,0.0,0.0,0.0,0.0,0.0,0.0,0.1961,0.2352,0.2629,0.3685,0.0,0.0,0.0,0.0,0.0,0.6574,0.7538,0.8521,0.8882,0.8857,0.8554,0.7972,0.7186,0.6465,0.5807,0.0,0.5355,0.5223,0.5156,0.5129,0.5111,0.4927,0.4549,0.3652,0.29,0.2493,0.2615,0.1959,0.1217,0.0465,-0.0545,-0.1696,-0.3161,-0.4103,-0.5006,-0.5908,-0.7364,-0.8409,-0.8852,-1.0305,-1.2075,-1.408,-1.5089,-1.5869,-1.6473,-1.6673,-1.7226,-1.8202,-1.8921,-1.9573,-2.0161,-2.129,-2.1916,-2.2163,-2.2689,-2.3352,-2.3956,-2.4073,-2.4694,-2.566,-2.5729,-2.6165,-2.6674,0.0,0.0,0.0,0.0,0.0,0.0,0.0,0.0,0.0,0.0,0.0,0.0,0.0,0.0,0.0,0.0,0.0,0.0,0.0,0.0,0.0,0.2204,0.2364,0.2471,0.2435,0.1783,0.1398,0.1398,0.0672,0.028,0.028,0.0168,0.0168,0.028,0.0224,0.0112,-0.0057,-0.0058,-0.0235,-0.0471,-0.0414,0.0,0.0,0.0,0.0,0.0,0.0,0.0,0.0,0.2408,0.2963,0.3461,0.4015,0.0,0.0,0.0,0.0,0.0,0.7144,0.7712,0.8077,0.8374,0.91,0.9722,0.9658,0.9408,0.9017,0.828,0.8027,0.7772,0.7125,0.6924,0.6798,0.6828,0.6043,0.5129,0.4282,0.4145,0.4167,0.43,0.3651,0.2949,0.2203,0.0682,-0.0601,-0.1616,-0.2865,-0.3946,-0.4694,-0.615,-0.7345,-0.82,-0.9831,-1.1001,-1.1737,-1.3531,-1.496,-1.5938,-1.683,-1.7373,-1.7579,-1.8664,-1.9518,-2.0096,-2.0291,-2.1037,-2.2101,-2.2237,-2.2677,-2.3305,-2.3897,-2.4234,-2.4465,-2.4964,-2.5536,-2.6111,0.0,0.0,0.0,0.0,0.0,0.0,0.0,0.0,0.0,0.0,0.0,0.0,0.0,0.0,0.0,0.0,0.0,0.0,0.0,0.0,0.3572,0.3181,0.2859,0.2364,0.1677,0.1175,0.0943,0.0926,0.049,0.0327,0.0327,0.0334,0.0336,0.0393,0.0393,0.0393,0.0281,0.0228,0.0115,-0.0057,0.0,0.0,0.0,0.0,0.0,0.0,0.0,0.0,0.0,0.0,0.2912,0.3186,0.3738,0.0,0.0,0.0,0.0,0.0,0.6819,0.7608,0.8305,0.8727,0.9444,0.9919,0.9518,0.939,0.9198,0.8479,0.8156,0.7967,0.7642,0.7447,0.7316,0.7181,0.6614,0.5847,0.51,0.4876,0.476,0.461,0.3884,0.3134,0.2442,0.1332,0.0073,-0.1072,-0.1762,-0.2638,-0.3755,-0.4837,-0.6024,-0.7309,-0.8443,-0.9622,-1.0834,-1.2037,-1.3384,-1.4915,-1.6296,-1.7097,-1.7442,-1.8259,-1.8998,-1.9584,-1.9846,-2.0344,-2.1037,-2.1741,-2.2187,-2.2506,-2.3185,-2.3662,-2.4047,-2.4724,-2.537,-2.5948,0.0,0.0,0.0,0.0,0.0,0.0,0.0,0.0,0.0,0.0,0.0,0.0,0.0,0.0,0.0,0.0,0.0,0.0,0.0,0.444,0.4012,0.4009,0.3236,0.2348,0.14,0.1103,0.0918,0.084,0.0574,0.0472,0.0533,0.0497,0.0505,0.0561,0.0505,0.0505,0.0449,0.0336,0.028,0.0224,0.0,0.0,0.0,0.0,0.0,0.0,0.0,0.0,0.0,0.0,0.0,0.0,0.0,0.0,0.0,0.5175,0.5727,0.6237,0.6975,0.7852,0.8786,0.9512,0.9923,1.004,0.9512,0.9378,0.9186,0.8672,0.8355,0.8226,0.8231,0.8077,0.7836,0.7517,0.7221,0.6742,0.5767,0.5352,0.5004,0.4524,0.3911,0.324,0.259,0.1876,0.0857,-0.0486,-0.0902,-0.1648,-0.2885,-0.3811,-0.4998,-0.6588,-0.7312,-0.844,-1.0155,-1.0797,-1.2085,-1.4042,-1.5584,-1.6674,-1.73,-1.8017,-1.8539,-1.9065,-1.9396,-1.9704,-2.0031,-2.0985,-2.1565,-2.1877,-2.2396,-2.2992,-2.3636,-2.4381,-2.4951,-2.537,0.0,0.0,0.0,0.0,0.0,0.0,0.0,0.0,0.0,0.0,0.0,0.0,0.0,0.0,0.0,0.0,0.0,0.0,0.0,0.3944,0.3569,0.3398,0.2845,0.2623,0.2738,0.1994,0.162,0.1616,0.0881,0.0599,0.0853,0.0717,0.0785,0.1066,0.0898,0.0785,0.0673,0.0673,0.0561,0.0393,0.0393,0.0,0.0,0.0,0.0,0.0,0.0,0.0,0.0,0.0,0.0,0.0,0.0,0.0,0.5563,0.5991,0.6539,0.729,0.8508,0.9023,0.9499,1.0597,1.08,1.0737,1.0674,1.0421,1.0174,1.011,0.9983,0.9792,0.967,0.9676,0.9357,0.8268,0.8292,0.7817,0.5899,0.5547,0.5272,0.4593,0.4469,0.4124,0.3362,0.2664,0.1873,0.1013,-0.0337,-0.1413,-0.2147,-0.3544,-0.4935,-0.6396,-0.7125,-0.7987,-0.8922,-0.9915,-1.1434,-1.3459,-1.4984,-1.6129,-1.6949,-1.788,-1.8472,-1.8808,-1.8875,-1.9187,-1.9628,-1.9759,-2.0526,-2.1616,-2.1678,-2.2137,-2.2848,-2.3471,-2.3754,-2.3872,0.0,0.0,0.0,0.0,0.0,0.0,0.0,0.0,0.0,0.0,0.0,0.0,0.0,0.0,0.0,0.0,0.0,0.0,0.0,0.4396,0.3926,0.3508,0.3178,0.2736,0.2128,0.1658,0.1427,0.1312,0.1007,0.0992,0.1173,0.1104,0.1122,0.1234,0.1066,0.101,0.0954,0.0785,0.0673,0.0561,0.0449,0.0393,0.0,0.0,0.0,0.0,0.0,0.0,0.0,0.0,0.2911,0.3466,0.363,0.457,0.5622,0.5782,0.6431,0.7317,0.8435,0.9131,0.9751,1.0799,1.1165,1.1247,1.1059,1.087,1.0744,1.0618,1.0637,1.0503,1.0118,1.0073,0.985,0.9127,0.9025,0.8559,0.7148,0.6465,0.5763,0.4959,0.4563,0.4089,0.3336,0.2588,0.1901,0.1144,0.0135,-0.074,-0.1411,-0.2412,-0.3609,-0.5067,-0.6199,-0.719,-0.7982,-0.9102,-1.016,-1.118,-1.3621,-1.5104,-1.5739,-1.7088,-1.7833,-1.7969,-1.8327,-1.8674,-1.8931,-1.9309,-1.9694,-2.0268,-2.1112,-2.1901,-2.2555,-2.2896,-2.3305,-2.3636,0.0,0.0,0.0,0.0,0.0,0.0,0.0,0.0,0.0,0.0,0.0,0.0,0.0,0.0,0.0,0.0,0.0,0.0,0.4901,0.4551,0.4227,0.3836,0.3547,0.3014,0.224,0.1788,0.1448,0.1164,0.1164,0.1253,0.1386,0.1326,0.1347,0.1403,0.1234,0.1178,0.1122,0.0898,0.0842,0.0785,0.0617,0.0561,0.0,0.0,0.0,0.0,0.0,0.0,0.0,0.0,0.2535,0.3249,0.3229,0.4291,0.5563,0.5727,0.648,0.7466,0.8435,0.9296,1.01,1.0857,1.1451,1.1717,1.1243,1.1036,1.094,1.085,1.0779,1.0719,1.0501,1.0398,1.0177,0.9711,0.9554,0.912,0.7877,0.712,0.6272,0.5219,0.4761,0.4292,0.3623,0.2883,0.2147,0.1478,0.074,-0.0067,-0.1076,-0.1745,-0.2746,-0.4273,-0.5665,-0.6728,-0.7521,-0.8501,-0.9274,-0.9658,-1.1952,-1.358,-1.4664,-1.5993,-1.6862,-1.7345,-1.7774,-1.8066,-1.8347,-1.8731,-1.8977,-1.9365,-2.0741,-2.1588,-2.2037,-2.2432,-2.2775,-2.3173,0.0,0.0,0.0,0.0,0.0,0.0,0.0,0.0,0.353,0.3836,0.443,0.0,0.0,0.0,0.0,0.0,0.0,0.0,0.3986,0.4167,0.4282,0.4285,0.3833,0.3624,0.3569,0.2705,0.1936,0.1312,0.1312,0.1389,0.1494,0.1381,0.1403,0.1572,0.1402,0.129,0.1289,0.1177,0.1121,0.1066,0.0953,0.0897,0.0898,0.0,0.0,0.0,0.0,0.0,0.0,0.0,0.2385,0.3517,0.3589,0.4398,0.5391,0.5991,0.6799,0.7711,0.8713,0.9768,1.065,1.0936,1.1677,1.2089,1.1443,1.095,1.062,1.0801,1.0548,1.0413,1.084,1.0742,1.0448,0.9977,0.9822,0.9319,0.7897,0.7391,0.6675,0.5286,0.5087,0.4891,0.4367,0.3623,0.2882,0.2146,0.1478,0.047,-0.1008,-0.1745,-0.2746,-0.4207,-0.5668,-0.6728,-0.7456,-0.8182,-0.8765,-0.9274,-1.0111,-1.1626,-1.3735,-1.4588,-1.572,-1.7079,-1.707,-1.7432,-1.8008,-1.8008,-1.8395,-1.911,-2.0549,-2.106,-2.1198,-2.1925,-2.2185,-2.2197,0.0,0.0,0.0,0.0,0.0,0.0,0.0,0.0,0.37,0.388,0.3832,0.0,0.0,0.0,0.0,0.0,0.0,0.0,0.3979,0.4072,0.3969,0.3655,0.3959,0.3758,0.2965,0.2717,0.2226,0.1574,0.1534,0.1564,0.1715,0.1676,0.1663,0.1679,0.1517,0.1389,0.1355,0.1251,0.1111,0.1028,0.0974,0.0934,0.0898,0.0,0.0,0.0,0.0,0.0,0.0,0.0,0.0,0.0,0.2839,0.3848,0.4986,0.5423,0.6406,0.7499,0.8094,0.9002,1.0027,1.0842,1.1451,1.1781,1.169,1.1716,1.1732,1.1413,1.0777,1.0292,1.0296,1.0388,1.0299,0.9705,0.9753,0.96,0.8733,0.7972,0.7321,0.6671,0.6017,0.5422,0.4891,0.4217,0.3549,0.2948,0.1746,0.0941,0.047,-0.0739,-0.1812,-0.2744,-0.414,-0.5533,-0.6728,-0.7456,-0.8112,-0.877,-0.935,-1.06,-1.2376,-1.3781,-1.4755,-1.5384,-1.6515,-1.7079,-1.7295,-1.7794,-1.8395,-1.9044,-1.9431,-2.0215,-2.1123,-2.1325,-2.1726,-2.2197,0.0,0.0,0.0,0.0,0.0,0.0,0.0,0.0,0.3788,0.4012,0.3836,0.3792,0.0,0.0,0.0,0.384,0.3663,0.0,0.3607,0.361,0.3517,0.3319,0.3736,0.3613,0.2854,0.2856,0.2607,0.2121,0.2076,0.2031,0.209,0.1978,0.1889,0.1827,0.1617,0.1494,0.1463,0.1312,0.1227,0.1149,0.1112,0.1025,0.0936,0.0,0.0,0.0,0.0,0.0,0.0,0.0,0.0,0.0,0.2225,0.3222,0.4352,0.4889,0.6072,0.7318,0.7847,0.8891,0.9987,1.069,1.1197,1.1548,1.1775,1.171,1.1499,1.1099,1.0519,1.0161,1.0181,1.0103,1.0084,1.0012,0.9741,0.9521,0.9356,0.8425,0.7652,0.7265,0.6609,0.5951,0.5153,0.4686,0.4084,0.3282,0.2414,0.1678,0.1143,0.0,-0.1074,-0.2079,-0.3542,-0.4806,-0.5935,-0.6994,-0.7722,-0.8117,-0.8888,-1.0015,-1.1323,-1.2436,-1.3523,-1.4473,-1.6157,-1.6932,-1.6932,-1.7725,-1.8269,-1.8654,-1.8911,-1.9497,-2.0279,-2.0613,-2.1135,-2.1788,0.0,0.0,0.3239,0.3281,0.0,0.0,0.0,0.0,0.3873,0.4184,0.4092,0.4049,0.0,0.0,0.0,0.3628,0.326,0.3031,0.2984,0.2994,0.3051,0.3213,0.3346,0.3358,0.313,0.313,0.3077,0.2856,0.2802,0.2697,0.2552,0.2393,0.2189,0.201,0.1758,0.1604,0.1598,0.1449,0.1401,0.1409,0.1301,0.1166,0.1016,0.1104,0.0,0.0,0.0,0.0,0.0,0.0,0.0,0.0,0.1773,0.2581,0.3621,0.441,0.5667,0.7005,0.7803,0.9039,1.019,1.0376,1.0818,1.1295,1.161,1.1083,1.0442,1.0215,1.0065,0.9998,1.0232,0.9982,0.9884,1.0464,0.9744,0.9273,0.9799,0.8849,0.7897,0.7461,0.7003,0.6342,0.5352,0.5219,0.4686,0.3482,0.3282,0.2614,0.1276,0.0469,-0.0536,-0.1946,-0.3345,-0.4475,-0.5209,-0.6662,-0.7456,-0.7521,-0.8689,-0.9651,-1.0403,-1.1041,-1.2305,-1.4231,-1.5878,-1.6757,-1.6941,-1.7647,-1.794,-1.8076,-1.8654,-1.8977,-1.911,-1.977,-2.042,-2.0996,0.0,0.0,0.3614,0.3999,0.0,0.0,0.0,0.418,0.3961,0.3829,0.3565,0.3391,0.3435,0.3328,0.0,0.3302,0.3212,0.3125,0.2988,0.308,0.3189,0.3213,0.3528,0.366,0.3469,0.3577,0.3849,0.4288,0.3511,0.3073,0.292,0.2973,0.2722,0.2313,0.1978,0.1707,0.1427,0.1427,0.1358,0.1304,0.1314,0.1266,0.1226,0.1236,0.12,0.0,0.0,0.0,0.0,0.0,0.0,0.0,0.1619,0.2087,0.2645,0.3712,0.4619,0.56,0.6913,0.8027,0.8959,0.9702,1.0265,1.0667,1.0841,1.0501,1.0204,1.0436,1.0401,1.0176,0.9413,0.9925,1.0261,0.9761,0.9715,0.9927,1.0282,0.9328,0.86,0.8796,0.7977,0.7064,0.6408,0.5951,0.5422,0.4752,0.3749,0.2815,0.1946,0.1208,0.0201,-0.1276,-0.2146,-0.3211,-0.4472,-0.5932,-0.6924,-0.7521,-0.8312,-0.8986,-0.9621,-1.0758,-1.2305,-1.4146,-1.4502,-1.5523,-1.6932,-1.7079,-1.751,-1.8008,-1.8134,-1.8519,-1.9044,-1.9177,-1.9694,-2.0355,0.0,0.0,0.0,0.0,0.0,0.0,0.0,0.0,0.4403,0.4142,0.3945,0.3715,0.3494,0.3358,0.0,0.0,0.3315,0.3266,0.3175,0.324,0.3363,0.3499,0.3749,0.3855,0.3802,0.3855,0.4184,0.4783,0.4508,0.423,0.3869,0.3678,0.3318,0.2756,0.2192,0.1884,0.1842,0.1671,0.1588,0.1533,0.1593,0.1506,0.1355,0.1403,0.1326,0.1178,0.1178,0.0,0.0,0.0,0.0,0.0,0.0,0.0,0.2108,0.2765,0.4019,0.5357,0.642,0.7699,0.8912,0.976,1.0118,1.0257,1.0522,1.0408,1.0287,1.0535,1.0393,1.0082,0.9425,0.9831,1.0214,1.0079,1.007,1.0233,1.078,0.9907,0.9241,0.932,0.8366,0.7461,0.6741,0.6478,0.5951,0.5153,0.4483,0.3549,0.2146,0.1745,0.0739,-0.1076,-0.1745,-0.2613,-0.3744,-0.514,-0.6264,-0.6994,-0.7657,-0.8366,-0.9075,-1.0588,-1.1822,-1.2803,-1.3729,-1.4657,-1.561,-1.6504,-1.7148,-1.751,-1.7862,-1.8202,-1.8529,-1.8529,-1.8988,-1.9639,0.0,0.0,0.0,0.0,0.0,0.0,0.0,0.0,0.0,0.4428,0.4424,0.4236,0.3839,0.3607,0.3507,0.0,0.0,0.0,0.3385,0.3431,0.3575,0.3841,0.3963,0.4024,0.4024,0.4024,0.4353,0.4952,0.534,0.5333,0.4902,0.4532,0.3982,0.3402,0.2546,0.2261,0.2301,0.2042,0.1923,0.1935,0.197,0.1824,0.1538,0.1579,0.1507,0.1347,0.1347,0.1347,0.129,0.1122,0.0,0.0,0.0,0.0,0.1716,0.2016,0.3508,0.5202,0.6005,0.7538,0.9155,1.0027,1.0148,1.0082,1.0402,1.0515,1.0523,1.0576,1.0303,1.0038,0.9726,0.9833,1.0106,1.0546,1.0406,1.0509,1.1233,1.052,0.9787,0.9454,0.863,0.7787,0.6937,0.6741,0.6276,0.5289,0.5153,0.4284,0.2414,0.2146,0.1208,-0.0672,-0.1477,-0.2281,-0.3015,-0.4411,-0.5536,-0.64,-0.7256,-0.7977,-0.8619,-1.0139,-1.0942,-1.1279,-1.2848,-1.3721,-1.4082,-1.5687,-1.6477,-1.6624,-1.7482,-1.7794,-1.7794,-1.794,-1.8327,-1.8844,0.0,0.0,0.0,0.0,0.0,0.0,0.0,0.0,0.0,0.0,0.4004,0.3986,0.3805,0.3745,0.3695,0.3619,0.3564,0.3516,0.3423,0.0,0.0,0.3984,0.4125,0.4135,0.4024,0.4135,0.4463,0.5054,0.5164,0.523,0.5405,0.5271,0.4907,0.4266,0.3386,0.2797,0.2449,0.2436,0.2383,0.2385,0.2157,0.2104,0.2061,0.1765,0.1641,0.1572,0.1572,0.1459,0.129,0.1122,0.1122,0.0,0.0,0.0,0.1185,0.1894,0.2763,0.3803,0.5291,0.7177,0.8868,0.9863,1.003,0.9991,1.0316,1.0578,1.0755,1.0744,1.0659,1.0439,0.9933,1.0272,1.0435,0.9986,1.0478,1.1013,1.1398,1.0857,1.0309,0.9926,0.9064,0.8166,0.7456,0.6999,0.6478,0.5822,0.5355,0.4483,0.3149,0.2414,0.1678,0.0807,-0.0538,-0.1544,-0.2214,-0.3678,-0.5071,-0.64,-0.7722,-0.8247,-0.8112,-0.8776,-0.9622,-1.0646,-1.1195,-1.2173,-1.338,-1.3997,-1.4701,-1.5351,-1.6587,-1.7079,-1.7148,-1.7794,-1.8076,-1.8202,0.0,0.0,0.0,0.0,0.0,0.0,0.0,0.0,0.0,0.0,0.0,0.4337,0.3976,0.3843,0.3734,0.3592,0.3534,0.3478,0.3419,0.3446,0.368,0.406,0.4129,0.4165,0.4294,0.4353,0.4625,0.5222,0.5222,0.5458,0.5863,0.5539,0.4967,0.4295,0.3522,0.3113,0.3007,0.2796,0.2723,0.2727,0.2624,0.2599,0.252,0.2138,0.2015,0.2013,0.1808,0.1629,0.1515,0.1122,0.101,0.0954,0.0673,0.0,0.0,0.0,0.2048,0.3228,0.5291,0.7281,0.8857,0.9575,0.9802,0.9981,1.0591,1.0854,1.0977,1.1171,1.1088,1.0994,1.0852,1.0871,1.0971,1.0995,1.1161,1.1392,1.1733,1.1376,1.0829,1.0072,0.9262,0.8431,0.7587,0.726,0.6802,0.5954,0.569,0.4885,0.3282,0.251,0.1782,0.1142,-0.0331,-0.1256,-0.1544,-0.2947,-0.4345,-0.5679,-0.6933,-0.7265,-0.6933,-0.7712,-0.8479,-0.9236,-1.0312,-1.1108,-1.1776,-1.3028,-1.3766,-1.4308,-1.5283,-1.6033,-1.6655,-1.707,-1.7501,-1.792,0.0,0.0,0.0,0.0,0.0,0.0,0.0,0.0,0.0,0.0,0.0,0.4526,0.4077,0.0,0.0,0.0,0.3465,0.3414,0.346,0.3469,0.3623,0.0,0.4121,0.4244,0.4406,0.4498,0.468,0.5117,0.5117,0.5336,0.5773,0.5336,0.4783,0.4197,0.3714,0.3444,0.3441,0.3198,0.3061,0.3069,0.3067,0.2994,0.2897,0.2518,0.2448,0.2489,0.2069,0.1932,0.1873,0.1125,0.0898,0.0842,0.0336,0.0342,0.0,0.0,0.0,0.2937,0.5359,0.7049,0.8376,0.9175,0.9569,0.9942,1.0704,1.1004,1.1204,1.1413,1.1496,1.154,1.1689,1.1344,1.1248,1.1743,1.1688,1.1717,1.1921,1.1836,1.1296,1.0085,0.9454,0.8689,0.7587,0.7521,0.7134,0.6152,0.5917,0.5229,0.3777,0.284,0.2055,0.1379,0.0193,-0.0645,-0.0997,-0.2536,-0.3813,-0.4746,-0.5939,-0.6342,-0.6141,-0.6798,-0.7391,-0.7852,-0.9265,-1.0005,-1.0352,-1.1829,-1.2646,-1.3104,-1.4082,-1.493,-1.5678,-1.6114,-1.6715,-1.7354,0.0,0.0,0.0,0.0,0.0,0.0,0.0,0.0,0.0,0.0,0.0,0.4236,0.4184,0.405,0.3899,0.3614,0.3478,0.3459,0.3604,0.3567,0.3726,0.3976,0.412,0.0,0.4207,0.4392,0.4519,0.4519,0.4519,0.4574,0.457,0.4574,0.4405,0.4184,0.4015,0.3849,0.3574,0.3569,0.3566,0.3522,0.335,0.3278,0.3236,0.303,0.2944,0.2936,0.2493,0.2349,0.2221,0.1247,0.0898,0.0729,-0.0112,0.0,0.034,0.0,0.0,0.0,0.5196,0.6124,0.688,0.869,0.9291,0.9704,1.0268,1.0996,1.1451,1.1341,1.1717,1.2089,1.2251,1.1639,1.1148,1.1293,1.1673,1.1937,1.1842,1.1966,1.149,0.9964,0.9582,0.8941,0.7652,0.7521,0.726,0.6675,0.6061,0.5523,0.5014,0.3758,0.2776,0.216,0.1543,0.0563,-0.0774,-0.2703,-0.3735,-0.3801,-0.5266,-0.6005,-0.6075,-0.6141,-0.6276,-0.6548,-0.7671,-0.8646,-0.9624,-1.0221,-1.0811,-1.156,-1.3096,-1.3693,-1.3886,-1.4898,-1.5728,-1.6376,0.0,0.0,0.0,0.0,0.0,0.0,0.0,0.0,0.0,0.0,0.0,0.0,0.0,0.4147,0.4016,0.3772,0.343,0.3283,0.3333,0.3242,0.3432,0.3857,0.3919,0.4085,0.4382,0.4491,0.4519,0.4519,0.4519,0.4519,0.4519,0.4519,0.4411,0.4193,0.4079,0.391,0.3744,0.3638,0.3626,0.3697,0.3621,0.367,0.3799,0.3461,0.3363,0.3404,0.2938,0.2668,0.2293,0.1344,0.0868,0.0519,-0.0169,-0.0393,-0.0395,-0.0058,0.1125,0.258,0.3456,0.4778,0.6218,0.7092,0.8124,0.9162,0.9962,1.045,1.0919,1.1531,1.1615,1.1685,1.1934,1.1796,1.1674,1.1721,1.2091,1.2225,1.1844,1.1981,1.174,1.071,0.9958,0.9134,0.8231,0.7782,0.7265,0.6741,0.6378,0.5828,0.4998,0.4039,0.3246,0.2766,0.181,0.0667,-0.0688,-0.1261,-0.2045,-0.2931,-0.3709,-0.4273,-0.4755,-0.5481,-0.5815,-0.5951,-0.6675,-0.7461,-0.8236,-0.8907,-0.9694,-1.0539,-1.1068,-1.1948,-1.3051,-1.3723,-1.4477,-1.5204,0.0,0.0,0.0,0.6262,0.0,0.5542,0.5411,0.5048,0.465,0.4253,0.0,0.0,0.0,0.0,0.4093,0.3839,0.3544,0.3398,0.3395,0.3263,0.3382,0.3857,0.3866,0.4032,0.4385,0.4491,0.4519,0.4519,0.4519,0.4519,0.4519,0.4519,0.4408,0.4301,0.4135,0.3965,0.3852,0.3747,0.3736,0.3814,0.3957,0.4033,0.3993,0.3932,0.3852,0.3836,0.3409,0.3061,0.2739,0.1869,0.1372,0.0951,0.0058,-0.0621,-0.09,-0.0115,0.0809,0.1744,0.234,0.3555,0.4973,0.6005,0.7011,0.8081,0.9364,0.9832,1.0233,1.1031,1.1303,1.1428,1.156,1.1928,1.2093,1.1888,1.2171,1.2161,1.1648,1.1934,1.1794,1.0766,1.0205,0.9576,0.8619,0.8102,0.7587,0.6999,0.6573,0.6055,0.5424,0.4526,0.3782,0.3275,0.2065,0.1009,0.0242,-0.0122,-0.0745,-0.171,-0.2302,-0.2921,-0.3508,-0.4331,-0.4812,-0.5011,-0.5617,-0.6474,-0.7521,-0.7977,-0.8712,-0.9526,-0.9614,-1.0489,-1.1769,-1.2213,-1.2942,-1.3942,0.6199,0.6485,0.6708,0.6699,0.6653,0.6357,0.5661,0.5784,0.5582,0.4404,0.0,0.0,0.0,0.0,0.0,0.3833,0.3727,0.3723,0.3813,0.3694,0.3729,0.3969,0.4026,0.405,0.42,0.4392,0.4519,0.4519,0.4519,0.4519,0.4519,0.4519,0.4519,0.4519,0.4301,0.4138,0.4024,0.4024,0.3913,0.3828,0.4249,0.4177,0.3971,0.4395,0.4492,0.4284,0.3836,0.3732,0.3587,0.2735,0.24,0.2081,0.0474,-0.0631,-0.1063,0.0056,0.028,0.0564,0.0,0.0,0.0,0.5585,0.5973,0.6358,0.8435,0.9176,0.9549,0.992,1.08,1.1428,1.1122,1.1802,1.2236,1.1685,1.1872,1.1879,1.1185,1.174,1.167,1.0205,1.0458,1.0135,0.8678,0.849,0.8231,0.7587,0.6768,0.6306,0.6413,0.5311,0.4353,0.3627,0.2362,0.1702,0.1819,0.0605,-0.0061,-0.0123,-0.1142,-0.193,-0.2445,-0.2777,-0.3211,-0.3744,-0.448,-0.5804,-0.7391,-0.7456,-0.7842,-0.8511,-0.8737,-0.9298,-1.0007,-1.0268,-1.1259,-1.2557,0.6079,0.6927,0.7497,0.6721,0.6966,0.7083,0.652,0.599,0.5526,0.0,0.0,0.0,0.4501,0.4334,0.4177,0.4082,0.3878,0.382,0.392,0.3831,0.3876,0.4127,0.4133,0.4253,0.4399,0.4498,0.4519,0.4519,0.4519,0.4519,0.4519,0.4519,0.4519,0.4519,0.4463,0.4408,0.4353,0.4076,0.4077,0.4246,0.4169,0.4271,0.4519,0.4305,0.435,0.4489,0.4193,0.3982,0.3699,0.3017,0.2224,0.1197,-0.0479,-0.0863,-0.0672,-0.0783,-0.0168,0.0618,0.0793,0.0,0.0,0.0,0.0,0.0,0.6809,0.7731,0.8655,0.9617,0.9994,1.0219,1.0494,1.0919,1.1115,1.0724,1.1413,1.174,1.08,1.0989,1.1052,1.0611,0.9964,0.9454,0.9262,0.856,0.8177,0.8247,0.785,0.7238,0.6353,0.5083,0.4135,0.3741,0.3266,0.2717,0.2099,0.166,0.0989,0.0178,-0.043,-0.1072,-0.174,-0.2515,-0.3013,-0.328,-0.4348,-0.508,-0.5606,-0.6272,-0.7064,-0.7787,-0.7846,-0.8325,-0.9006,-0.9795,-1.0361,-1.0922,0.6422,0.736,0.8005,0.747,0.7613,0.7583,0.6923,0.655,0.6072,0.0,0.0,0.0,0.4622,0.4443,0.4338,0.4338,0.42,0.415,0.4202,0.4045,0.4075,0.4331,0.4227,0.4317,0.4515,0.4519,0.4519,0.4519,0.4519,0.4519,0.4519,0.4519,0.4519,0.4519,0.4519,0.4519,0.4463,0.4298,0.4226,0.4318,0.4355,0.4449,0.4598,0.4567,0.4561,0.4561,0.4495,0.4231,0.3951,0.3624,0.2598,0.1212,0.0182,-0.0414,-0.0813,-0.0903,-0.0453,0.0114,0.0394,0.1008,0.175,0.2503,0.0,0.0,0.5655,0.6415,0.7179,0.844,0.9,0.9262,0.9406,0.9958,1.0288,0.9964,1.0268,1.0591,1.0421,1.0737,1.0863,1.0491,1.004,0.9716,0.9518,0.8947,0.8565,0.8511,0.8285,0.7629,0.6298,0.5212,0.4467,0.4187,0.3904,0.3514,0.2959,0.2348,0.1752,0.1093,0.0476,0.0,-0.031,-0.1278,-0.1693,-0.1778,-0.3027,-0.3843,-0.435,-0.515,-0.6079,-0.6806,-0.6806,-0.7256,-0.7917,-0.8504,-0.9156,-0.9843,0.0,0.7725,0.836,0.8593,0.8419,0.7996,0.7166,0.7187,0.6756,0.0,0.5391,0.5449,0.4798,0.4577,0.4519,0.4519,0.4519,0.4519,0.4519,0.4341,0.4328,0.4512,0.4338,0.4331,0.4515,0.4519,0.4519,0.4519,0.4519,0.4519,0.4519,0.4519,0.4519,0.4519,0.4519,0.4519,0.4519,0.4515,0.4418,0.4294,0.4667,0.4735,0.455,0.4909,0.4875,0.4625,0.4625,0.4495,0.43,0.4164,0.3095,0.179,0.1619,0.0369,-0.0974,-0.0634,-0.0579,-0.0471,0.04,0.0624,0.0855,0.2099,0.2246,0.0,0.4787,0.5207,0.5437,0.6647,0.7683,0.827,0.797,0.8773,0.9442,0.9035,0.879,0.8994,0.9977,1.0541,1.0604,0.9849,1.0098,1.0091,0.932,0.9256,0.9005,0.8511,0.8285,0.7583,0.6395,0.5578,0.5037,0.4802,0.4343,0.4116,0.4064,0.3014,0.2406,0.2296,0.1448,0.1177,0.1353,0.0365,0.0,0.0064,-0.1282,-0.2405,-0.3323,-0.4132,-0.5008,-0.5888,-0.5888,-0.628,-0.6793,-0.6859,-0.7837,-0.9075,0.7506,0.8331,0.8859,0.8658,0.8621,0.848,0.7782,0.6912,0.6164,0.5837,0.5395,0.4956,0.4743,0.4688,0.4632,0.4519,0.4519,0.4519,0.4519,0.4491,0.4433,0.4515,0.4436,0.4433,0.4519,0.4519,0.4519,0.4519,0.4519,0.4519,0.4519,0.4519,0.4519,0.4519,0.4632,0.4577,0.4519,0.4736,0.4755,0.4596,0.4591,0.4826,0.5202,0.4816,0.4795,0.4957,0.4691,0.4561,0.4425,0.3551,0.3027,0.2506,0.1022,0.0815,0.0796,-0.0728,-0.0364,0.0366,-0.0727,-0.0605,-0.006,0.0472,0.0833,0.0,0.2807,0.3554,0.4104,0.4803,0.5636,0.6235,0.6073,0.7053,0.7698,0.7278,0.784,0.8409,0.8812,0.8613,0.835,0.8161,0.7832,0.7702,0.7772,0.7577,0.7707,0.8425,0.7964,0.7532,0.7249,0.6062,0.5276,0.5191,0.512,0.4889,0.456,0.434,0.379,0.291,0.2481,0.211,0.1824,0.0789,0.0309,0.0248,-0.1056,-0.1808,-0.2008,-0.2885,-0.4259,-0.5888,-0.5888,-0.5954,-0.6148,-0.6732,-0.712,-0.7447,0.8136,0.8999,0.9471,0.9193,0.8961,0.8598,0.8009,0.6853,0.6105,0.6105,0.5395,0.4875,0.4907,0.4734,0.4608,0.4625,0.4563,0.4519,0.4519,0.4519,0.4519,0.4519,0.4519,0.4519,0.4519,0.4519,0.4519,0.4519,0.4519,0.4519,0.4519,0.4574,0.4671,0.4738,0.4772,0.4838,0.4854,0.4879,0.4885,0.4817,0.4828,0.4975,0.5247,0.5052,0.5029,0.5087,0.4891,0.4758,0.4492,0.3889,0.3123,0.236,0.1809,0.1415,0.0895,-0.0186,0.0062,0.0439,-0.0619,-0.0801,-0.0552,-0.0241,0.0182,0.0,0.0,0.2305,0.3038,0.3556,0.4244,0.4623,0.4454,0.5167,0.5731,0.5868,0.5998,0.6342,0.6972,0.7577,0.7767,0.7233,0.7242,0.7181,0.6915,0.7051,0.7381,0.8032,0.758,0.7226,0.7233,0.6226,0.5629,0.5595,0.5716,0.5609,0.523,0.5062,0.4673,0.4015,0.3286,0.2915,0.2866,0.1807,0.1185,0.0902,-0.006,-0.091,-0.1665,-0.2062,-0.3066,-0.4327,-0.4923,-0.5355,-0.569,-0.6017,-0.64,-0.6854,0.8777,0.9564,0.9973,0.98,0.9233,0.8552,0.7913,0.6879,0.6154,0.6046,0.5452,0.5091,0.5139,0.489,0.477,0.4841,0.4737,0.4661,0.4661,0.4633,0.4573,0.4604,0.4549,0.4532,0.4563,0.4532,0.4519,0.4519,0.4519,0.4519,0.4519,0.4632,0.4769,0.497,0.4952,0.5024,0.5085,0.5061,0.4989,0.4983,0.516,0.5167,0.5104,0.5257,0.5249,0.5117,0.5077,0.4888,0.4558,0.4231,0.3288,0.2204,0.2483,0.1846,0.0932,0.0318,0.0319,0.0387,-0.0379,-0.0815,-0.0937,-0.0679,-0.0433,-0.0062,0.0,0.0,0.0,0.229,0.2806,0.3115,0.3068,0.3393,0.3848,0.4364,0.4066,0.4038,0.4851,0.625,0.6928,0.6302,0.6645,0.6584,0.592,0.6584,0.7251,0.7647,0.7364,0.7129,0.7149,0.6469,0.6084,0.6063,0.6249,0.6256,0.6014,0.5778,0.5445,0.5062,0.4281,0.3898,0.3907,0.2959,0.2269,0.1745,0.0989,0.0,-0.115,-0.1279,-0.1793,-0.2531,-0.3736,-0.4602,-0.516,-0.5292,-0.5815,-0.6461,0.9394,0.9648,0.98,1.0027,0.936,0.8503,0.7655,0.6769,0.5991,0.5458,0.5628,0.5656,0.5405,0.5502,0.5468,0.5314,0.5295,0.5224,0.51,0.5024,0.4896,0.486,0.4606,0.458,0.4663,0.4587,0.4519,0.4519,0.4519,0.4574,0.4688,0.4574,0.4657,0.4926,0.5078,0.502,0.4803,0.5304,0.5393,0.5189,0.5446,0.5286,0.4958,0.5101,0.5091,0.5108,0.5107,0.4888,0.4492,0.3823,0.3353,0.2813,0.1471,0.1873,0.241,0.0067,0.0334,0.1001,-0.0932,-0.1466,-0.1514,-0.1374,-0.1319,-0.1202,-0.0841,0.0,-0.0493,0.0124,0.0,0.1281,0.1866,0.0,0.0,0.2546,0.272,0.2782,0.2604,0.3099,0.3826,0.4737,0.435,0.3951,0.3816,0.52,0.6449,0.7456,0.7572,0.7604,0.7591,0.7111,0.6736,0.6587,0.6791,0.686,0.6771,0.6869,0.6485,0.5719,0.5928,0.5487,0.4405,0.4003,0.34,0.2697,0.1517,0.0902,0.0568,-0.0176,-0.083,-0.1611,-0.3223,-0.3999,-0.4217,-0.4888,-0.5289,-0.5557,0.9599,0.9686,0.9773,1.0067,0.9519,0.893,0.857,0.7566,0.6712,0.6276,0.5877,0.5608,0.5673,0.5509,0.5453,0.5585,0.5456,0.5339,0.5214,0.515,0.5026,0.4914,0.4796,0.4714,0.4691,0.4626,0.4551,0.4519,0.4519,0.4519,0.4574,0.4632,0.4763,0.5054,0.5257,0.5321,0.5434,0.5572,0.5455,0.5262,0.5831,0.5632,0.4998,0.5392,0.552,0.5397,0.5196,0.502,0.4821,0.4425,0.3553,0.275,0.295,0.2549,0.1812,0.1007,0.0873,0.0671,-0.074,-0.1008,-0.093,-0.1468,-0.102,-0.064,-0.1186,-0.0988,-0.0684,-0.0708,0.0,0.0,0.0,0.0,0.0,0.0,0.0786,0.1083,0.1591,0.1701,0.2075,0.3006,0.3416,0.3818,0.4223,0.5011,0.5734,0.6075,0.6937,0.7298,0.6948,0.7225,0.7267,0.7066,0.7338,0.7383,0.7036,0.7252,0.7079,0.6539,0.6154,0.5828,0.5546,0.4505,0.384,0.3448,0.2176,0.1399,0.0952,0.0171,-0.0289,-0.065,-0.1788,-0.2933,-0.3931,-0.4326,-0.4818,-0.5226,0.9921,0.9976,1.0012,1.0248,0.9916,0.9515,0.9143,0.8034,0.7188,0.6942,0.6156,0.5738,0.5939,0.5716,0.5632,0.5878,0.5727,0.5596,0.5468,0.5363,0.5301,0.5165,0.5023,0.4887,0.4876,0.4775,0.4701,0.4585,0.4601,0.4584,0.4636,0.465,0.4834,0.515,0.5258,0.5475,0.5696,0.5859,0.5755,0.5474,0.6315,0.6138,0.5446,0.5702,0.569,0.5491,0.5294,0.5098,0.4966,0.4638,0.373,0.2952,0.3754,0.295,0.1746,0.1878,0.1543,0.094,-0.0202,-0.0336,-0.0332,-0.1284,-0.0827,-0.0444,-0.1448,-0.1368,-0.1062,-0.1184,-0.1358,0.0,0.0,0.0,-0.1332,-0.0796,0.0,-0.0474,0.0244,0.0187,0.0573,0.1783,0.2669,0.3549,0.4492,0.4885,0.508,0.5219,0.6474,0.7007,0.6613,0.7452,0.7835,0.7657,0.7888,0.7875,0.7509,0.7609,0.7568,0.7246,0.6431,0.61,0.6199,0.4952,0.4233,0.4003,0.2679,0.1956,0.1509,0.0504,0.0114,0.0175,-0.0546,-0.1746,-0.3126,-0.3636,-0.435,-0.5024,1.052,1.0583,1.0613,1.0739,1.0554,1.0007,0.898,0.7896,0.7111,0.6921,0.6619,0.6331,0.6227,0.6294,0.6396,0.6408,0.6338,0.6334,0.6195,0.5845,0.577,0.587,0.5258,0.5044,0.5375,0.5047,0.4908,0.4904,0.4755,0.4745,0.4861,0.4643,0.4661,0.4944,0.5142,0.5214,0.529,0.6369,0.6509,0.5947,0.6813,0.6867,0.631,0.5894,0.5586,0.5399,0.5399,0.5209,0.4826,0.4046,0.3798,0.3623,0.2751,0.2883,0.3218,0.2213,0.2414,0.2546,0.0739,0.0269,0.0,-0.1126,-0.1357,-0.1469,-0.1782,-0.2173,-0.2302,-0.1732,-0.1908,-0.1941,-0.1208,-0.1377,-0.1528,-0.1422,-0.156,0.0,0.0,-0.1862,-0.0904,0.1344,0.1786,0.2485,0.3882,0.4217,0.4686,0.5547,0.6605,0.7204,0.7204,0.7982,0.8521,0.8584,0.8448,0.8421,0.8559,0.8298,0.8002,0.767,0.7246,0.6647,0.5828,0.5441,0.4846,0.4138,0.2959,0.2623,0.2681,0.0952,0.0449,0.0791,0.0181,-0.0494,-0.1365,-0.2956,-0.409,-0.4831,1.0456,1.0704,1.094,1.0975,1.0725,1.0436,1.0021,0.9112,0.8471,0.8612,0.7996,0.7458,0.709,0.6971,0.6792,0.6408,0.642,0.635,0.6214,0.5967,0.5829,0.5888,0.5459,0.5253,0.5396,0.515,0.5013,0.4918,0.4765,0.4749,0.4749,0.4591,0.4601,0.4759,0.5086,0.5333,0.5568,0.6053,0.6129,0.5899,0.6211,0.6566,0.6854,0.6278,0.5928,0.5709,0.5456,0.5262,0.4986,0.4612,0.4195,0.3841,0.3975,0.3565,0.2947,0.295,0.2645,0.2151,0.1435,0.1543,0.1451,-0.0062,0.0061,0.012,-0.1331,-0.1712,-0.1926,-0.2174,-0.2436,-0.2552,-0.2487,-0.2758,-0.2889,-0.2668,-0.2597,-0.2536,0.0,-0.2071,-0.1372,-0.0248,0.032,0.1433,0.3452,0.384,0.4217,0.5027,0.6086,0.6745,0.6872,0.7782,0.8457,0.8775,0.8872,0.8889,0.8732,0.846,0.8268,0.8156,0.7509,0.7074,0.6745,0.5769,0.5171,0.4842,0.3566,0.2901,0.2569,0.1734,0.1008,0.0452,0.0541,-0.0123,-0.1178,-0.1839,-0.2882,-0.4023,1.0826,1.0981,1.1122,1.0996,1.0751,1.0624,1.0624,0.9888,0.9393,0.9494,0.8857,0.8249,0.7892,0.7526,0.7177,0.6798,0.6548,0.635,0.628,0.6086,0.602,0.6086,0.576,0.5643,0.5667,0.5403,0.5202,0.5061,0.4847,0.4745,0.4687,0.4591,0.4545,0.4697,0.4966,0.5305,0.5713,0.6074,0.6217,0.6057,0.6057,0.644,0.6863,0.6408,0.6108,0.5828,0.5579,0.5366,0.5083,0.4977,0.4565,0.4233,0.4681,0.416,0.3443,0.3706,0.3336,0.2657,0.2214,0.2371,0.2268,0.0849,0.0954,0.1004,-0.0542,-0.0977,-0.13,-0.1892,-0.2289,-0.2479,-0.232,-0.2894,-0.326,-0.29,-0.304,-0.3022,0.0,-0.2608,-0.2266,-0.1605,-0.0555,0.0761,0.2564,0.3262,0.3843,0.4289,0.5617,0.6539,0.6924,0.7907,0.8745,0.9283,0.9285,0.9176,0.8997,0.8667,0.8474,0.8474,0.7717,0.723,0.6961,0.5873,0.5222,0.4952,0.3898,0.3181,0.2794,0.2125,0.1344,0.062,0.0713,0.0183,-0.0683,-0.1052,-0.2213,-0.3553,1.156,1.1435,1.1185,1.0863,1.0681,1.0624,1.0624,1.0168,0.9773,0.9582,0.9128,0.8737,0.8549,0.7972,0.7587,0.7521,0.6872,0.6416,0.642,0.628,0.628,0.642,0.6086,0.602,0.621,0.5815,0.5549,0.5403,0.5058,0.4847,0.4707,0.4548,0.4555,0.4707,0.486,0.5192,0.5776,0.6521,0.6671,0.642,0.642,0.6416,0.642,0.642,0.6177,0.5817,0.5701,0.5514,0.5239,0.4969,0.49,0.4847,0.4658,0.4601,0.4607,0.4421,0.4296,0.3992,0.3129,0.2759,0.2433,0.1597,0.1349,0.1172,0.0411,-0.006,-0.0429,-0.0737,-0.1482,-0.1797,-0.0841,-0.191,-0.2729,-0.2135,-0.2834,-0.3283,-0.3034,-0.3505,-0.3553,-0.2667,-0.095,0.0435,0.1211,0.2562,0.3443,0.3538,0.5272,0.6588,0.7302,0.8355,0.921,0.9919,0.9567,0.9389,0.9395,0.8867,0.8626,0.8626,0.7871,0.7165,0.6411,0.5814,0.5164,0.446,0.3904,0.3519,0.3299,0.2125,0.1568,0.1239,0.0698,0.0361,0.0125,-0.0791,-0.208,-0.342,1.1247,1.1185,1.1122,1.1059,1.0996,1.087,1.0624,1.0555,1.0548,1.0485,1.0351,1.0028,0.9512,0.9192,0.8619,0.7587,0.733,0.7003,0.6416,0.628,0.628,0.642,0.6086,0.602,0.621,0.5954,0.5734,0.556,0.5289,0.5071,0.5013,0.4752,0.4714,0.4867,0.514,0.5416,0.5713,0.6201,0.6412,0.642,0.642,0.6609,0.699,0.7129,0.7353,0.7374,0.617,0.585,0.5938,0.5027,0.4798,0.4869,0.4748,0.4766,0.4793,0.4607,0.4354,0.4101,0.38,0.3505,0.3168,0.2337,0.2131,0.1992,0.1225,0.0945,0.0772,0.0415,0.0,-0.0454,-0.1159,-0.1842,-0.2477,-0.286,-0.3134,-0.3332,-0.3409,-0.3482,-0.3428,-0.3195,-0.189,-0.0489,0.0721,0.169,0.2709,0.3955,0.4698,0.5613,0.6798,0.7381,0.8226,0.9466,0.9071,0.9091,0.9628,0.9044,0.8752,0.8745,0.8468,0.7765,0.6745,0.6475,0.5719,0.4632,0.4467,0.3852,0.2905,0.2907,0.2406,0.1517,0.1161,0.0791,0.0321,-0.073,-0.1679,-0.2549,1.131,1.131,1.131,1.1185,1.1185,1.1122,1.0877,1.087,1.087,1.0807,1.087,1.0737,1.0225,0.9843,0.9262,0.8425,0.8102,0.7782,0.7326,0.7256,0.7256,0.7326,0.7125,0.706,0.719,0.6732,0.6363,0.6088,0.5527,0.5206,0.5033,0.4867,0.487,0.5013,0.529,0.5683,0.6262,0.6945,0.7064,0.6937,0.7195,0.7517,0.0,0.7907,0.8291,0.8542,0.6857,0.6347,0.6379,0.5206,0.4804,0.4766,0.4649,0.465,0.4718,0.4598,0.4368,0.4197,0.408,0.3913,0.3593,0.3142,0.3001,0.2761,0.198,0.176,0.17,0.1408,0.1038,0.0757,0.0503,-0.0645,-0.1984,-0.3017,-0.3251,-0.3268,-0.3356,-0.3366,-0.3297,-0.3209,-0.2015,-0.0846,-0.0058,0.1096,0.2334,0.365,0.4333,0.5315,0.6741,0.714,0.7967,0.9332,0.8884,0.8968,0.9686,0.9098,0.8804,0.8804,0.8745,0.8203,0.7235,0.6907,0.6154,0.5179,0.4853,0.3962,0.2792,0.3019,0.2404,0.1292,0.1103,0.0842,0.0498,-0.0192,-0.0921,-0.1678,1.1626,1.1626,1.1611,1.138,1.1373,1.131,1.1185,1.1122,1.1059,1.087,1.0996,1.0996,1.0751,1.0288,0.9837,0.9582,0.9005,0.8619,0.849,0.849,0.849,0.849,0.849,0.849,0.849,0.7767,0.7223,0.6921,0.6089,0.552,0.5156,0.5139,0.5147,0.5159,0.5357,0.6008,0.7055,0.8096,0.8166,0.7652,0.8296,0.8554,0.8619,0.8619,0.9069,0.9452,0.7807,0.7091,0.6643,0.5346,0.4849,0.4688,0.4574,0.4519,0.4519,0.4519,0.4356,0.4193,0.4193,0.4024,0.3852,0.3852,0.3732,0.3418,0.2705,0.2538,0.242,0.2203,0.1845,0.1825,0.2688,0.0813,-0.1289,-0.2593,-0.2806,-0.2781,-0.2647,-0.284,-0.2852,-0.2632,-0.1466,0.0,-0.0736,0.0773,0.2089,0.293,0.4026,0.5248,0.6576,0.7085,0.7972,0.9326,0.8823,0.8909,0.9737,0.9153,0.8804,0.8804,0.8804,0.8374,0.7616,0.7128,0.6475,0.5668,0.5014,0.4073,0.3016,0.2792,0.2012,0.1012,0.0983,0.0939,0.0827,0.0547,0.0,-0.0732,1.1955,1.1955,1.1867,1.1604,1.156,1.156,1.1498,1.1373,1.124,1.124,1.124,1.1247,1.1178,1.0989,1.0541,0.9837,0.9646,0.9256,0.8554,0.849,0.849,0.849,0.849,0.849,0.849,0.8355,0.8146,0.7911,0.7661,0.7138,0.6363,0.6219,0.593,0.5508,0.5712,0.6384,0.7456,0.8166,0.8425,0.8361,0.8425,0.8812,0.9326,0.9326,0.9779,1.0255,0.9223,0.8429,0.7474,0.5686,0.4959,0.4846,0.4688,0.4574,0.4519,0.4519,0.4356,0.4193,0.4193,0.4079,0.3965,0.3965,0.3778,0.3548,0.3407,0.3227,0.3079,0.312,0.289,0.2579,0.2176,0.0969,-0.0187,-0.0643,-0.0711,-0.0581,-0.0257,-0.0655,-0.0919,-0.0634,-0.0065,0.0256,0.0235,0.1026,0.1832,0.2554,0.3487,0.442,0.5315,0.612,0.726,0.8801,0.8265,0.8545,0.9846,0.9255,0.891,0.8804,0.8804,0.8268,0.7192,0.7079,0.6376,0.5234,0.4956,0.4401,0.3572,0.2959,0.2291,0.168,0.2138,0.2066,0.153,0.0889,0.0547,0.0314,1.2284,1.2153,1.1984,1.1831,1.167,1.1622,1.1622,1.1498,1.1435,1.1303,1.1303,1.124,1.1185,1.1185,1.0989,1.0351,1.0351,1.0098,0.9652,0.9588,0.9588,0.9588,0.9588,0.9588,0.9588,0.9198,0.8941,0.8753,0.8313,0.7861,0.7372,0.7145,0.6961,0.6854,0.7447,0.7777,0.8102,0.9134,0.939,0.9069,0.9454,0.9779,1.0104,1.0104,1.0295,1.0521,0.9587,0.9035,0.8371,0.6454,0.5417,0.4959,0.4849,0.4684,0.4632,0.4632,0.4467,0.4356,0.4356,0.4245,0.4079,0.4079,0.3923,0.3664,0.3614,0.3465,0.3338,0.34,0.33,0.296,0.2037,0.1444,0.0815,0.0125,-0.0127,-0.0064,0.0321,0.013,0.0065,0.0257,0.0857,0.1168,0.0948,0.1575,0.2313,0.3121,0.3668,0.4475,0.5568,0.6185,0.719,0.8672,0.8143,0.8481,1.002,0.9411,0.9061,0.891,0.891,0.8586,0.7949,0.7354,0.6756,0.6105,0.534,0.4625,0.3959,0.3125,0.2627,0.2348,0.2291,0.2033,0.1719,0.1034,0.0821,0.0667,1.2533,1.2314,1.2094,1.1955,1.1728,1.1622,1.1622,1.1622,1.156,1.1365,1.1365,1.131,1.1247,1.131,1.1247,1.0933,1.0933,1.0807,1.0618,1.0624,1.0624,1.0624,1.0624,1.0624,1.0624,1.004,0.9652,0.9594,0.9011,0.8554,0.8291,0.8096,0.8032,0.8091,0.8941,0.9139,0.8812,1.004,1.0231,0.9779,1.0364,1.0624,1.0624,1.0624,1.0624,1.0528,0.9848,0.9475,0.9053,0.7346,0.6146,0.5337,0.5022,0.4849,0.4743,0.4691,0.4632,0.4519,0.4519,0.4411,0.4249,0.4249,0.4006,0.3776,0.3675,0.3503,0.3349,0.3378,0.3404,0.319,0.2369,0.2242,0.1966,0.0973,0.0681,0.0757,0.1079,0.0958,0.1027,0.1411,0.177,0.1997,0.195,0.2224,0.2897,0.3873,0.404,0.4658,0.6006,0.6444,0.7256,0.8544,0.8204,0.8598,0.9955,0.9512,0.9211,0.9061,0.9008,0.8798,0.8427,0.7515,0.6977,0.6652,0.5563,0.4736,0.4122,0.3569,0.3236,0.307,0.2458,0.2125,0.1958,0.1344,0.1026,0.0765,1.2577,1.2497,1.2292,1.1706,1.1645,1.1622,1.1622,1.1622,1.156,1.156,1.156,1.156,1.156,1.156,1.1498,1.124,1.124,1.1115,1.0807,1.0807,1.0744,1.0624,1.0624,1.0624,1.0624,1.0561,1.0491,1.0498,1.0428,0.9977,0.9204,0.9139,0.8818,0.8231,0.9069,0.9454,0.9454,1.0231,1.0561,1.0498,1.0561,1.0624,1.0624,1.0624,1.0624,1.0618,1.0528,0.9962,0.9169,0.8315,0.723,0.6124,0.5337,0.5011,0.4846,0.4743,0.4688,0.4632,0.4519,0.4463,0.4463,0.4463,0.4141,0.3783,0.3786,0.3485,0.3242,0.3366,0.3489,0.3502,0.3314,0.3457,0.3416,0.2861,0.3069,0.3344,0.3442,0.2906,0.2829,0.3729,0.3035,0.2837,0.3818,0.2939,0.2884,0.4323,0.4213,0.4532,0.5497,0.631,0.7195,0.8231,0.8387,0.8774,0.9479,0.9552,0.9413,0.9159,0.9061,0.8468,0.745,0.7187,0.649,0.5462,0.5183,0.4677,0.4064,0.4508,0.4398,0.3898,0.3683,0.3294,0.2683,0.1958,0.1347,0.0911,1.2584,1.2365,1.2145,1.1889,1.1684,1.1626,1.1816,1.1845,1.1845,1.1845,1.1677,1.1622,1.1622,1.1622,1.1498,1.1303,1.1303,1.1178,1.0996,1.087,1.0807,1.0744,1.0624,1.0624,1.0624,1.0624,1.0624,1.0624,1.0624,1.0428,1.011,0.9983,0.9722,0.946,0.9977,1.0168,1.0168,1.0491,1.0624,1.0624,1.0624,1.0624,1.0624,1.0624,1.0624,1.0624,1.0624,1.0355,0.9968,0.9106,0.8049,0.6904,0.6205,0.6036,0.6041,0.5618,0.534,0.5117,0.4739,0.4574,0.4519,0.4519,0.4187,0.3916,0.3817,0.3551,0.3322,0.3378,0.3594,0.3703,0.364,0.3705,0.3698,0.3632,0.365,0.3795,0.4096,0.391,0.393,0.4469,0.4546,0.4592,0.4771,0.4432,0.46,0.554,0.485,0.4716,0.5434,0.6634,0.7591,0.8172,0.8337,0.8844,0.9659,0.9458,0.9165,0.8786,0.888,0.8364,0.7229,0.7021,0.6308,0.5297,0.5242,0.5073,0.4791,0.4956,0.4901,0.4622,0.4122,0.379,0.3456,0.2404,0.1903,0.164,1.2973,1.2779,1.2611,1.2603,1.2284,1.2119,1.245,1.2306,1.2175,1.2175,1.1984,1.1772,1.1645,1.1622,1.156,1.1373,1.1452,1.1403,1.1192,1.1143,1.1023,1.0807,1.0681,1.0624,1.0624,1.0624,1.0624,1.0624,1.0624,1.0624,1.0624,1.0434,1.0371,1.0371,1.0561,1.0624,1.0624,1.0624,1.0624,1.0624,1.0624,1.0624,1.0624,1.0624,1.0624,1.0624,1.0624,1.0624,1.0465,0.9612,0.8878,0.808,0.7079,0.6926,0.6942,0.645,0.6095,0.5819,0.5336,0.5117,0.5007,0.4791,0.4498,0.4214,0.3916,0.3648,0.3442,0.3442,0.3611,0.3741,0.3834,0.3825,0.3818,0.3898,0.396,0.4089,0.4336,0.4329,0.4487,0.4813,0.5052,0.536,0.556,0.5396,0.5607,0.6529,0.5793,0.5585,0.6145,0.7067,0.7757,0.8132,0.8351,0.8734,0.9367,0.9308,0.9099,0.8687,0.8976,0.8514,0.7344,0.6717,0.6072,0.5407,0.5352,0.5297,0.5297,0.5183,0.5183,0.5124,0.4567,0.4229,0.3953,0.307,0.2625,0.2372,1.3899,1.3958,1.4013,1.4059,1.3482,1.3155,1.3603,1.2983,1.2519,1.2519,1.2511,1.227,1.1696,1.1622,1.1622,1.1622,1.1845,1.1768,1.1324,1.1603,1.1503,1.0821,1.0807,1.0744,1.0624,1.0624,1.0624,1.0624,1.0624,1.0624,1.0624,1.0624,1.0624,1.0624,1.0624,1.0624,1.0624,1.0624,1.0624,1.0624,1.0624,1.0624,1.0624,1.0624,1.0624,1.0624,1.0624,1.0624,1.0491,0.9773,0.9781,0.976,0.804,0.7486,0.7437,0.703,0.6907,0.6799,0.647,0.6362,0.6195,0.5496,0.5068,0.4709,0.4118,0.3792,0.3581,0.3581,0.3581,0.3673,0.3965,0.3973,0.3968,0.3811,0.4305,0.4565,0.4275,0.4278,0.4429,0.4823,0.4199,0.4476,0.6404,0.5405,0.5312,0.7032,0.713,0.7225,0.7647,0.7453,0.7581,0.8083,0.8387,0.8459,0.8297,0.9138,0.9458,0.9204,0.9458,0.8922,0.7664,0.6263,0.5618,0.5567,0.5407,0.5297,0.5297,0.5297,0.5297,0.5297,0.5128,0.4736,0.4177,0.4009,0.3619,0.3037,1.4595,1.4582,1.4582,1.4573,1.4379,1.4377,1.4765,1.4546,1.441,1.441,1.3926,1.3481,1.3053,1.2548,1.2219,1.2219,1.2306,1.2254,1.2153,1.1912,1.1667,1.1503,1.1037,1.0807,1.0744,1.0624,1.0624,1.0624,1.0624,1.0624,1.0624,1.0624,1.0624,1.0624,1.0624,1.0624,1.0624,1.0624,1.0624,1.0624,1.0624,1.0624,1.0624,1.0624,1.0624,1.0624,1.0624,1.0624,1.0561,1.0364,1.0299,1.0285,0.9535,0.8978,0.8509,0.7788,0.7503,0.7343,0.6853,0.6578,0.6362,0.6091,0.5737,0.534,0.5238,0.4982,0.4661,0.436,0.453,0.4647,0.4213,0.4416,0.4521,0.4303,0.4448,0.4565,0.4696,0.471,0.4994,0.5837,0.6073,0.6672,0.7818,0.7619,0.7705,0.8373,0.8058,0.7669,0.7297,0.7871,0.8145,0.8078,0.8265,0.8397,0.8453,0.8663,0.858,0.8229,0.8541,0.8127,0.7045,0.6255,0.5841,0.5736,0.5567,0.5513,0.5517,0.5352,0.5297,0.5297,0.5242,0.5128,0.4904,0.4515,0.4236,0.3996,1.5532,1.5477,1.5596,1.5751,1.5498,1.5433,1.5822,1.5669,1.5472,1.5472,1.5041,1.4612,1.4476,1.3966,1.353,1.3013,1.3299,1.3517,1.3384,1.3232,1.2991,1.2795,1.2136,1.1711,1.1589,1.1097,1.0857,1.0722,1.0678,1.0624,1.0624,1.0624,1.0624,1.0624,1.0624,1.0624,1.0624,1.0624,1.0624,1.0624,1.0624,1.0624,1.0624,1.0624,1.0624,1.0624,1.0624,1.0624,1.0624,1.0624,1.0624,1.0571,1.0207,0.9866,0.9372,0.8635,0.8284,0.8049,0.7664,0.7385,0.7165,0.6897,0.652,0.6155,0.5831,0.558,0.5316,0.4932,0.5198,0.5314,0.495,0.5209,0.5408,0.5291,0.5445,0.5612,0.5663,0.5807,0.6117,0.666,0.7003,0.7492,0.8344,0.8419,0.8623,0.9134,0.8783,0.837,0.8012,0.8292,0.8387,0.8315,0.8183,0.8251,0.8513,0.8504,0.8482,0.8497,0.8408,0.7998,0.7165,0.6474,0.6114,0.6009,0.5791,0.5681,0.5677,0.5462,0.5462,0.5462,0.5352,0.5352,0.5352,0.4963,0.4794,0.473,1.6689,1.6816,1.6953,1.7363,1.6788,1.649,1.6876,1.6376,1.5886,1.5886,1.5816,1.5816,1.5816,1.5816,1.5263,1.4055,1.4765,1.5221,1.4858,1.5152,1.5093,1.4601,1.3826,1.3361,1.3042,1.202,1.1418,1.1213,1.0877,1.0735,1.0778,1.0778,1.0764,1.0744,1.0681,1.0688,1.0688,1.0645,1.0651,1.0651,1.0678,1.0672,1.0658,1.0651,1.0645,1.0624,1.0624,1.0624,1.0624,1.0624,1.0624,1.0577,1.0234,1.0134,1.0,0.9382,0.9065,0.8778,0.8659,0.8639,0.8408,0.7759,0.7471,0.7107,0.6085,0.5841,0.5783,0.5482,0.565,0.5914,0.6008,0.6278,0.6504,0.6627,0.7016,0.7235,0.7076,0.7313,0.7509,0.7409,0.7162,0.7355,0.8315,0.8218,0.8498,0.9436,0.9277,0.9234,0.9476,0.8636,0.8375,0.8675,0.8171,0.8109,0.8521,0.8573,0.889,0.9458,0.8837,0.8302,0.7818,0.6918,0.649,0.6436,0.6059,0.5845,0.585,0.5681,0.5681,0.5795,0.5466,0.5462,0.5567,0.5407,0.5352,0.529,1.7705,1.7705,1.7734,1.7842,1.7716,1.761,1.7706,1.7588,1.7442,1.7442,1.6941,1.6655,1.6655,1.6655,1.6513,1.6187,1.5835,1.5574,1.548,1.5369,1.5222,1.5128,1.4571,1.4213,1.4148,1.3737,1.3491,1.3286,1.2505,1.2284,1.2488,1.2488,1.2342,1.202,1.1545,1.1365,1.1512,1.1247,1.1214,1.13,1.1402,1.1288,1.1091,1.0954,1.0755,1.0624,1.0624,1.0624,1.0624,1.0624,1.0624,1.0611,1.0481,1.0301,1.0047,0.9686,0.9372,0.9084,0.9077,0.8857,0.8573,0.8355,0.8146,0.7797,0.7354,0.7286,0.7273,0.683,0.7101,0.7182,0.655,0.6987,0.7283,0.7027,0.7238,0.7475,0.7517,0.7583,0.7871,0.8499,0.8529,0.8777,0.9554,0.956,0.9568,0.9562,0.9414,0.9254,0.9118,0.8561,0.8419,0.8669,0.8171,0.7955,0.8055,0.8055,0.8162,0.8321,0.7943,0.7729,0.7568,0.7456,0.7241,0.6923,0.6858,0.6588,0.6223,0.59,0.5795,0.5795,0.574,0.5736,0.5736,0.5686,0.5686,0.5682,1.8144,1.8144,1.8144,1.8008,1.8008,1.8008,1.8008,1.8008,1.8008,1.8008,1.7647,1.7432,1.7432,1.7432,1.7432,1.7432,1.701,1.6733,1.6733,1.6611,1.656,1.656,1.5918,1.5525,1.5449,1.4882,1.4446,1.3999,1.3486,1.3259,1.3348,1.3348,1.3244,1.3052,1.2677,1.2557,1.2636,1.2495,1.2314,1.2196,1.2557,1.2461,1.2056,1.2365,1.2065,1.1523,1.1439,1.1134,1.0735,1.0665,1.0624,1.0624,1.0624,1.0448,1.0287,1.0134,0.978,0.9412,0.9223,0.9064,0.885,0.8718,0.8567,0.8324,0.8085,0.8081,0.7993,0.7615,0.7843,0.8019,0.7677,0.8049,0.8373,0.8303,0.8498,0.871,0.8728,0.874,0.8977,0.9381,0.929,0.9346,0.9665,0.9672,0.9547,0.9396,0.9257,0.911,0.9032,0.854,0.8342,0.8495,0.8221,0.8109,0.8209,0.8573,0.8573,0.8209,0.8262,0.8049,0.7681,0.7824,0.7765,0.7557,0.7444,0.7235,0.6972,0.6332,0.6223,0.6332,0.5955,0.59,0.6064,0.585,0.5848,0.5966,1.8337,1.8337,1.8279,1.8076,1.8008,1.8008,1.8008,1.8008,1.8008,1.8008,1.8008,1.8008,1.8008,1.8008,1.8008,1.8008,1.8008,1.8008,1.8008,1.8008,1.8008,1.8008,1.7432,1.7001,1.6853,1.5764,1.5027,1.4562,1.4372,1.428,1.4114,1.4114,1.4082,1.4032,1.39,1.39,1.39,1.3824,1.3581,1.3253,1.3889,1.3814,1.332,1.404,1.3667,1.2796,1.2649,1.2,1.1145,1.09,1.0721,1.0624,1.0624,1.0624,1.0624,1.0624,1.0268,0.9753,0.9452,0.925,0.9117,0.8878,0.8804,0.8744,0.8497,0.8437,0.837,0.8116,0.8263,0.853,0.8818,0.9112,0.9406,0.9699,0.9993,1.0126,1.001,1.0086,1.006,0.9945,0.9623,0.9447,0.9447,0.9337,0.9266,0.9221,0.8984,0.887,0.8895,0.8471,0.8273,0.833,0.8286,0.8374,0.8679,0.9354,0.9354,0.8679,0.9047,0.8791,0.8109,0.8296,0.8343,0.8237,0.8037,0.7931,0.7771,0.6972,0.6815,0.7139,0.6332,0.6223,0.649,0.6119,0.6132,0.6329,1.8482,1.8405,1.8269,1.8269,1.8144,1.8008,1.8008,1.8008,1.8008,1.8008,1.8008,1.8008,1.8008,1.8008,1.8008,1.8008,1.8008,1.8008,1.8008,1.8008,1.8008,1.8008,1.7872,1.7794,1.7794,1.6867,1.6587,1.7156,1.6129,1.5833,1.6136,1.6002,1.5689,1.5357,1.4772,1.4649,1.4806,1.4504,1.4492,1.4713,1.4891,1.4902,1.468,1.4484,1.4152,1.3735,1.3563,1.2833,1.1942,1.1891,1.1326,1.0624,1.0624,1.0624,1.0624,1.0624,1.0557,1.0361,1.006,0.9562,0.9117,0.8878,0.8804,0.8798,0.8751,0.8738,0.8724,0.8677,0.8711,0.8831,0.9064,0.9412,0.9713,1.0,1.0301,1.0494,1.0494,1.0281,1.0114,1.0053,0.9801,0.9628,0.9628,0.9621,0.9522,0.922,0.9043,0.8822,0.8514,0.8318,0.8287,0.8532,0.8546,0.8738,0.9106,0.9211,0.9211,0.9106,0.9159,0.9106,0.9001,0.9347,0.9354,0.9047,0.9099,0.8935,0.856,0.7824,0.7563,0.7563,0.7085,0.6923,0.6977,0.6923,0.7065,0.7239,1.8684,1.8549,1.8482,1.8337,1.8144,1.8008,1.8008,1.8008,1.8008,1.8008,1.8008,1.8008,1.8008,1.8008,1.8008,1.8008,1.8008,1.8008,1.8008,1.8008,1.8008,1.8008,1.8008,1.8008,1.8008,1.7579,1.7501,1.7706,1.7148,1.6995,1.7109,1.6906,1.6659,1.6474,1.6071,1.5936,1.6031,1.585,1.5713,1.5653,1.6184,1.6148,1.5756,1.6178,1.5857,1.518,1.4992,1.4205,1.3279,1.2783,1.2111,1.1397,1.1164,1.087,1.0681,1.0996,1.0753,1.0294,1.0154,0.9686,0.915,0.9017,0.8925,0.8804,0.8804,0.8804,0.8804,0.8804,0.8804,0.8945,0.9399,0.9593,0.9833,1.0287,1.0474,1.0624,1.0624,1.0307,1.006,0.9907,0.9619,0.9379,0.9225,0.9212,0.9261,0.9428,0.9368,0.9358,0.9354,0.9295,0.9295,0.9347,0.9099,0.9204,0.9829,0.9769,0.9814,0.9961,0.9814,0.9614,0.9413,0.9666,0.971,0.951,0.9562,0.951,0.9295,0.856,0.8355,0.8415,0.7723,0.7503,0.7622,0.7384,0.7644,0.8057,1.9396,1.9131,1.8875,1.8664,1.8337,1.8076,1.8076,1.8008,1.8008,1.8008,1.8008,1.8008,1.8008,1.8008,1.8008,1.8008,1.8008,1.8008,1.8008,1.8008,1.8008,1.8008,1.8008,1.8008,1.8008,1.8008,1.794,1.7784,1.7706,1.7647,1.7529,1.7382,1.7245,1.7245,1.7107,1.7047,1.7047,1.6978,1.676,1.6491,1.7194,1.7176,1.6724,1.7579,1.7364,1.6618,1.6319,1.5538,1.4536,1.377,1.2987,1.2285,1.1892,1.1421,1.1108,1.16,1.124,1.062,1.0255,0.974,0.9325,0.9259,0.9018,0.8804,0.8804,0.8804,0.8804,0.8804,0.891,0.9139,0.963,0.9795,1.0103,1.0711,1.0627,1.058,1.0885,1.0444,1.0062,1.0001,0.9695,0.9416,0.918,0.9159,0.9361,0.9762,0.9762,0.9917,1.0167,1.0218,1.0167,1.0167,0.9762,0.988,1.0608,1.049,1.0584,1.0779,1.0525,1.0277,0.9976,1.0072,1.0123,1.0123,1.0072,1.0079,1.0028,0.9295,0.9187,0.9369,0.8511,0.8327,0.8559,0.8285,0.8531,0.902,2.0933,2.0291,1.9704,1.9704,1.8931,1.8269,1.8269,1.8144,1.8008,1.8008,1.8008,1.8008,1.8008,1.8008,1.8008,1.8008,1.8008,1.8008,1.8008,1.8008,1.8008,1.8008,1.8008,1.8008,1.8008,1.8008,1.8008,1.8008,1.7784,1.7706,1.7706,1.7529,1.747,1.747,1.747,1.747,1.747,1.7245,1.7245,1.7401,1.747,1.752,1.7638,1.7706,1.7638,1.756,1.7198,1.6451,1.5449,1.4792,1.3907,1.2989,1.2561,1.2389,1.2389,1.2389,1.2373,1.2035,1.0728,1.0005,0.9643,0.9535,0.9133,0.8804,0.8804,0.8804,0.8804,0.8804,0.9211,0.9553,0.9687,1.0128,1.0675,1.1319,1.0691,1.0504,1.1629,1.0842,1.0265,1.0771,1.052,1.0293,1.0261,1.0261,1.0312,1.0364,1.0364,1.0312,1.0218,1.0218,1.032,1.0568,1.0517,1.0728,1.1217,1.1217,1.1217,1.1267,1.1217,1.1217,1.1167,1.1167,1.1167,1.1167,1.0922,1.082,1.0761,1.0028,0.9948,1.023,0.9748,0.9806,1.0108,1.0079,1.0224,1.0382,2.1123,2.106,2.0921,2.0515,2.0322,2.0128,1.9759,1.9177,1.8787,1.8787,1.8337,1.8008,1.8008,1.8008,1.8008,1.8008,1.8008,1.8212,1.8586,1.8202,1.8008,1.8008,1.8008,1.8008,1.8008,1.8008,1.8008,1.8008,1.794,1.7862,1.7862,1.7725,1.7657,1.7657,1.7529,1.747,1.747,1.7392,1.7461,1.7539,1.7588,1.7647,1.7706,1.7852,1.7862,1.7862,1.7579,1.726,1.6782,1.6269,1.5495,1.4715,1.4024,1.3455,1.2978,1.2637,1.2818,1.2984,1.224,1.1659,1.1256,1.0928,1.0585,1.028,0.9859,0.9814,0.9814,0.9814,0.9961,1.0157,1.0412,1.0604,1.086,1.129,1.1077,1.0995,1.1456,1.098,1.0678,1.0893,1.0577,1.0415,1.0415,1.0415,1.0576,1.0947,1.0947,1.1099,1.1351,1.1401,1.1401,1.1551,1.1551,1.156,1.1528,1.1528,1.1619,1.1769,1.1628,1.1528,1.1528,1.1377,1.1326,1.1267,1.1167,1.1302,1.1462,1.0983,1.104,1.1352,1.0692,1.0541,1.0674,1.0521,1.073,1.1106,2.1753,2.1815,2.1741,2.1279,2.1204,2.1089,2.0707,2.0139,1.9694,1.9617,1.8911,1.8395,1.8337,1.8144,1.8008,1.8008,1.8202,1.8529,1.8977,1.8787,1.8462,1.8008,1.8008,1.8008,1.8008,1.8008,1.8008,1.8008,1.8008,1.8008,1.8008,1.7862,1.7784,1.7784,1.7735,1.7676,1.7676,1.7598,1.7529,1.7598,1.7647,1.7706,1.7706,1.794,1.8008,1.794,1.7784,1.7706,1.7648,1.7054,1.6579,1.6099,1.5333,1.4585,1.3936,1.3557,1.3596,1.3761,1.3563,1.3365,1.2964,1.2249,1.1674,1.1247,1.0845,1.0597,1.0466,1.0466,1.0576,1.074,1.0883,1.1054,1.1229,1.1543,1.1392,1.132,1.1707,1.1341,1.1104,1.1262,1.1089,1.0931,1.0931,1.0931,1.1091,1.1519,1.1569,1.1719,1.2076,1.2076,1.2076,1.2076,1.2076,1.2026,1.1828,1.1828,1.1927,1.2076,1.1927,1.1828,1.1828,1.1628,1.1569,1.1528,1.1477,1.1635,1.1982,1.1674,1.186,1.2239,1.1784,1.1561,1.1511,1.1383,1.1526,1.1813,2.3078,2.2555,2.2101,2.2101,2.1393,2.0824,2.0824,2.0707,2.0526,2.0333,1.9748,1.9233,1.9044,1.8395,1.8008,1.8008,1.8654,1.9044,1.9044,1.9704,1.9507,1.8076,1.8008,1.8008,1.8008,1.8008,1.8008,1.8008,1.8008,1.8008,1.8008,1.8008,1.8008,1.8008,1.8008,1.8008,1.8008,1.7784,1.7706,1.7706,1.7706,1.7706,1.7706,1.794,1.8008,1.794,1.7784,1.7706,1.7648,1.7064,1.694,1.6854,1.6334,1.5845,1.5392,1.5392,1.499,1.4506,1.4666,1.4843,1.4632,1.3156,1.2142,1.1525,1.1525,1.1034,1.0618,1.0618,1.0998,1.1226,1.099,1.1329,1.1837,1.2248,1.1497,1.1313,1.255,1.1908,1.1528,1.2026,1.2076,1.2076,1.2076,1.2076,1.2076,1.2076,1.2076,1.2076,1.2076,1.2076,1.2076,1.2076,1.2076,1.2076,1.2076,1.2076,1.2076,1.2076,1.2076,1.2076,1.2076,1.2076,1.2076,1.2085,1.1837,1.195,1.2307,1.2044,1.2341,1.2988,1.298,1.2974,1.2989,1.2989,1.2867,1.2629,2.3078,2.2944,2.2811,2.2811,2.2555,2.2421,2.2421,2.1928,2.1491,2.1428,2.0719,2.0204,2.0139,1.9814,1.9617,1.9617,1.9704,1.977,1.977,2.042,2.042,1.9507,1.8988,1.8721,1.8721,1.8721,1.8988,1.9452,1.8988,1.8721,1.8721,1.8202,1.8008,1.8008,1.8008,1.8008,1.8008,1.794,1.793,1.793,1.793,1.793,1.794,1.8008,1.8008,1.8008,1.793,1.793,1.791,1.7726,1.7687,1.7543,1.7042,1.6281,1.5647,1.5586,1.5232,1.4862,1.4911,1.5029,1.4934,1.4107,1.3802,1.3505,1.2782,1.2501,1.2286,1.1963,1.1968,1.1963,1.1912,1.1989,1.2135,1.2151,1.201,1.1989,1.225,1.205,1.1927,1.2076,1.2076,1.2076,1.2076,1.2076,1.2076,1.2076,1.2076,1.2076,1.2076,1.2076,1.2076,1.2076,1.2076,1.2076,1.2076,1.2076,1.2076,1.2076,1.2076,1.2076,1.2085,1.2411,1.254,1.2507,1.2748,1.3041,1.3405,1.3079,1.3266,1.3663,1.3416,1.3356,1.3338,1.3338,1.3268,1.3216,2.3078,2.3078,2.3078,2.3078,2.3078,2.3078,2.3078,2.2702,2.2384,2.2334,2.1616,2.1101,2.0974,2.0655,2.0398,2.0398,2.0537,2.0752,2.0996,2.1325,2.1198,2.0549,2.0085,1.9694,1.9441,1.9441,1.9639,2.0096,1.9639,1.9441,1.9441,1.9054,1.8664,1.8395,1.8395,1.8269,1.8008,1.8008,1.8008,1.8008,1.8008,1.8008,1.8008,1.8008,1.8008,1.8008,1.8008,1.8008,1.8008,1.8008,1.8008,1.7969,1.7561,1.6944,1.6292,1.6004,1.56,1.5179,1.5018,1.5098,1.5089,1.4792,1.4696,1.4489,1.3695,1.3303,1.3074,1.2664,1.248,1.2382,1.2382,1.2382,1.2323,1.2274,1.2332,1.2323,1.2175,1.2175,1.2175,1.2175,1.2126,1.2126,1.2175,1.2126,1.2076,1.2076,1.2076,1.2076,1.2076,1.2076,1.2076,1.2076,1.2076,1.2076,1.2076,1.2274,1.2323,1.2323,1.2175,1.2175,1.2332,1.2425,1.2567,1.2733,1.2982,1.336,1.3882,1.3663,1.3839,1.4198,1.4172,1.3992,1.37,1.3932,1.3743,1.3511,2.3078,2.3078,2.3078,2.3078,2.3078,2.3078,2.3078,2.3078,2.3078,2.2909,2.2396,2.1939,2.1741,2.1164,2.0782,2.0782,2.125,2.1776,2.2359,2.2309,2.1925,2.1262,2.1198,2.0933,2.0302,2.0226,2.0226,2.0291,2.0226,2.0161,2.0161,2.0096,1.977,1.911,1.911,1.8787,1.8202,1.8202,1.8144,1.8076,1.8134,1.8144,1.8076,1.8134,1.8144,1.8076,1.8076,1.8076,1.8008,1.8008,1.8008,1.8008,1.8008,1.7581,1.7014,1.6703,1.6162,1.5609,1.52,1.5145,1.5263,1.5225,1.5022,1.4727,1.4297,1.3791,1.3343,1.2928,1.2713,1.2586,1.2586,1.2558,1.2529,1.248,1.2529,1.248,1.2323,1.2323,1.2323,1.2323,1.2224,1.2175,1.2332,1.2175,1.2126,1.2126,1.2126,1.2126,1.2126,1.2126,1.2126,1.2126,1.2126,1.2076,1.2076,1.248,1.2676,1.2676,1.2372,1.2372,1.2725,1.2447,1.248,1.2822,1.2896,1.3304,1.3937,1.3937,1.4157,1.4625,1.501,1.4765,1.424,1.4656,1.4341,1.3803,2.3078,2.3078,2.3078,2.3078,2.3078,2.3078,2.3078,2.3078,2.3078,2.3078,2.2836,2.2714,2.2763,2.2469,2.2285,2.2396,2.2408,2.242,2.242,2.2359,2.2235,2.1987,2.1987,2.1862,2.1737,2.1198,2.1198,2.1726,2.1198,2.0869,2.0869,2.0355,2.0031,1.9835,1.9835,1.977,1.9639,1.9639,1.9309,1.8844,1.9375,1.9309,1.8854,1.9441,1.9309,1.8777,1.8777,1.8462,1.8008,1.8008,1.8008,1.8008,1.8008,1.7715,1.7298,1.72,1.687,1.6369,1.575,1.5756,1.579,1.5292,1.5245,1.5166,1.4736,1.457,1.433,1.3902,1.3439,1.3106,1.3106,1.2847,1.2627,1.2529,1.2578,1.2627,1.248,1.248,1.248,1.248,1.2421,1.2431,1.2421,1.2323,1.2274,1.2274,1.2274,1.2274,1.2274,1.2274,1.2274,1.2274,1.2175,1.2076,1.2076,1.248,1.2676,1.2676,1.289,1.3025,1.3104,1.3749,1.3906,1.3704,1.4363,1.4533,1.4378,1.4378,1.465,1.5059,1.5177,1.5342,1.5526,1.5584,1.5517,1.54,2.3078,2.3078,2.3078,2.3078,2.3078,2.3078,2.3078,2.3078,2.3078,2.3078,2.3017,2.3017,2.3078,2.2969,2.2909,2.2957,2.2848,2.2726,2.2665,2.2604,2.2494,2.2309,2.2309,2.2247,2.2197,2.1788,2.18,2.2197,2.18,2.16,2.16,2.1273,2.088,2.0549,2.0549,2.042,2.0096,2.0096,1.9901,1.9573,1.9966,1.9835,1.9573,1.9966,1.9835,1.9507,1.9507,1.9044,1.8462,1.8462,1.8269,1.8076,1.8405,1.8302,1.8213,1.8315,1.8206,1.7853,1.7399,1.693,1.6527,1.6187,1.5742,1.5303,1.4883,1.4785,1.4658,1.4228,1.3902,1.3636,1.3442,1.3219,1.3006,1.2715,1.2735,1.2735,1.2627,1.2578,1.2578,1.2578,1.2529,1.248,1.248,1.2431,1.2382,1.2382,1.2382,1.2471,1.2696,1.2745,1.2842,1.3074,1.3025,1.3025,1.3025,1.3362,1.3714,1.3941,1.3677,1.3628,1.3844,1.4409,1.4623,1.4572,1.5025,1.5225,1.5137,1.4902,1.5128,1.5517,1.5517,1.569,1.5931,1.6161,1.6218,1.6228,2.3078,2.3078,2.3078,2.3078,2.3078,2.3078,2.3078,2.3078,2.3078,2.3078,2.3078,2.3078,2.3078,2.3078,2.3078,2.3078,2.3017,2.2909,2.2909,2.28,2.2678,2.2482,2.242,2.2432,2.2321,2.2321,2.2247,2.2197,2.2197,2.2197,2.2197,2.2197,2.1862,2.1262,2.1262,2.1008,2.0495,2.0495,2.0366,2.0291,2.042,2.0355,2.0291,2.042,2.0355,2.0291,2.0291,1.9835,1.9177,1.9177,1.8787,1.8462,1.8977,1.9177,1.9225,1.9414,1.9495,1.946,1.8978,1.819,1.7469,1.7311,1.653,1.569,1.515,1.5005,1.4785,1.4424,1.4341,1.4291,1.3945,1.3799,1.3631,1.3234,1.3066,1.2968,1.2783,1.2725,1.2725,1.2725,1.2627,1.2578,1.2578,1.2529,1.2529,1.2529,1.2529,1.2764,1.3218,1.3218,1.3505,1.4025,1.4014,1.4057,1.4131,1.4449,1.489,1.5448,1.4782,1.462,1.4857,1.5091,1.5254,1.5505,1.5577,1.5711,1.5874,1.5468,1.5584,1.6046,1.6046,1.6046,1.6171,1.657,1.6751,1.6751,2.3078,2.3078,2.3078,2.3078,2.3078,2.3078,2.3078,2.3078,2.3078,2.3078,2.3017,2.2969,2.3078,2.3078,2.3078,2.3078,2.3078,2.3017,2.2909,2.2848,2.28,2.2678,2.2678,2.2629,2.2616,2.2616,2.2506,2.2197,2.2197,2.2197,2.2197,2.2197,2.2123,2.2061,2.2061,2.1999,2.1937,2.1937,2.1526,2.0996,2.1663,2.1526,2.0996,2.1663,2.1526,2.0933,2.0933,2.0549,1.9966,1.9966,1.9901,1.9835,1.9901,1.9966,1.9955,2.0019,1.9998,1.9899,1.9471,1.9233,1.891,1.806,1.7741,1.7406,1.6322,1.5716,1.5312,1.5254,1.5381,1.5481,1.5419,1.512,1.4746,1.426,1.3831,1.3344,1.292,1.2881,1.2881,1.2881,1.2881,1.2832,1.2832,1.2735,1.2676,1.2676,1.2676,1.2861,1.3372,1.3362,1.36,1.4176,1.4071,1.4206,1.459,1.5011,1.5459,1.5998,1.6649,1.6729,1.6421,1.6831,1.6724,1.6202,1.6565,1.644,1.5874,1.5816,1.6104,1.6513,1.6513,1.6751,1.7099,1.7155,1.7211,1.7211,2.3078,2.3078,2.3078,2.3078,2.3078,2.3078,2.3078,2.3078,2.3078,2.3078,2.3078,2.3017,2.3078,2.3078,2.3078,2.3078,2.3078,2.3078,2.3017,2.3017,2.2969,2.28,2.28,2.28,2.269,2.269,2.2629,2.2506,2.2506,2.2432,2.2309,2.2309,2.2247,2.2197,2.2197,2.2247,2.2309,2.2309,2.2111,2.1839,2.2173,2.2049,2.1726,2.2061,2.1999,2.1726,2.1726,2.1262,2.0677,2.0677,2.042,2.0161,2.0549,2.0677,2.0741,2.1135,2.1273,2.1227,2.0996,2.0472,1.9896,1.9516,1.8681,1.7857,1.7363,1.6831,1.6197,1.5526,1.576,1.5995,1.5745,1.5838,1.5782,1.5308,1.4767,1.4371,1.4188,1.3872,1.3658,1.3658,1.3658,1.3658,1.3658,1.361,1.361,1.361,1.361,1.3789,1.4305,1.4362,1.4582,1.5096,1.5326,1.5566,1.5784,1.6215,1.6729,1.7291,1.7678,1.7564,1.7111,1.7576,1.7634,1.7321,1.7379,1.719,1.6853,1.6457,1.657,1.6976,1.6694,1.6874,1.7334,1.749,1.7545,1.7545]}]]